[[{"header":{"parameterUnit":"m.s-1","parameterCategory":1,"la1":30.6,"la2":29.2853,"lo1":-89.7004,"lo2":-87.6739,"dy":0.0162,"dx":0.0183,"nx":112,"ny":82,"refTime":"2024-03-30T12:00:00:Z","depth":0,"parameterNumber":2,"parameterNumberName":"U-component_of_WINDS"},"data":[0.0,0.0,0.0,0.0,0.0,0.0,0.0,0.0,0.0,0.0,0.0,0.0,0.0,0.0,0.0,0.0,0.0,0.0,0.0,0.0,0.0,0.0,0.0,0.0,0.0,0.0,0.0,0.0,0.0,0.0,0.0,0.0,0.0,0.0,0.0,0.0,0.0,0.0,0.0,0.0,0.0,0.0,0.0,0.0,0.0,0.0,0.0,0.0,0.0,0.0,0.0,0.0,0.0,0.0,0.0,0.0,0.0,0.0,0.0,0.0,0.0,0.0,0.0,0.0,0.0,0.0,0.0,0.0,0.0,0.0,0.0,0.0,0.0,0.0,0.0,0.0,0.0,0.0,0.0,0.0,0.0,0.0,0.0,0.0,0.0,0.0,0.0,0.0,0.0,0.0,-5.0976,-5.4062,-5.8789,-6.1015,-5.9336,-5.9687,-5.7539,-5.1757,0.0,0.0,0.0,0.0,0.0,0.0,0.0,0.0,0.0,0.0,0.0,0.0,0.0,0.0,0.0,0.0,0.0,0.0,0.0,0.0,0.0,0.0,0.0,0.0,0.0,0.0,0.0,0.0,0.0,0.0,0.0,0.0,0.0,0.0,0.0,0.0,0.0,0.0,0.0,0.0,0.0,0.0,0.0,0.0,0.0,0.0,0.0,0.0,0.0,0.0,0.0,0.0,0.0,0.0,0.0,0.0,0.0,0.0,0.0,0.0,0.0,0.0,0.0,0.0,0.0,0.0,0.0,0.0,0.0,0.0,0.0,0.0,0.0,0.0,0.0,0.0,0.0,0.0,0.0,0.0,0.0,0.0,0.0,0.0,0.0,0.0,0.0,0.0,0.0,0.0,0.0,0.0,0.0,0.0,0.0,0.0,0.0,0.0,0.0,0.0,0.0,0.0,0.0,0.0,-5.0117,-5.5625,-5.9492,-6.1015,-5.9336,-5.8633,-5.6328,-5.168,0.0,0.0,0.0,0.0,0.0,0.0,0.0,0.0,0.0,0.0,0.0,0.0,0.0,0.0,0.0,0.0,0.0,0.0,0.0,0.0,0.0,0.0,0.0,0.0,0.0,0.0,0.0,0.0,0.0,0.0,0.0,0.0,0.0,0.0,0.0,0.0,0.0,0.0,0.0,0.0,0.0,0.0,0.0,0.0,0.0,0.0,0.0,0.0,0.0,0.0,0.0,0.0,0.0,0.0,0.0,0.0,0.0,0.0,0.0,0.0,0.0,0.0,0.0,0.0,0.0,0.0,0.0,0.0,0.0,0.0,0.0,0.0,0.0,0.0,0.0,0.0,0.0,0.0,0.0,0.0,0.0,0.0,0.0,0.0,0.0,0.0,0.0,0.0,0.0,0.0,0.0,0.0,0.0,0.0,0.0,0.0,0.0,0.0,0.0,0.0,0.0,0.0,0.0,-4.9453,-5.1601,-5.6758,-5.914,-5.9844,-5.8594,-5.7265,-5.4844,-5.0976,-5.1054,0.0,0.0,0.0,0.0,0.0,0.0,0.0,0.0,0.0,0.0,0.0,0.0,0.0,0.0,0.0,0.0,0.0,0.0,0.0,0.0,0.0,0.0,0.0,0.0,0.0,0.0,0.0,0.0,0.0,0.0,0.0,0.0,0.0,0.0,0.0,0.0,0.0,0.0,0.0,0.0,0.0,0.0,0.0,0.0,0.0,0.0,0.0,0.0,0.0,0.0,0.0,0.0,0.0,0.0,0.0,0.0,0.0,0.0,0.0,0.0,0.0,0.0,0.0,0.0,0.0,0.0,0.0,0.0,0.0,0.0,0.0,0.0,0.0,0.0,0.0,0.0,0.0,0.0,0.0,0.0,0.0,0.0,0.0,0.0,0.0,0.0,0.0,0.0,0.0,0.0,0.0,0.0,0.0,0.0,0.0,0.0,0.0,0.0,0.0,0.0,0.0,0.0,-5.2068,-5.3552,-5.6872,-5.8396,-5.8554,-5.7109,-5.5586,-5.3242,-4.9805,-4.8594,0.0,0.0,0.0,0.0,0.0,0.0,0.0,0.0,0.0,0.0,0.0,0.0,0.0,0.0,0.0,0.0,0.0,0.0,0.0,0.0,0.0,0.0,0.0,0.0,0.0,0.0,0.0,0.0,0.0,0.0,0.0,0.0,0.0,0.0,0.0,0.0,0.0,0.0,0.0,0.0,0.0,0.0,0.0,0.0,0.0,0.0,0.0,0.0,0.0,0.0,0.0,0.0,0.0,0.0,0.0,0.0,0.0,0.0,0.0,0.0,0.0,0.0,0.0,0.0,0.0,0.0,0.0,0.0,0.0,0.0,0.0,0.0,0.0,0.0,0.0,0.0,0.0,0.0,0.0,0.0,0.0,0.0,0.0,0.0,0.0,0.0,0.0,0.0,0.0,0.0,0.0,0.0,0.0,0.0,0.0,0.0,0.0,0.0,0.0,0.0,0.0,0.0,-5.2459,-5.5042,-5.5265,-5.7541,-5.7718,-5.4531,-5.3437,-5.1406,-4.8008,-4.6211,0.0,0.0,0.0,0.0,0.0,0.0,0.0,0.0,0.0,0.0,0.0,0.0,0.0,0.0,0.0,0.0,0.0,0.0,0.0,0.0,0.0,0.0,0.0,0.0,0.0,0.0,0.0,0.0,0.0,0.0,0.0,0.0,0.0,0.0,0.0,0.0,0.0,0.0,0.0,0.0,0.0,0.0,0.0,0.0,0.0,0.0,0.0,0.0,0.0,0.0,0.0,0.0,0.0,0.0,0.0,0.0,0.0,0.0,0.0,0.0,0.0,0.0,0.0,0.0,0.0,0.0,0.0,0.0,0.0,0.0,0.0,0.0,0.0,0.0,0.0,0.0,0.0,0.0,0.0,0.0,0.0,0.0,0.0,0.0,0.0,0.0,0.0,0.0,0.0,0.0,0.0,0.0,0.0,0.0,0.0,0.0,0.0,0.0,0.0,0.0,0.0,0.0,-4.9718,-5.186,-5.405,-5.515,-5.5049,-5.3271,-5.2335,-5.0336,-4.6878,0.0,0.0,0.0,0.0,0.0,0.0,0.0,0.0,0.0,0.0,0.0,0.0,0.0,0.0,0.0,0.0,0.0,0.0,0.0,0.0,0.0,0.0,0.0,0.0,0.0,0.0,0.0,0.0,0.0,0.0,0.0,0.0,0.0,0.0,0.0,0.0,0.0,0.0,0.0,0.0,0.0,0.0,0.0,0.0,0.0,0.0,0.0,0.0,0.0,0.0,0.0,0.0,0.0,0.0,0.0,0.0,0.0,0.0,0.0,0.0,0.0,0.0,0.0,0.0,0.0,0.0,0.0,0.0,0.0,0.0,0.0,0.0,0.0,0.0,0.0,0.0,0.0,0.0,0.0,0.0,0.0,0.0,0.0,0.0,0.0,0.0,0.0,0.0,0.0,0.0,0.0,0.0,0.0,0.0,0.0,0.0,0.0,0.0,0.0,0.0,0.0,0.0,-4.6973,-4.8457,-5.0301,-5.2952,-5.351,-5.3185,-5.1859,-5.0925,-4.9076,-4.5881,0.0,0.0,0.0,0.0,0.0,0.0,0.0,0.0,0.0,0.0,0.0,0.0,0.0,0.0,0.0,0.0,0.0,0.0,0.0,0.0,0.0,0.0,0.0,0.0,0.0,0.0,0.0,0.0,0.0,0.0,0.0,0.0,0.0,0.0,0.0,0.0,0.0,0.0,0.0,0.0,0.0,0.0,0.0,0.0,0.0,0.0,0.0,0.0,0.0,0.0,0.0,0.0,0.0,0.0,0.0,0.0,0.0,0.0,0.0,0.0,0.0,0.0,0.0,0.0,0.0,0.0,0.0,0.0,0.0,0.0,0.0,0.0,0.0,0.0,0.0,0.0,0.0,0.0,0.0,0.0,0.0,0.0,0.0,0.0,0.0,0.0,0.0,0.0,0.0,0.0,0.0,0.0,0.0,0.0,0.0,0.0,0.0,0.0,0.0,0.0,0.0,0.0,-4.6984,-4.9356,-5.1164,-5.1973,-5.2908,-5.2505,-5.0075,-4.9071,-4.7482,0.0,0.0,0.0,0.0,0.0,0.0,0.0,0.0,0.0,0.0,0.0,0.0,0.0,0.0,0.0,0.0,0.0,0.0,0.0,0.0,0.0,0.0,0.0,0.0,0.0,0.0,0.0,0.0,0.0,0.0,0.0,0.0,0.0,0.0,0.0,0.0,0.0,0.0,0.0,0.0,0.0,0.0,0.0,0.0,0.0,0.0,0.0,0.0,0.0,0.0,0.0,0.0,0.0,0.0,0.0,0.0,0.0,0.0,0.0,0.0,0.0,0.0,0.0,0.0,0.0,0.0,0.0,0.0,0.0,0.0,0.0,0.0,0.0,0.0,0.0,0.0,0.0,0.0,0.0,0.0,0.0,0.0,0.0,0.0,0.0,0.0,0.0,0.0,0.0,0.0,0.0,0.0,0.0,0.0,0.0,0.0,0.0,0.0,0.0,0.0,0.0,0.0,0.0,-4.6079,-4.7826,-4.9272,-5.0255,-5.0593,-5.0209,-4.8965,-4.7517,-4.6097,-4.4691,0.0,0.0,0.0,0.0,0.0,0.0,0.0,0.0,0.0,0.0,0.0,0.0,0.0,0.0,0.0,0.0,0.0,0.0,0.0,0.0,0.0,0.0,0.0,0.0,0.0,0.0,0.0,0.0,0.0,0.0,0.0,0.0,0.0,0.0,0.0,0.0,0.0,0.0,0.0,0.0,0.0,0.0,0.0,0.0,0.0,0.0,0.0,0.0,0.0,0.0,0.0,0.0,0.0,0.0,0.0,0.0,0.0,0.0,0.0,0.0,0.0,0.0,0.0,0.0,0.0,0.0,0.0,0.0,0.0,0.0,0.0,0.0,0.0,0.0,0.0,0.0,0.0,0.0,0.0,0.0,0.0,0.0,0.0,0.0,0.0,0.0,0.0,0.0,0.0,0.0,0.0,0.0,0.0,0.0,0.0,0.0,0.0,0.0,0.0,0.0,0.0,0.0,-4.5613,-4.714,-4.8449,-4.9404,-4.9528,-4.9049,-4.7889,-4.6563,-4.5311,-4.4059,0.0,0.0,0.0,0.0,0.0,0.0,0.0,0.0,0.0,0.0,0.0,0.0,0.0,0.0,0.0,0.0,0.0,0.0,0.0,0.0,0.0,0.0,0.0,0.0,0.0,0.0,0.0,0.0,0.0,0.0,0.0,0.0,0.0,0.0,0.0,0.0,0.0,0.0,0.0,0.0,0.0,0.0,0.0,0.0,0.0,0.0,0.0,0.0,0.0,0.0,0.0,0.0,0.0,0.0,0.0,0.0,0.0,0.0,0.0,0.0,0.0,0.0,0.0,0.0,0.0,0.0,0.0,0.0,0.0,0.0,0.0,0.0,0.0,0.0,0.0,0.0,0.0,0.0,0.0,0.0,0.0,0.0,0.0,0.0,0.0,0.0,0.0,0.0,0.0,0.0,0.0,0.0,0.0,0.0,0.0,0.0,0.0,0.0,0.0,0.0,0.0,0.0,-4.5483,-4.7028,-4.8317,-4.9202,-4.9202,-4.8566,-4.7024,-4.6078,-4.4946,-4.3404,0.0,0.0,0.0,0.0,0.0,0.0,0.0,0.0,0.0,0.0,0.0,0.0,0.0,0.0,0.0,0.0,0.0,0.0,0.0,0.0,0.0,0.0,0.0,0.0,0.0,0.0,0.0,0.0,0.0,0.0,0.0,0.0,0.0,0.0,0.0,0.0,0.0,0.0,0.0,0.0,0.0,0.0,0.0,0.0,0.0,0.0,0.0,0.0,0.0,0.0,0.0,0.0,0.0,0.0,0.0,0.0,0.0,0.0,0.0,0.0,-4.8794,-4.89,0.0,0.0,0.0,0.0,0.0,0.0,0.0,0.0,0.0,0.0,0.0,0.0,0.0,0.0,0.0,0.0,0.0,0.0,0.0,0.0,0.0,0.0,0.0,0.0,0.0,0.0,0.0,0.0,0.0,0.0,0.0,0.0,0.0,0.0,0.0,0.0,0.0,0.0,0.0,0.0,-4.5508,-4.6565,-4.7471,-4.8279,-4.7817,-4.7278,-4.6941,-4.5552,-4.4537,-4.416,-4.2772,0.0,0.0,0.0,0.0,0.0,0.0,0.0,0.0,0.0,0.0,0.0,0.0,0.0,0.0,0.0,0.0,0.0,0.0,0.0,0.0,0.0,0.0,0.0,0.0,0.0,0.0,0.0,0.0,0.0,0.0,0.0,0.0,0.0,0.0,0.0,0.0,0.0,0.0,0.0,0.0,0.0,0.0,0.0,0.0,0.0,0.0,0.0,0.0,0.0,0.0,0.0,0.0,0.0,0.0,0.0,0.0,0.0,0.0,0.0,-4.8538,-4.8368,0.0,0.0,0.0,0.0,0.0,0.0,0.0,0.0,0.0,0.0,0.0,0.0,0.0,0.0,0.0,0.0,0.0,0.0,0.0,0.0,0.0,0.0,0.0,0.0,0.0,0.0,0.0,0.0,0.0,0.0,0.0,0.0,0.0,0.0,0.0,0.0,0.0,0.0,0.0,0.0,-4.487,-4.6138,-4.7038,-4.7471,-4.7154,-4.674,-4.6317,-4.4757,-4.3764,-4.3764,-4.2187,0.0,0.0,0.0,0.0,0.0,0.0,0.0,0.0,0.0,0.0,0.0,0.0,0.0,0.0,0.0,0.0,0.0,0.0,0.0,0.0,0.0,0.0,0.0,0.0,0.0,0.0,0.0,0.0,0.0,0.0,0.0,0.0,0.0,0.0,0.0,0.0,0.0,0.0,0.0,0.0,0.0,0.0,0.0,0.0,0.0,0.0,0.0,0.0,0.0,0.0,0.0,0.0,0.0,-5.0248,-5.0674,-5.1365,-5.121,-5.1249,-5.1249,-4.9013,-4.8327,-4.8833,-4.8561,0.0,0.0,0.0,0.0,0.0,0.0,0.0,0.0,0.0,0.0,0.0,0.0,0.0,0.0,0.0,0.0,0.0,0.0,0.0,0.0,0.0,0.0,-4.5629,-4.5734,-4.5107,-4.4305,-4.3707,0.0,0.0,0.0,0.0,0.0,0.0,0.0,0.0,0.0,0.0,0.0,-4.4218,-4.5701,-4.674,-4.6885,-4.6778,-4.6394,-4.5671,-4.4316,-4.3393,-4.3124,-4.1809,-4.0908,0.0,0.0,0.0,0.0,0.0,0.0,0.0,0.0,0.0,0.0,0.0,0.0,0.0,0.0,0.0,0.0,0.0,0.0,0.0,0.0,0.0,0.0,0.0,0.0,0.0,0.0,0.0,0.0,0.0,0.0,0.0,0.0,-5.3026,-5.1258,0.0,0.0,0.0,0.0,0.0,0.0,0.0,0.0,0.0,0.0,0.0,0.0,0.0,-4.9841,-5.0496,-5.1254,-5.1606,-5.1616,-5.2387,-5.281,-5.2887,-5.2117,-5.2194,-5.2849,-5.177,0.0,-4.9454,-4.7983,0.0,0.0,0.0,0.0,0.0,0.0,0.0,0.0,0.0,0.0,0.0,0.0,0.0,0.0,0.0,0.0,0.0,0.0,0.0,0.0,0.0,0.0,-4.5594,-4.562,-4.4974,-4.4289,-4.4198,-4.446,-4.4691,-4.4686,-4.3481,-4.2665,0.0,0.0,0.0,0.0,0.0,0.0,-4.4286,-4.5163,-4.6047,-4.6817,-4.6201,-4.571,-4.5594,-4.5402,-4.4662,-4.3201,-4.2901,-4.2109,-4.0646,-4.0615,0.0,0.0,0.0,0.0,0.0,0.0,0.0,0.0,0.0,0.0,0.0,0.0,0.0,0.0,0.0,0.0,0.0,0.0,0.0,0.0,0.0,0.0,0.0,0.0,0.0,0.0,0.0,0.0,0.0,-5.3087,-5.3586,-5.128,-5.1002,-5.0497,0.0,0.0,0.0,0.0,0.0,0.0,0.0,0.0,0.0,-5.0927,-5.1893,-5.2554,-5.2858,-5.3244,-5.3668,-5.4049,-5.3972,-5.4164,-5.4587,-5.4203,-5.4241,-5.4549,-5.3703,-5.2984,-5.2241,-5.0092,-4.8747,-4.7967,0.0,0.0,0.0,0.0,-4.6508,-4.6429,-4.6041,-4.5924,-4.5852,-4.5385,0.0,0.0,0.0,0.0,0.0,0.0,0.0,-4.6158,-4.5689,-4.5594,-4.5594,-4.5594,-4.5325,-4.5017,-4.5017,-4.4747,-4.4348,-4.3884,-4.3188,-4.2795,-4.3181,-4.2051,0.0,0.0,0.0,-4.3778,-4.4239,-4.5056,-4.5748,-4.6124,-4.5825,-4.5594,-4.5594,-4.5171,-4.4355,-4.3162,-4.2624,-4.1824,-4.0577,-4.0539,-4.0746,0.0,0.0,0.0,0.0,0.0,0.0,0.0,0.0,0.0,0.0,0.0,0.0,0.0,0.0,0.0,0.0,0.0,0.0,0.0,0.0,0.0,0.0,0.0,0.0,0.0,0.0,0.0,0.0,-5.33,-5.4114,-5.1256,-5.1668,-5.139,0.0,0.0,0.0,0.0,0.0,0.0,-5.0327,-5.1818,-5.283,-5.3151,-5.4419,-5.5198,-5.5429,-5.5429,-5.5621,-5.5967,-5.5391,-5.5275,-5.566,-5.566,-5.5671,-5.5643,-5.5028,-5.4654,-5.4329,-5.2037,-5.0302,-4.9013,-4.8147,-4.7299,-4.649,-4.6257,-4.6317,-4.6442,-4.6209,-4.6021,-4.575,-4.5401,-4.5097,-4.4826,-4.4166,0.0,0.0,0.0,0.0,-4.5556,-4.5325,-4.5594,-4.597,-4.6201,-4.6086,-4.597,-4.6201,-4.5393,-4.4393,-4.3585,-4.3239,-4.3162,-4.3355,-4.2316,0.0,-4.3201,-4.3585,-4.3893,-4.4239,-4.5056,-4.5594,-4.5594,-4.5594,-4.5594,-4.5594,-4.5017,-4.4278,-4.347,-4.2624,-4.1739,-4.0854,-4.0631,-4.0639,-4.09,0.0,0.0,0.0,0.0,0.0,0.0,0.0,0.0,0.0,0.0,0.0,0.0,0.0,0.0,0.0,0.0,0.0,0.0,0.0,0.0,0.0,0.0,0.0,0.0,0.0,0.0,0.0,0.0,0.0,-5.1106,-5.3541,0.0,0.0,0.0,0.0,-5.0402,-5.1156,-5.1968,-5.2789,-5.3683,-5.491,-5.652,-5.6635,-5.7095,-5.7913,-5.7913,-5.7517,-5.675,-5.6712,-5.6252,-5.5497,-5.5497,-5.552,-5.5588,-5.5538,-5.5149,-5.4357,-5.2597,-5.1393,-5.0589,-4.9776,-4.8964,-4.8082,-4.727,-4.7402,-4.7883,-4.7113,-4.6305,-4.5736,-4.6536,-4.6228,-4.5543,-4.5505,-4.5535,0.0,0.0,-4.494,-4.5402,-4.4586,-4.5586,-4.7048,-4.7778,-4.7394,-4.7048,-4.7817,-4.6701,-4.5287,-4.4393,-4.3624,-4.3355,-4.4124,0.0,-4.4124,-4.4239,-4.494,-4.521,-4.4393,-4.5056,-4.5594,-4.5594,-4.5594,-4.5594,-4.5594,-4.5556,-4.5171,-4.4278,-4.347,-4.2624,-4.1769,-4.0931,-4.09,-4.1739,-4.1777,0.0,0.0,0.0,0.0,0.0,0.0,0.0,0.0,0.0,0.0,0.0,0.0,0.0,0.0,0.0,0.0,0.0,0.0,0.0,0.0,0.0,0.0,0.0,0.0,0.0,0.0,0.0,0.0,-5.4059,-5.544,0.0,-5.4024,-5.3316,-5.2965,-5.2965,-5.4219,-5.5128,-5.5435,-5.6776,-5.7812,-5.8387,-5.8962,-5.9396,-5.9703,-5.8629,-5.7939,-5.7632,-5.652,-5.5792,-5.5485,-5.5485,-5.5497,-5.5558,-5.5558,-5.5378,-5.5055,-5.3903,-5.2374,-5.0652,-4.9803,-4.8955,-4.8137,-4.7829,-4.7871,-4.8048,-4.7778,-4.7124,-4.6317,-4.5509,-4.4662,-4.397,-4.397,-4.4355,-4.4701,-4.4393,-4.5299,-4.6156,-4.5311,-4.5936,-4.6714,-4.6417,-4.6148,-4.6042,-4.6339,-4.5907,-4.5389,-4.5118,-4.4414,-4.397,-4.4239,-4.3855,-4.3893,-4.4979,-4.4932,-4.4855,-4.5094,-4.5402,-4.5594,-4.5594,-4.5594,-4.5594,-4.5594,-4.5094,-4.4393,-4.3585,-4.2739,-4.1854,-4.1008,-4.0669,-4.0669,-4.0969,-4.0969,-4.1123,0.0,0.0,0.0,0.0,0.0,0.0,0.0,0.0,0.0,0.0,0.0,0.0,0.0,0.0,0.0,0.0,0.0,0.0,0.0,0.0,0.0,0.0,0.0,0.0,0.0,-5.4284,-5.6346,-5.5748,-5.7405,-5.7946,-5.6184,-5.5971,-5.5847,-5.559,-5.6792,-5.7596,-5.7596,-5.8898,-5.9664,-5.9664,-6.0238,-6.052,-6.052,-5.9128,-5.8285,-5.803,-5.6574,-5.5732,-5.5451,-5.5451,-5.5463,-5.5488,-5.5488,-5.5346,-5.5025,-5.4181,-5.2779,-5.0998,-5.0422,-4.9692,-4.8875,-4.8587,-4.8673,-4.8866,-4.8308,-4.774,-4.7009,-4.5316,-4.4393,-4.3932,-4.3915,-4.4299,-4.4752,-4.5042,-4.5898,-4.6638,-4.6062,-4.6311,-4.655,-4.5975,-4.5592,-4.5486,-4.5831,-4.5659,-4.5419,-4.5448,-4.5062,-4.4657,-4.4657,-4.4243,-4.4299,-4.5414,-4.5077,-4.494,-4.5518,-4.5594,-4.5594,-4.5594,-4.5594,-4.5479,-4.521,-4.4624,-4.397,-4.3162,-4.2277,-4.1546,-4.0969,-4.0669,-4.0516,-4.0516,-4.0516,-4.0631,-4.0931,0.0,0.0,0.0,0.0,0.0,0.0,0.0,0.0,0.0,0.0,0.0,0.0,0.0,0.0,0.0,0.0,0.0,0.0,0.0,0.0,0.0,0.0,0.0,-5.1885,-5.5615,-5.767,-5.595,-5.9444,-6.0648,-5.7275,-5.8323,-5.8897,-5.8145,-5.8729,-5.9133,-5.9133,-5.995,-6.0422,-6.0422,-6.0422,-6.0422,-6.0422,-5.9529,-5.8689,-5.7886,-5.6969,-5.6167,-5.5403,-5.5403,-5.539,-5.5415,-5.5415,-5.4966,-5.4219,-5.3338,-5.2532,-5.1776,-5.1776,-5.1239,-5.0396,-4.9632,-4.9844,-5.0315,-4.8673,-4.8077,-4.7769,-4.6124,-4.5586,-4.5577,-4.5532,-4.5514,-4.5658,-4.6484,-4.6732,-4.6732,-4.6694,-4.6732,-4.6732,-4.6656,-4.6014,-4.563,-4.6464,-4.5975,-4.54,-4.54,-4.54,-4.54,-4.54,-4.5448,-4.5514,-4.5514,-4.5559,0.0,-4.5586,-4.5586,-4.5586,-4.5594,-4.5594,-4.524,-4.4355,-4.4278,-4.3932,-4.3124,-4.2239,-4.1769,-4.1769,-4.0931,-4.0516,-4.0516,-4.0516,-4.0931,-4.1808,0.0,0.0,0.0,0.0,0.0,0.0,0.0,0.0,0.0,0.0,0.0,0.0,0.0,0.0,0.0,0.0,0.0,0.0,0.0,0.0,0.0,-5.1973,-5.351,-5.3741,-5.6352,-5.8481,-5.9187,-6.0252,-6.0763,-6.0481,-6.0223,-5.9977,-5.9762,-5.9925,-6.0026,-6.0026,-6.0255,-6.0422,-6.0422,-6.0422,-6.0422,-6.0422,-5.8956,-5.8116,-5.7886,-5.6434,-5.5632,-5.5403,-5.5403,-5.5403,-5.539,-5.539,-5.4944,-5.4089,-5.3209,-5.2368,-5.1603,-5.1081,-5.0692,-5.0462,-5.0253,-4.9908,-4.9458,-4.8393,-4.7587,-4.6897,-4.5793,-4.5448,-4.5448,-4.5429,-4.5429,-4.5611,-4.6474,-4.7134,-4.7399,-4.6797,-4.7072,-4.7193,-4.598,-4.5521,-4.5416,-4.5686,-4.5551,-4.5339,-4.538,-4.536,-4.535,-4.539,-4.5419,-4.5429,-4.5429,-4.5438,-4.5448,-4.5448,-4.5448,-4.5457,-4.5532,-4.5541,-4.5204,-4.4355,-4.3778,-4.3085,-4.22,-4.1354,-4.0854,-4.0854,-4.0631,-4.0516,-4.0516,-4.0516,-4.0931,0.0,0.0,0.0,0.0,0.0,0.0,0.0,0.0,0.0,0.0,0.0,0.0,0.0,0.0,0.0,0.0,0.0,0.0,0.0,0.0,0.0,0.0,-5.3797,-5.5314,-5.6401,-5.7789,-5.9163,-6.0457,-6.0839,-6.104,-6.1218,-6.1009,-6.0752,-6.0422,-6.0422,-6.0422,-6.0422,-6.0422,-6.0422,-6.0422,-6.0422,-6.0422,-6.0422,-5.9071,-5.8421,-5.8383,-5.6702,-5.5899,-5.5899,-5.5556,-5.5403,-5.5403,-5.5403,-5.4715,-5.3531,-5.2996,-5.2117,-5.1009,0.0,0.0,0.0,0.0,-4.9608,-4.9015,-4.7854,-4.7126,-4.655,-4.5669,-4.54,-4.54,-4.5419,-4.5409,-4.5563,-4.6375,-4.6957,-4.7193,-4.6696,-4.7171,-4.7444,-4.6118,-4.5812,-4.5823,-4.5854,-4.5576,-4.5288,-4.5367,-4.5347,0.0,-4.537,-4.54,-4.5409,-4.5409,-4.539,-4.54,-4.54,-4.54,-4.5419,-4.5448,-4.5448,-4.5111,-4.4332,-4.3496,0.0,0.0,0.0,-4.0492,-4.0516,-4.0516,0.0,0.0,0.0,-4.1623,-4.2854,-4.2854,0.0,0.0,-4.4778,-4.4979,0.0,0.0,0.0,0.0,0.0,0.0,0.0,0.0,0.0,0.0,0.0,0.0,0.0,0.0,0.0,0.0,-5.5418,-5.6833,-5.9214,-5.9521,-5.9779,-6.0416,-6.1117,-6.1242,-6.0499,-6.1058,-6.1172,-6.046,-6.0422,-6.0422,-6.0422,-6.0422,0.0,0.0,0.0,-6.0422,-6.0422,-5.9529,-5.9095,-5.9057,-5.739,-5.6587,-5.6549,-5.5785,-5.5403,-5.5403,-5.5403,-5.4409,-5.2805,-5.2805,-5.1811,-5.0283,-5.0283,-5.0245,-5.0092,-4.9346,-4.9018,-4.8687,-4.7182,0.0,0.0,-4.5659,-4.539,-4.5381,-4.537,-4.5398,-4.5541,-4.6282,-4.65,-4.6538,-4.6615,-4.7215,-4.7559,-4.6729,-4.65,-4.65,-4.6385,-4.5812,-4.5288,-4.5288,-4.5288,-4.5288,-4.5288,-4.5367,-4.5398,-4.5398,-4.54,-4.539,-4.539,-4.539,-4.539,-4.54,-4.54,0.0,-4.4288,-4.3483,-4.2696,-4.1886,-4.1174,-4.0776,-4.0785,-4.0785,-4.1162,-4.1923,-4.1962,-4.2739,-4.4316,-4.4316,-4.4739,-4.5594,-4.4816,-4.4855,0.0,0.0,0.0,0.0,0.0,0.0,0.0,0.0,0.0,0.0,0.0,0.0,0.0,0.0,0.0,-5.5126,-5.7263,-5.9048,-6.0227,-6.0329,-6.0353,-6.048,-6.0578,-6.0589,-6.0422,-6.0523,-6.0575,-6.0422,-6.0422,-6.0422,-6.0422,-6.0422,-6.0422,-6.0422,-6.0422,-6.0422,-6.0422,-5.9529,-5.9095,-5.9057,-5.739,0.0,-5.6549,-5.5785,-5.5403,-5.5403,-5.5403,-5.4409,-5.2805,-5.2805,-5.1811,-5.0283,-5.0283,-4.9901,-4.9301,-4.9159,-4.8215,-4.6991,-4.6647,-4.6112,-4.5548,-4.5357,-4.5319,-4.5309,-4.5298,-4.5337,0.0,-4.6271,-4.65,-4.6653,-4.7368,-4.7674,-4.7559,-4.6729,-4.65,-4.6309,-4.566,-4.5392,-4.5288,-4.5288,-4.5288,-4.5288,-4.5288,-4.5288,-4.5337,-4.5337,-4.5309,-4.5319,-4.5319,-4.5319,-4.5329,-4.538,-4.538,-4.5055,-4.4288,-4.4058,-4.3616,-4.2817,-4.2667,-4.2615,-4.2585,-4.2585,-4.2662,-4.2854,-4.2854,-4.3316,-4.4316,-4.4316,-4.4739,-4.5594,-4.5441,-4.5441,0.0,0.0,0.0,0.0,0.0,0.0,0.0,0.0,0.0,0.0,0.0,-4.9933,-5.1625,0.0,-5.4654,-5.717,-5.8561,-5.9651,-6.0431,-6.048,-6.0464,-6.0464,-6.0436,-6.0422,-6.0422,-6.0422,-6.0422,-6.0422,-6.0422,-6.0422,-6.0422,-6.0422,-6.0422,-6.0422,-6.0422,-6.0422,-6.0422,-5.9529,-5.9338,-5.972,-5.7619,-5.6816,-5.7199,-5.5976,-5.5403,-5.5403,-5.5403,-5.4409,-5.2728,-5.1888,-5.1047,-5.0283,-5.0283,-5.0054,-4.9633,-4.9263,-4.8258,-4.7101,-4.6653,-4.5965,-4.5288,-4.5288,-4.5288,-4.5288,-4.5288,-4.5288,-4.5392,-4.5774,-4.5889,-4.608,-4.692,-4.7483,-4.7674,-4.7264,-4.7139,-4.692,-4.608,-4.5583,-4.5288,-4.5288,-4.5288,-4.5288,-4.5288,-4.5288,-4.5288,-4.5288,-4.5288,-4.5288,-4.5288,-4.5288,-4.5298,-4.5357,-4.5367,-4.5186,-4.4786,-4.4384,-4.3809,-4.302,-4.3026,-4.306,-4.3085,-4.3085,-4.3278,-4.3701,-4.3701,-4.4124,-4.494,-4.494,-4.5171,-4.5594,-4.5594,-4.5594,0.0,0.0,0.0,0.0,0.0,0.0,0.0,0.0,-4.9086,-4.9971,-5.0778,-5.2036,-5.4308,-5.4929,-5.6049,-5.8942,-5.9484,-5.9792,-6.043,-6.0464,-6.0422,-6.0422,-6.0422,-6.0422,-6.0422,-6.0422,-6.0422,-6.0422,-6.0422,-6.0422,-6.0422,-6.0422,-6.0422,-6.0422,-6.0422,-6.0422,-6.0422,-5.9529,-5.9453,-6.0102,-5.7747,-5.6969,-5.7581,-5.6091,-5.5403,-5.5403,-5.5059,-5.4027,-5.2461,-5.0932,-5.0283,-5.0283,-5.0283,-5.0283,-5.0206,-4.9415,-4.8449,-4.7444,-4.6729,-4.5965,-4.5288,-4.5288,-4.5288,-4.5288,-4.5288,-4.5288,-4.5288,-4.5288,-4.5392,-4.5736,-4.6538,-4.7417,-4.8028,-4.7826,-4.7788,-4.7521,-4.65,-4.5774,-4.5288,-4.5288,-4.5288,-4.5288,-4.5288,-4.5288,-4.5288,-4.5288,-4.5288,-4.5288,-4.5288,-4.5288,-4.5288,-4.5288,-4.5288,-4.5288,-4.5288,-4.4717,-4.4078,-4.3435,-4.3434,-4.3478,-4.356,-4.3568,-4.3885,-4.4538,-4.4547,-4.4893,-4.5594,-4.5594,-4.5594,-4.5594,-4.5594,-4.5594,-5.0702,-4.9971,-4.9471,-4.9202,-4.9202,-4.9817,0.0,0.0,-5.1731,-5.2587,-5.3173,-5.396,-5.5314,-5.6546,-5.78,-5.9235,-6.0008,-6.0495,-6.0572,-6.0466,-6.0422,-6.0422,-6.0422,-6.0422,-6.0422,-6.0422,-6.0422,-6.0422,-6.0422,-6.0422,-6.0422,-6.0422,-6.0422,-6.0422,-6.0422,-6.0422,-6.0422,-5.9529,-5.9133,-5.9224,-5.7466,-5.6625,-5.6702,-5.5823,-5.5403,-5.5326,-5.376,-5.2575,-5.1658,-5.0703,-5.0283,-5.0283,-5.0283,-5.0283,-5.0206,-4.9415,-4.8067,-4.6615,-4.6538,-4.5965,-4.5288,-4.5288,-4.5288,-4.5288,-4.5288,-4.5288,-4.5288,-4.5288,-4.5812,-4.6577,-4.7406,-4.8296,-4.8754,-4.7979,-4.7788,-4.7368,-4.5774,-4.5354,-4.5288,-4.5288,-4.5288,-4.5288,-4.5288,-4.5288,-4.5288,-4.5288,-4.5288,-4.5288,-4.5288,-4.5288,-4.5288,-4.5288,-4.5288,-4.5288,-4.5288,-4.5253,-4.5217,-4.515,-4.5112,-4.5141,-4.5151,-4.5197,-4.5254,-4.5369,-4.5414,-4.5518,-4.5594,-4.5594,-4.5594,-4.5594,-4.5594,-4.5594,-5.1635,-5.0433,-4.951,-5.001,-5.051,-5.1125,-5.2192,-5.2538,-5.2895,-5.378,-5.4885,-5.6003,-5.7027,-5.8035,-5.9062,0.0,-6.0455,-6.0623,-6.0533,-6.048,-6.0272,-5.972,-6.0102,-6.0422,-6.0422,-6.0422,-6.0422,-6.0422,-6.0422,-6.0422,-6.0422,-6.0422,-6.0422,-6.0422,-6.0422,-6.0422,-6.0422,-5.9529,-5.9095,-5.9057,-5.739,-5.6587,-5.6549,-5.5785,-5.5403,-5.5288,-5.3569,-5.2614,-5.2193,-5.0856,-5.0283,-5.0245,-4.9786,-4.9901,-5.0245,-4.9901,-4.8716,-4.7264,-4.7264,-4.6385,-4.5288,-4.5288,-4.5288,-4.5403,-4.5851,-4.6003,-4.6118,-4.6615,-4.6997,-4.7455,-4.8334,-4.8449,-4.8258,-4.7903,-4.7406,-4.6729,-4.5545,-4.5288,-4.5288,-4.5288,-4.5288,-4.5288,-4.5288,-4.5288,-4.5288,-4.5288,-4.5288,-4.5288,-4.5288,-4.5288,-4.5288,-4.5288,-4.5288,-4.5288,-4.5288,-4.5347,-4.5367,-4.5408,-4.539,-4.5409,-4.54,-4.5429,-4.5448,-4.5485,-4.5541,-4.5568,-4.5594,-4.5594,-4.5594,-4.5594,-4.5594,-4.5594,-5.1404,-5.051,-5.001,-5.1125,-5.2164,-5.301,-5.3241,-5.3972,-5.478,-5.5434,-5.6417,-5.7432,-5.8154,-5.8877,-5.9571,-6.0248,-6.0556,-6.0648,-6.0533,-6.0302,-5.9879,-5.9185,-5.9453,-5.9797,-6.0026,-6.0255,-6.0422,-6.0422,-6.0422,-6.0422,-6.0422,-6.0422,-6.0422,-6.0422,-6.0422,-6.0422,-6.0422,-5.9529,-5.8994,-5.8765,-5.7275,-5.6473,-5.6243,-5.567,-5.5288,-5.4982,-5.3454,-5.2652,-5.2346,-5.0894,-5.0283,-5.0245,-4.9671,-4.9786,-5.0283,-5.0283,-4.9404,-4.8143,-4.7865,-4.6844,-4.5621,-4.5621,-4.5621,-4.5774,-4.6615,-4.6882,-4.6997,-4.7635,-4.7979,-4.8258,-4.864,-4.864,-4.8323,-4.7597,-4.7139,-4.6577,-4.5507,-4.5288,-4.5288,-4.5288,-4.5468,-4.5545,-4.5326,-4.5468,-4.5545,-4.5326,-4.5288,-4.5288,-4.5288,-4.5288,-4.5288,-4.5288,-4.5288,-4.5288,-4.5288,-4.5288,-4.5298,-4.5378,-4.5378,-4.536,-4.5361,-4.5381,-4.54,-4.5477,-4.5505,-4.5541,-4.5577,-4.5586,-4.5594,-4.5594,-4.5594,-4.5594,-4.949,-5.0048,-5.1058,-5.2702,-5.4357,-5.5818,-5.6637,-5.7511,-5.8165,-5.8165,-5.7914,-5.7813,-5.8235,-5.8681,-5.9127,-5.9465,-6.0195,-6.0673,-6.0623,-5.9805,-5.919,-5.9109,-5.8421,-5.8268,-5.9057,-5.9911,-6.0422,-6.0422,-6.0422,-6.0422,-6.0422,-6.0422,-6.0422,-6.0422,-6.0422,-6.0422,-6.0422,-5.9529,-5.8727,-5.7925,-5.7008,-5.6205,-5.5441,-5.5403,-5.4944,-5.4104,-5.3187,-5.2346,-5.1582,-5.0665,-5.0283,-5.0283,-5.0283,-5.0283,-5.0283,-5.0283,-4.9786,-4.8945,-4.8094,-4.7226,-4.6462,-4.6462,-4.6462,-4.6615,-4.7483,-4.775,-4.775,-4.7788,-4.8411,-4.8869,-4.8067,-4.9022,-4.9595,-4.715,-4.715,-4.7302,-4.566,-4.5288,-4.5288,-4.5288,-4.5927,-4.6233,-4.543,-4.5965,-4.6194,-4.543,-4.5288,-4.5288,-4.5288,-4.5288,-4.5288,-4.5288,-4.5288,-4.5288,-4.5288,-4.5288,-4.5288,-4.5288,-4.5288,-4.5288,-4.5288,-4.5378,-4.5408,-4.5408,-4.5467,-4.5485,-4.5485,-4.5568,-4.5594,-4.5594,-4.5594,-4.5594,-5.0827,-5.1722,-5.2895,-5.5164,-5.6137,-5.6791,-5.7665,-5.8088,-5.8127,-5.755,-5.7328,-5.7102,-5.6654,-5.7175,-5.792,-5.8577,-5.9385,-5.9888,-5.9816,-5.9984,-5.9485,-5.7736,-5.8219,-5.8383,-5.7504,-5.8727,-5.9797,-6.0384,-6.0422,-6.0422,-6.0422,-6.0422,-6.0422,-6.0422,-6.0422,-6.0102,-5.9529,-5.9262,-5.8421,-5.7008,-5.6205,-5.567,-5.5403,-5.5403,-5.525,-5.4906,-5.4027,-5.3187,-5.2346,-5.1505,-5.0818,-5.0245,-4.971,-4.9824,-5.0245,-4.971,-4.9671,-4.9786,-4.8945,-4.8105,-4.7368,-4.7368,-4.7368,-4.7521,-4.8411,-4.864,-4.8754,-4.9328,-4.9671,-4.9824,-4.9519,-4.948,-4.9137,-4.7723,-4.7139,-4.6653,-4.5545,-4.5288,-4.5288,-4.5288,-4.5965,-4.6233,-4.543,-4.5965,-4.6233,-4.543,-4.5288,-4.5288,-4.5288,-4.5288,-4.5288,-4.5288,-4.5288,-4.5288,-4.5288,-4.5288,-4.5288,-4.5288,-4.5288,-4.5288,-4.5288,-4.5298,-4.5367,-4.5408,-4.54,-4.5458,-4.5485,-4.5532,-4.5559,-4.5594,-4.5594,-4.5594,-5.2435,-5.3484,-5.4734,-5.7253,-5.7896,-5.8127,-5.8973,-5.8934,-5.8473,-5.7627,-5.6983,-5.6291,-5.5434,-5.5742,-5.628,-5.6857,-5.7627,-5.8335,-5.8892,-5.8858,-5.8489,-5.7698,-5.7965,-5.8039,0.0,-5.823,-5.9033,-5.9873,-6.0217,-6.0422,-6.0422,-6.0422,-6.0422,-6.0422,-6.0422,-6.0141,-5.9568,-5.9262,-5.8268,-5.6587,-5.5785,-5.5403,-5.5403,-5.5403,-5.5403,-5.5326,-5.4142,-5.3301,-5.269,-5.162,-5.0818,-5.0245,-4.971,-4.9824,-5.0245,-4.971,-4.9862,-5.0168,-4.9366,-4.8716,-4.8258,-4.8258,-4.8258,-4.8411,-4.9251,-4.9519,-4.9633,-5.0168,-5.0283,-5.0245,-4.9939,-4.971,-4.9251,-4.8094,-4.7608,-4.7188,-4.6385,-4.6194,-4.6194,-4.6194,-4.6844,-4.715,-4.6347,-4.6615,-4.6577,-4.5468,-4.5545,-4.5621,-4.5326,-4.5288,-4.5288,-4.5288,-4.5288,-4.5288,-4.5288,-4.5288,-4.5288,-4.5288,-4.5288,-4.5288,-4.5288,-4.5288,-4.5337,-4.5378,-4.538,-4.5429,-4.5457,-4.5532,-4.5559,-4.5594,-4.5594,-4.5594,-5.4208,-5.5296,-5.6557,-5.8957,-5.955,-5.9781,-6.055,-6.005,-5.9204,-5.8357,-5.6742,-5.528,0.0,0.0,-5.4395,-5.4472,-5.5241,-5.6374,-5.797,-5.6798,-5.6623,0.0,0.0,0.0,0.0,0.0,-5.8268,-5.9019,-5.9873,-6.0346,-6.0422,-6.0422,-6.0422,-6.0422,-6.0384,-6.0307,-6.0269,-5.9376,-5.8116,-5.6511,-5.5747,-5.5403,-5.5403,-5.5403,-5.5403,-5.525,-5.3569,-5.2805,-5.2614,-5.1009,-5.0359,-5.0283,-5.0283,-5.0283,-5.0283,-5.0283,-5.0283,-5.0168,-4.9366,-4.9148,-4.9148,-4.9148,-4.9148,-4.9301,-5.0015,-5.0283,-5.0283,-5.0245,-5.0283,-5.013,-4.9377,-4.971,-4.9901,-4.8246,-4.8487,-4.8869,-4.7979,-4.7788,-4.7788,-4.7788,-4.8411,-4.8716,-4.7941,-4.7712,-4.715,-4.5545,-4.5965,-4.6156,-4.5392,-4.5288,-4.5288,-4.5288,-4.5288,-4.5288,-4.5288,-4.5288,-4.5288,-4.5288,-4.5288,-4.5288,-4.5288,-4.5288,-4.5288,-4.5288,-4.539,-4.54,-4.541,-4.5541,-4.5594,-4.5594,-4.5594,-4.5594,-5.6058,-5.7573,-5.8999,-6.0245,-6.0542,-6.0415,-5.9946,-5.9204,-5.8165,-5.6665,-5.4511,-5.2808,0.0,0.0,0.0,-5.428,-5.6242,0.0,-5.8219,-5.8904,0.0,-5.8463,0.0,-5.845,-5.823,-5.8574,-5.888,-5.9057,-5.93,-5.972,-6.0384,-6.0422,-6.0422,-6.0422,-5.9759,-5.9147,-5.8536,-5.7084,-5.6129,-5.5708,-5.5517,-5.5403,-5.5403,-5.5403,-5.5059,-5.4409,-5.3951,-5.3072,-5.1888,-5.1429,-5.0894,-5.0283,-5.0283,-5.0283,-5.0283,-5.0283,-5.0283,-5.0168,-4.9366,-4.948,-4.9977,-4.9977,-4.9977,-4.9901,-4.9519,-4.9824,-5.0168,-4.9557,-4.9824,-5.0245,-5.0054,-5.0168,-5.0054,-4.9022,-4.8945,-4.8869,-4.7979,-4.7788,-4.7788,-4.7788,-4.7455,-4.7302,-4.7712,-4.6768,-4.5774,-4.5364,-4.5468,-4.5545,-4.5326,-4.5288,-4.5288,-4.5288,-4.5288,-4.5288,-4.5288,-4.5288,-4.5288,-4.5288,-4.5288,-4.5288,-4.5288,-4.5288,-4.5288,-4.5288,-4.535,-4.5409,-4.541,-4.5466,-4.5559,-4.5594,-4.5594,-4.5594,-5.7989,-5.9283,-6.0372,-6.085,-6.0614,-6.0091,-5.9172,-5.8033,-5.6665,-5.4972,-5.3164,0.0,-5.1433,-5.1654,-5.2231,0.0,0.0,0.0,-5.7627,-5.8466,-5.9072,0.0,-5.9205,0.0,-5.9049,-5.9084,-5.9262,-5.9644,-5.9682,-5.9873,-6.037,-6.0422,-6.0422,-6.0422,-5.9568,-5.8536,-5.7351,-5.6396,-5.5747,-5.5403,-5.5403,-5.5403,-5.5403,-5.5021,-5.4562,-5.4027,-5.2919,-5.2117,-5.1532,-5.0818,-5.0436,-5.0283,-5.0283,-5.0283,-5.0283,-5.0283,-5.0092,-4.971,-4.9263,-4.9137,-4.9213,-4.9213,-4.9213,-4.9137,-4.8678,-4.9098,-4.9671,-4.9224,-4.9671,-5.0283,-5.0283,-5.0283,-5.0206,-4.971,-4.9633,-4.948,-4.9022,-4.8907,-4.8793,-4.8449,-4.8258,-4.799,-4.733,-4.7073,-4.6587,-4.5479,-4.5583,-4.5698,-4.5364,-4.5288,-4.5288,-4.5288,-4.5288,-4.5288,-4.5288,-4.5288,-4.5288,-4.5288,-4.5288,-4.5288,-4.5288,-4.5288,-4.5298,-4.5357,-4.5388,-4.54,-4.5438,-4.5466,-4.5541,-4.5594,-4.5594,-4.5594,-5.9911,-6.0548,-6.1002,-6.0864,-6.0233,-5.9314,-5.807,-5.6641,-5.5021,-5.3241,0.0,-5.1241,-5.0789,-5.1164,-5.1692,-5.2,0.0,-5.5241,-5.6945,-5.7208,-5.8047,-6.0275,-5.9754,-5.9511,-6.025,-5.957,-5.9453,-6.0346,-6.0422,-6.0422,-6.0422,-6.0422,-6.0307,-6.0064,-5.9338,-5.8154,-5.6473,-5.6434,-5.6091,-5.5403,-5.5288,-5.525,-5.5212,-5.4333,-5.3874,-5.3645,-5.1429,-5.0856,-5.1314,-4.9862,-4.9671,-5.0283,-5.0283,-5.0245,-5.0168,-5.0245,-4.9786,-4.911,-4.911,-4.8602,-4.7979,-4.7979,-4.7903,-4.7788,-4.7788,-4.8411,-4.9071,-4.8945,-4.9595,-5.0283,-5.0283,-5.0283,-5.0283,-5.0283,-5.0283,-5.0283,-5.0283,-5.0283,-5.0054,-4.9263,-4.9557,-4.9251,-4.692,-4.7657,-4.7859,-4.5642,-4.5899,-4.609,-4.5413,-4.5326,-4.5288,-4.5288,-4.5288,-4.5288,-4.5288,-4.5288,-4.5288,-4.5288,-4.5288,-4.5288,-4.5288,-4.5288,-4.5347,-4.5398,-4.5408,-4.5419,-4.5475,-4.5485,-4.555,-4.5594,-4.5594,-4.5594,-6.1534,-6.1524,-6.0896,-6.0191,-5.9901,-5.8944,-5.5855,-5.4939,0.0,0.0,-4.9856,-4.9163,-5.0481,-5.024,-5.051,-5.2626,0.0,0.0,0.0,0.0,-5.9208,0.0,-5.9482,-5.9383,-5.9408,-5.9267,0.0,-6.0346,-6.0422,-6.0422,-6.0422,-6.0422,-5.9772,-5.8383,-5.8192,-5.7313,-5.5632,-5.5594,-5.5556,-5.5403,-5.4677,-5.4333,-5.4295,-5.3416,-5.2652,-5.2002,-5.1582,-5.1047,-5.0512,-5.0206,-5.0168,-5.0283,-5.0283,-4.9901,-4.9377,-5.0054,-4.9786,-4.911,-4.911,-4.8995,-4.8869,-4.8869,-4.8372,-4.7788,-4.7788,-4.8411,-4.8945,-4.822,-4.9137,-5.0283,-5.0283,-5.0283,-5.0283,-5.0283,-5.0283,-5.0283,-5.0283,-5.0283,-5.0054,-4.9263,-4.864,-4.7876,-4.6691,-4.6237,-4.5885,-4.5464,-4.5503,-4.5541,-4.5388,-4.5309,-4.5288,-4.5288,-4.5288,-4.5288,-4.5288,-4.5288,-4.5288,-4.5288,-4.5288,-4.5288,-4.5288,-4.5288,-4.5326,-4.5337,-4.539,-4.54,-4.5419,-4.5541,-4.5586,-4.5594,-4.5594,-4.5594,-6.2046,-6.1776,-6.0915,-6.0046,-5.9138,-5.7747,-5.519,0.0,0.0,0.0,-4.9682,-4.9163,-5.0481,-5.0366,0.0,0.0,0.0,0.0,0.0,0.0,0.0,0.0,0.0,-5.8741,0.0,-5.8987,-5.9343,-5.9737,-6.0168,-6.0422,-6.0422,-6.0422,-5.9797,-5.8574,-5.8116,-5.7313,-5.6052,-5.5594,-5.5403,-5.5403,-5.4982,-5.4791,-5.4715,-5.3416,-5.2575,-5.2155,-5.0856,-5.0283,-5.0283,-4.9862,-4.9901,-5.0283,-5.0283,-4.9824,-4.9148,-4.9519,-4.9137,-4.8411,-4.8411,-4.8411,-4.8487,-4.8945,-4.8181,-4.7226,-4.7674,-4.8105,-4.8449,-4.8487,-4.9366,-5.0283,-5.0283,-5.0283,-5.0283,-5.0283,-5.0283,-5.0283,-5.0283,-5.0283,-4.9939,-4.8678,-4.8449,-4.7914,-4.6194,-4.591,-4.5827,-4.5475,-4.5408,-4.5408,-4.5408,-4.5378,-4.5357,-4.5288,-4.5288,-4.5288,-4.5288,-4.5288,-4.5288,-4.5288,-4.5288,-4.5288,-4.5288,-4.5288,-4.5337,-4.5367,-4.535,-4.5361,-4.5448,-4.5466,-4.5541,-4.5594,-4.5594,-4.5594,-6.2162,-6.1776,-6.0847,-5.988,-5.8422,-5.6693,-5.4636,-5.3029,0.0,0.0,-4.9633,-4.9413,-5.025,0.0,-5.051,0.0,-5.3049,0.0,0.0,0.0,0.0,0.0,0.0,0.0,-5.792,-5.8591,0.0,-5.9191,-5.998,-6.0436,-6.0422,-6.0422,-5.9988,-5.9147,-5.8307,-5.7466,-5.66,-5.5785,-5.5403,-5.5403,-5.5021,-5.483,-5.4791,-5.3034,-5.227,-5.2155,-5.0206,-4.971,-5.0245,-4.9633,-4.971,-5.0283,-5.0283,-4.9824,-4.911,-4.9289,-4.8793,-4.8105,-4.8285,-4.8323,-4.8449,-4.9137,-4.8181,-4.6959,-4.7788,-4.8067,-4.822,-4.8907,-4.9671,-5.0283,-5.0283,-5.0283,-5.0283,-5.0283,-5.0283,-5.0283,-5.0283,-5.0283,-4.9862,-4.8372,-4.8487,-4.8192,-4.6216,-4.6226,-4.64,-4.6031,-4.5954,-4.5878,-4.5676,-4.5617,-4.5559,-4.5326,-4.5288,-4.5288,-4.5288,-4.5288,-4.5288,-4.5288,-4.5288,-4.5288,-4.5288,-4.5288,-4.5309,-4.5388,-4.5329,-4.538,-4.5466,-4.5448,-4.5514,-4.5594,-4.5594,-4.5594,-6.2162,-6.1776,-6.0731,-5.9106,-5.7985,-5.6459,-5.3185,0.0,0.0,-4.8955,-4.836,-4.8573,-4.9365,-4.8856,-4.9125,-5.15,0.0,-5.2972,0.0,0.0,0.0,0.0,0.0,0.0,-5.7036,-5.7793,-5.8563,-5.923,-6.0047,-6.0439,-6.0384,-6.0422,-5.9988,-5.9147,-5.8307,-5.7466,-5.66,-5.5785,-5.5403,-5.5403,-5.3798,-5.3034,-5.2957,-5.1314,-5.055,-5.0512,-5.0283,-5.0245,-5.0283,-5.0206,-5.0245,-5.0283,-5.0283,-4.9824,-4.9186,-4.9901,-4.9671,-4.906,-4.9824,-5.0054,-5.0092,-5.0168,-4.906,-4.7826,-4.8716,-4.8995,-4.8995,-4.9071,-4.9671,-5.0283,-5.0283,-5.0283,-5.0283,-5.0283,-5.0283,-5.0283,-5.0283,-5.0283,-5.0054,-4.9137,-4.8411,-4.7848,-4.7684,-4.7113,-4.6924,-4.7662,-4.7778,-4.7451,-4.6585,-4.6428,-4.6129,-4.5403,-4.5288,-4.5288,-4.5288,-4.5288,-4.5288,-4.5288,-4.5288,-4.5288,-4.5288,-4.5288,-4.5288,-4.5288,-4.5341,-4.54,-4.541,-4.5541,-4.5586,-4.5594,-4.5594,-4.5594,-6.2162,-6.2162,-6.135,-5.9145,-5.7559,-5.5887,-5.352,0.0,-5.1057,-4.9993,-4.9341,-4.9228,-5.0019,-4.9471,-4.9394,-5.0933,0.0,0.0,0.0,0.0,0.0,0.0,0.0,0.0,0.0,0.0,-5.924,-6.0009,-6.0367,-6.029,-5.9726,-6.013,-5.9988,-5.9147,-5.8307,-5.7466,-5.66,-5.5785,-5.5403,-5.5403,-5.4715,-5.4371,-5.4295,-5.2575,-5.1811,-5.1735,-5.0741,-5.0283,-5.0283,-5.0283,-5.0283,-5.0283,-5.0283,-4.9824,-4.9148,-4.9442,-4.9366,-4.9148,-4.948,-4.9901,-5.0206,-4.9748,-4.9442,-4.9366,-4.971,-4.948,-4.9213,-4.9671,-5.0054,-5.0283,-5.0283,-5.0283,-5.0283,-5.0283,-5.0283,-5.0283,-5.0283,-5.0283,-5.0054,-4.9263,-4.8826,-4.8428,-4.7963,-4.767,-4.7596,-4.8019,-4.8058,-4.7731,-4.6789,-4.6654,-4.6268,-4.5403,-4.5288,-4.5288,-4.5288,-4.5288,-4.5288,-4.5288,-4.5288,-4.5288,-4.5288,-4.5357,-4.5367,-4.5367,-4.5409,-4.5419,-4.5448,-4.5494,-4.5568,-4.5594,-4.5594,-4.5594,-6.1195,-6.166,-6.1466,-5.9184,-5.7288,-5.5548,0.0,0.0,-5.0811,-5.0499,-4.9946,-4.9593,-4.9894,-4.9644,-4.9586,-5.0212,0.0,-5.0971,-5.1769,0.0,0.0,0.0,0.0,-5.5626,-5.7357,-5.8658,-5.9648,-6.0201,-6.0495,-6.0201,-5.9294,-5.9764,-5.9633,-5.8765,-5.7963,-5.7199,-5.66,-5.5785,-5.5403,-5.5403,-5.5135,-5.5021,-5.4982,-5.3225,-5.2461,-5.2346,-5.0932,-5.0283,-5.0283,-5.0283,-5.0283,-5.0283,-5.0283,-4.9939,-4.9442,-4.9442,-4.9442,-4.9442,-4.9442,-4.9671,-4.9901,-4.9557,-4.9671,-4.9977,-5.0245,-4.9901,-4.9557,-5.013,-5.0283,-5.0283,-5.0283,-5.0283,-5.0283,-5.0283,-5.0283,-5.0283,-5.0283,-5.0283,-5.013,-4.9557,-4.9258,-4.9007,-4.8722,-4.8496,-4.847,-4.8779,-4.8855,-4.8413,-4.7221,-4.7249,-4.695,-4.5785,-4.5889,-4.5851,-4.5326,-4.5288,-4.5288,-4.5288,-4.5288,-4.5288,-4.5288,-4.5378,-4.5408,-4.5408,-4.5429,-4.5448,-4.5485,-4.5532,-4.5559,-4.5594,-4.5594,-4.5594,-5.8874,-5.9841,-6.0692,-5.9029,-5.7288,-5.5548,0.0,0.0,-5.0658,-4.9806,-4.9534,-4.9221,-4.8369,-4.8854,-4.9394,-4.9394,-5.0125,0.0,-5.1769,0.0,0.0,0.0,0.0,-5.3895,-5.5549,-5.8011,-5.9488,-5.9418,-6.0186,-6.0277,-5.9345,-5.9256,-5.8807,-5.7925,-5.7084,-5.66,-5.6587,-5.5785,-5.5403,-5.5403,-5.4524,-5.4104,-5.4065,-5.2384,-5.1608,-5.157,-5.0665,-5.0283,-5.0283,-5.0283,-5.0283,-5.0283,-5.0283,-5.0283,-5.0283,-5.0283,-5.0283,-5.0283,-5.0283,-4.9786,-4.9251,-5.0015,-4.9748,-4.9263,-5.0054,-5.0283,-5.0283,-5.0283,-5.0283,-5.0283,-5.0283,-5.0283,-5.0283,-5.0283,-5.0283,-5.0283,-5.0283,-5.0283,-5.0283,-5.0283,-4.9641,-4.9401,-5.0298,-4.9823,-4.9585,-5.043,-5.0584,-4.9928,-4.8099,-4.8575,-4.84,-4.6653,-4.7264,-4.7111,-4.543,-4.5288,-4.5288,-4.5288,-4.5288,-4.5288,-4.5288,-4.5378,-4.5408,-4.5408,-4.5467,-4.5485,-4.5485,-4.5568,-4.5594,-4.5594,-4.5594,-4.5594,-5.7946,-5.8526,-5.8836,-5.6553,-5.5122,-5.4,-5.2879,0.0,-5.0813,-5.0541,-5.0422,-5.0302,-4.9978,-5.0125,-5.0289,-5.0289,-5.0519,0.0,0.0,0.0,0.0,-5.4664,-5.6434,-5.7703,0.0,-5.9011,-5.9731,-6.0296,-6.0604,-6.0337,-5.9432,-5.8795,-5.8042,-5.7124,-5.6766,-5.632,-5.5785,-5.5517,-5.5403,-5.5403,-5.4524,-5.4104,-5.4027,-5.2346,-5.1608,-5.1532,-5.0665,-5.0283,-5.0245,-4.971,-4.9786,-5.0245,-4.9671,-4.9824,-5.0283,-5.0283,-5.0283,-5.0283,-5.0283,-5.013,-4.9862,-4.9595,-4.9671,-4.9862,-4.9557,-4.9862,-5.0283,-5.0283,-5.0283,-5.0283,-5.0283,-5.0283,-5.0283,-5.0283,-5.0283,-5.0283,-5.0283,-5.0283,-5.0294,-5.0367,-5.0205,-5.0183,-5.0504,-5.0412,-5.0336,-5.0644,-5.0682,-5.022,-4.8966,-4.9022,-4.8711,-4.7543,-4.7679,-4.7614,-4.7073,-4.6997,-4.6997,-4.6997,-4.6462,-4.6139,-4.6171,-4.6271,-4.6042,-4.5477,-4.6108,-4.6145,-4.5568,-4.5586,-4.5594,-4.5594,-4.5594,-4.5594,0.0,-5.7211,-5.7598,-5.5354,-5.4155,0.0,0.0,0.0,-5.089,-5.0905,-5.0872,-5.0636,-4.9928,-5.0037,-5.0115,-4.9788,-4.9971,0.0,0.0,0.0,0.0,-5.4972,0.0,0.0,-5.855,-5.9435,-6.0089,-6.0281,-6.0589,-6.0385,-5.9492,-5.8599,-5.7721,-5.6778,-5.6333,-5.5899,-5.5403,-5.5403,-5.5403,-5.5403,-5.4524,-5.4104,-5.4065,-5.269,-5.1888,-5.1582,-5.1047,-5.0588,0.0,-4.9748,-4.9862,-5.0245,-4.9748,-4.9862,-5.0283,-5.0283,-5.0283,-5.0245,-4.9939,-4.9862,-4.9748,-4.9263,-4.9633,-5.0206,-4.971,-4.9901,-5.0283,-5.0283,-5.0283,-5.0283,-5.0283,-5.0283,-5.0283,-5.0283,-5.0283,-5.0283,-5.0283,-5.0333,-5.0367,-5.0401,-5.0478,-5.0542,-5.0573,-5.0673,-5.0712,-5.0712,-5.0712,-5.0336,-4.9363,-4.9486,-4.9329,-4.8449,-4.8641,-4.8843,-4.8821,-4.8226,-4.7832,-4.7832,-4.7313,-4.7019,-4.7082,-4.7134,-4.6964,-4.6474,-4.6751,-4.6624,-4.6086,-4.6086,-4.624,-4.6547,-4.6547,-4.6547,0.0,-5.5935,-5.6699,-5.5045,-5.4,-5.3188,-5.2306,0.0,0.0,0.0,-5.0827,-5.0331,-4.8784,-4.9003,-4.9142,-4.8403,0.0,0.0,0.0,-5.1548,0.0,0.0,-5.6088,-5.7137,-5.7022,-5.9204,-6.0319,-5.9627,-6.0281,-6.0396,-5.9627,-5.8723,-5.7819,-5.6916,-5.5938,-5.5403,-5.5403,-5.5403,-5.5403,-5.5403,-5.4524,-5.4065,-5.3989,-5.311,-5.227,-5.1493,-5.1493,-5.1047,-5.0283,-5.0245,-5.0245,-5.0283,-5.0245,-5.0256,-5.0294,-5.0294,-5.0294,-5.0218,-4.9454,-4.9186,-4.9186,-4.9186,-4.9633,-5.0245,-5.0283,-5.0283,-5.0283,-5.0283,-5.0283,-5.0283,-5.0283,-5.0283,-5.0283,-5.0283,-5.0283,-5.0321,-5.0321,-5.0405,-5.0489,-5.0489,-5.0664,-5.0776,-5.0776,-5.0788,-5.0789,-5.0789,-5.075,-5.0385,-4.9518,-5.0043,-5.0204,-4.936,-4.9959,-5.0446,-5.05,-4.9001,-4.8088,-4.8088,-4.7958,-4.7909,-4.8022,-4.8074,-4.8086,-4.8097,-4.7366,-4.7,-4.7,-4.7,-4.7355,-4.8086,-4.8086,-4.8086,-5.5006,0.0,-5.4967,-5.3227,-5.2655,-5.226,0.0,0.0,0.0,0.0,0.0,0.0,0.0,0.0,0.0,0.0,0.0,0.0,-5.0596,0.0,0.0,-5.4511,-5.7126,-5.8396,-5.7137,-5.8127,-5.9319,-6.0396,-6.0089,-6.0012,-6.0473,-5.9031,-5.8088,-5.7798,-5.6256,-5.5415,-5.5403,-5.5403,-5.5403,-5.5403,-5.4524,-5.376,-5.3072,-5.227,-5.1429,-5.0627,-5.0627,-5.0474,-5.0245,-4.9633,-4.9771,-5.0302,-4.9625,-4.9811,-5.0457,-5.0457,-5.0457,-5.0418,-5.0172,-5.0084,-5.0073,-5.0027,-4.971,-4.948,-5.0092,-5.0283,-5.0283,-5.0283,-5.0283,-5.0283,-5.0283,-5.0283,-5.0283,-5.0283,-5.0356,-5.039,-5.039,-5.0944,-5.1459,-5.1453,-5.2022,-5.2525,-5.2595,-5.2038,-5.1625,-5.1625,-5.1087,-5.0615,-5.0325,-5.0458,-5.0476,-5.0204,-5.0406,-5.0542,-5.0563,-5.0127,-4.9876,-4.9876,-4.9252,-4.8917,-4.8959,-4.8989,-4.8712,-4.8106,-4.7923,-4.7817,-4.7817,-4.7817,-4.7932,-4.8086,-4.8086,-4.8086,-5.5496,-5.4774,-5.3884,-5.2539,-5.1912,-5.1486,-5.1014,0.0,0.0,0.0,0.0,0.0,0.0,0.0,0.0,0.0,-4.9721,0.0,0.0,0.0,-5.4395,-5.5511,-5.7242,-5.8473,-5.8715,-5.9165,-5.9819,-6.0742,-6.0358,-6.0127,-6.0204,-5.8939,-5.8008,-5.7577,-5.6201,-5.5415,-5.5403,-5.5403,-5.5403,-5.5403,-5.4524,-5.3836,-5.3378,-5.2957,-5.2079,-5.0932,-5.1276,-5.1009,-5.0283,-4.9859,-4.9958,-5.0374,-4.9909,-5.0057,-5.05,-5.05,-5.05,-5.0423,-5.0008,-4.9614,-4.9401,-5.0111,-4.9794,-4.9247,-5.0065,-5.0283,-5.0283,-5.0283,-5.0283,-5.0283,-5.0283,-5.0283,-5.0283,-5.0283,-5.0673,-5.0987,-5.0987,-5.1716,-5.2395,-5.2389,-5.2794,-5.3172,-5.3192,-5.2818,-5.25,-5.25,-5.1779,-5.1231,-5.1201,-5.0863,-5.0622,-5.0584,-5.0584,-5.0594,-5.0663,-5.0594,-5.0573,-5.0542,-5.0061,-4.9841,-4.9882,-4.9892,-4.9538,-4.8702,-4.8702,-4.8702,-4.8702,-4.8702,-4.8894,-4.9279,-4.9279,-4.9279,-5.5862,-5.4583,-5.3182,-5.2732,-5.1834,-5.1091,-5.1091,0.0,0.0,0.0,0.0,0.0,0.0,-4.904,0.0,0.0,0.0,0.0,-5.2231,-5.2577,-5.3741,-5.6676,-5.733,-5.8292,-6.005,-6.0319,-6.0473,-6.0589,-6.0358,-6.0012,-5.9511,-5.8627,-5.772,-5.6933,-5.598,-5.5463,-5.5416,-5.5403,-5.5403,-5.5403,-5.4639,-5.4142,-5.3913,-5.4027,-5.311,-5.1467,-5.2282,-5.1747,-5.0333,-5.039,-5.0424,-5.0435,-5.0489,-5.0521,-5.0532,-5.0532,-5.0532,-5.0417,-4.9677,-4.8862,-4.8429,-4.9937,-4.98,-4.9253,-5.0077,-5.0321,-5.0283,-5.0294,-5.0321,-5.0321,-5.0474,-5.0512,-5.0512,-5.0524,-5.1105,-5.1698,-5.171,-5.245,-5.314,-5.3294,-5.3441,-5.3587,-5.3587,-5.3472,-5.3395,-5.3395,-5.2654,-5.2038,-5.1923,-5.1267,-5.0768,-5.0702,-5.0663,-5.0653,-5.0702,-5.0712,-5.0692,-5.0632,-5.0553,-5.0553,-5.0594,-5.0632,-5.0307,-4.9625,-4.9586,-4.9586,-4.9586,-4.9586,-4.9971,-5.0712,-5.0712,-5.0712,-5.5093,-5.3812,-5.2777,-5.4072,-5.3188,-5.1989,-5.1989,0.0,0.0,0.0,0.0,0.0,0.0,-4.9412,-4.8916,0.0,0.0,-5.2356,0.0,0.0,-5.6406,-5.6945,-5.8907,-5.9523,-5.7753,-5.8242,-5.8973,-5.9665,-5.8396,-5.8127,-5.9435,-5.805,-5.7104,-5.6894,-5.598,-5.5488,-5.5402,-5.539,-5.5403,-5.5403,-5.525,-5.4448,-5.3034,-5.376,-5.2766,-5.055,-5.1488,-5.132,-5.039,-5.0457,-5.0511,-5.0553,-5.0563,-5.0642,-5.0682,-5.0682,-5.0682,-5.0634,-5.043,-4.9775,-4.9168,-5.0144,-4.9844,-4.9264,-5.0122,-5.0356,-5.0294,-5.0379,-5.0356,-5.0474,-5.12,-5.1391,-5.1403,-5.1461,-5.1595,-5.1727,-5.1781,-5.2525,-5.3385,-5.4154,-5.4857,-5.5318,-5.5318,-5.4741,-5.428,-5.428,-5.3549,-5.2731,-5.2,-5.1759,-5.1462,-5.0779,-5.0702,-5.0702,-5.0712,-5.0712,-5.0702,-5.0692,-5.0692,-5.0692,-5.0692,-5.0692,-5.0625,-5.0519,-5.0519,-5.0519,-5.0519,-5.0519,-5.0558,-5.0712,-5.0712,-5.0712,-5.4276,-5.3006,-5.2002,-5.3151,-5.2128,-5.0867,-5.0867,-5.0248,0.0,0.0,0.0,0.0,0.0,0.0,-5.0731,-5.1914,0.0,-5.3703,-5.4895,-5.578,-5.6626,-5.7588,-5.8319,-5.883,-5.9023,-5.8588,-5.8627,-5.9435,-5.8396,-5.7819,-5.8127,-5.7407,-5.678,-5.6286,-5.5762,-5.5511,-5.5437,-5.5415,-5.5403,-5.5403,-5.5403,-5.4715,-5.3531,-5.3913,-5.2982,-5.1067,-5.1511,-5.1239,-5.0457,-5.0521,-5.0563,-5.0584,-5.0653,-5.0682,-5.0712,-5.0712,-5.0712,-5.0702,-5.0673,-5.0076,-4.9441,-5.0284,-4.9946,-4.9339,-5.0199,-5.0435,-5.0424,-5.0457,-5.0412,-5.0558,-5.1438,-5.1629,-5.1756,-5.225,-5.2728,-5.313,-5.3185,-5.3902,-5.4664,-5.5049,-5.5434,-5.5703,-5.5703,-5.5395,-5.5164,-5.5164,-5.4434,-5.378,-5.3356,-5.2895,-5.2279,-5.1433,-5.1356,-5.1164,-5.075,-5.0712,-5.0712,-5.0712,-5.0712,-5.0712,-5.0712,-5.0712,-5.0712,-5.0712,-5.0712,-5.0712,-5.0712,-5.0712,-5.0712,-5.0712,-5.0712,-5.0712,-5.3465,-5.2189,-5.0984,-5.1336,-5.0544,-4.9861,-5.0442,-5.0132,0.0,0.0,0.0,0.0,0.0,-5.1283,0.0,-5.3157,-5.4128,-5.4934,-5.5318,-5.6088,-5.7088,-5.8434,-5.7973,-5.8204,-5.9742,-5.8742,-5.8242,-5.8858,-5.8165,-5.7473,-5.7022,-5.683,-5.6406,-5.5703,-5.5604,-5.5535,-5.5485,-5.544,-5.5416,-5.5403,-5.5403,-5.483,-5.3798,-5.4218,-5.33,-5.1408,-5.1852,-5.1426,-5.0521,-5.0622,-5.0604,-5.0642,-5.0692,-5.0712,-5.0712,-5.0712,-5.0712,-5.0712,-5.0712,-5.025,-4.9817,-5.0422,-5.0171,-4.9719,-5.034,-5.05,-5.0478,-5.05,-5.061,-5.091,-5.1752,-5.2146,-5.2464,-5.3077,-5.3786,-5.4342,-5.4408,-5.4951,-5.5472,-5.5665,-5.5703,-5.5703,-5.5703,-5.5703,-5.5703,-5.5703,-5.5164,-5.4703,-5.4511,-5.3933,-5.3087,-5.2,-5.1885,-5.1587,-5.0789,-5.0712,-5.0712,-5.0712,-5.0712,-5.0712,-5.0712,-5.0712,-5.0712,-5.0712,-5.0712,-5.0712,-5.0712,-5.0712,-5.0712,-5.0712,-5.0712,-5.0712,-5.271,-5.1372,-4.9811,-4.8966,-4.9233,-5.0326,-5.2685,-5.1409,0.0,-5.2724,0.0,0.0,0.0,-5.2069,-5.2355,-5.3156,-5.4611,-5.6165,-5.7819,-5.8704,-5.9281,-5.9396,-5.9358,-5.8781,-5.7407,-5.7176,-5.7137,-5.7176,-5.6357,-5.6203,-5.6945,-5.6252,-5.5742,-5.5703,-5.5649,-5.5543,-5.5485,-5.5413,-5.539,-5.5403,-5.5403,-5.4524,-5.2957,-5.4562,-5.3555,-5.0566,-5.2192,-5.2017,-5.0622,-5.0682,-5.0702,-5.0702,-5.0712,-5.0712,-5.0712,-5.0712,-5.0712,-5.0712,-5.0712,-5.0673,-5.0635,-5.0664,-5.0624,-5.0507,-5.0573,-5.05,-5.0424,-5.0489,-5.1031,-5.179,-5.2594,-5.3445,-5.4143,-5.4208,-5.4292,-5.4397,-5.4489,-5.4549,-5.4818,-5.5549,-5.5703,-5.5703,-5.5703,-5.5703,-5.5703,-5.5703,-5.5665,-5.5318,-5.4587,-5.4434,-5.378,-5.2077,-5.1885,-5.1587,-5.0789,-5.0712,-5.0712,-5.0712,-5.0712,-5.0712,-5.0712,-5.0712,-5.0712,-5.0712,-5.0712,-5.0712,-5.0712,-5.0712,-5.0712,-5.0712,-5.0712,-5.0712,-5.1403,-5.0131,-4.8947,-4.7972,-4.795,0.0,0.0,-5.0403,-5.0132,-5.1563,-5.2492,0.0,0.0,0.0,-5.3154,-5.3975,-5.5489,-5.6785,-5.7407,-5.8204,-5.8742,-5.8742,-5.828,-5.7896,-5.7819,-5.6819,-5.6406,-5.6945,-5.6214,-5.5818,-5.6165,-5.5857,-5.5703,-5.5703,-5.5649,-5.5604,-5.5543,-5.5437,-5.5415,-5.539,-5.5416,-5.4753,-5.3607,-5.4345,-5.3398,-5.1272,-5.1941,-5.1659,-5.0673,-5.0702,-5.0712,-5.0712,-5.0712,-5.0712,-5.0712,-5.0712,-5.0712,-5.0712,-5.0712,-5.0712,-5.0712,-5.0712,-5.0692,-5.0673,-5.0673,-5.0642,-5.0584,-5.0604,-5.1593,-5.2664,-5.2904,-5.3621,-5.4461,-5.4994,-5.5132,-5.5012,-5.4577,-5.4895,-5.5203,-5.4972,-5.5357,-5.5703,-5.5703,-5.5703,-5.5703,-5.5703,-5.5703,-5.5588,-5.528,-5.5241,-5.478,-5.3626,-5.3049,-5.2587,-5.2279,-5.2241,-5.2241,-5.2241,-5.1279,-5.0712,-5.0712,-5.0712,-5.0712,-5.0712,-5.0712,-5.0712,-5.0712,-5.0712,-5.0712,-5.0712,-5.0712,-5.0712,-5.0195,-4.925,-4.8472,-4.7515,0.0,0.0,-4.9775,-5.0094,-5.048,-5.1865,-5.2879,-5.3575,-5.3846,0.0,0.0,-5.4496,-5.602,-5.7076,-5.7044,-5.7753,-5.8204,-5.7934,-5.7368,-5.7137,-5.7434,-5.6395,-5.5934,-5.656,-5.6049,-5.5703,-5.5703,-5.5703,-5.5703,-5.5703,-5.5671,-5.5638,-5.5615,-5.5523,-5.5437,-5.5413,-5.5173,-5.4727,-5.4141,-5.447,-5.3572,-5.1749,-5.206,-5.1652,-5.0712,-5.0712,-5.0712,-5.0712,-5.0712,-5.0712,-5.0712,-5.0712,-5.0712,-5.0712,-5.0712,-5.0712,-5.0712,-5.0712,-5.0712,-5.0712,-5.0712,-5.0692,-5.0682,-5.0682,-5.1854,-5.314,-5.3037,-5.3881,-5.489,-5.5462,-5.5626,-5.5506,-5.5,-5.5318,-5.5549,-5.4972,-5.5318,-5.5703,-5.5703,-5.5703,-5.5703,-5.5703,-5.5703,-5.5703,-5.5703,-5.5703,-5.5395,-5.4587,-5.3703,-5.3203,-5.3203,-5.3203,-5.3203,-5.3203,-5.2125,-5.1471,-5.1471,-5.1241,-5.1087,-5.1087,-5.0827,-5.0712,-5.0712,-5.0712,-5.0712,-5.0712,-5.0712,-5.0712,-4.9141,-4.8781,-4.8472,0.0,0.0,0.0,-5.0743,-5.0898,-5.1633,-5.4271,-5.4116,-5.3768,-5.4658,-5.4044,-5.37,-5.455,-5.6039,-5.7086,-5.7086,-5.7775,-5.7934,-5.7099,-5.6983,-5.6637,-5.578,-5.5703,-5.5703,-5.5703,-5.5703,-5.5703,-5.5703,-5.5703,-5.5703,-5.5703,-5.5703,-5.5682,-5.5615,-5.5577,-5.5543,-5.5485,-5.4668,-5.4261,-5.4252,-5.5116,-5.4139,-5.1851,-5.2724,-5.219,-5.0712,-5.0712,-5.0712,-5.0712,-5.0712,-5.0712,-5.0712,-5.0712,-5.0712,-5.0712,-5.0712,-5.0712,-5.0712,-5.0712,-5.0712,-5.0712,-5.0712,-5.0663,-5.0584,-5.0584,-5.177,-5.3015,-5.307,-5.4402,-5.5654,-5.5588,-5.566,-5.5703,-5.5703,-5.5703,-5.5703,-5.5703,-5.5703,-5.5703,-5.5703,-5.5703,-5.5703,-5.5703,-5.5703,-5.5703,-5.5703,-5.5703,-5.5395,-5.4587,-5.3741,-5.3241,-5.3241,-5.3241,-5.3241,-5.3241,-5.3241,-5.3241,-5.3203,-5.2385,-5.1923,-5.1923,-5.1125,-5.0712,-5.0712,-5.0712,-5.0712,-5.0712,-5.0712,-5.0712,-4.9453,-4.8781,0.0,-4.7515,0.0,0.0,0.0,-5.0898,0.0,0.0,-5.5006,-5.4658,-5.5509,-5.4959,-5.4431,-5.4666,-5.5567,-5.6251,-5.6182,-5.6361,-5.6395,-5.6126,-5.6088,-5.5972,-5.5742,-5.5703,-5.5703,-5.5703,-5.5703,-5.5703,-5.5703,-5.5703,-5.5703,-5.5703,-5.5703,-5.5703,-5.5682,-5.5061,-5.5028,-5.5554,-5.4123,-5.405,-5.5116,-5.4829,-5.4326,-5.3618,-5.3315,-5.2567,-5.151,-5.0933,-5.0712,-5.0712,-5.0712,-5.0712,-5.0712,-5.0712,-5.0712,-5.0712,-5.0712,-5.0712,-5.0712,-5.0712,-5.0712,-5.0712,-5.0712,-5.0692,-5.0682,-5.0682,-5.1864,-5.3151,-5.3172,-5.4,-5.5011,-5.5528,-5.5692,-5.5549,-5.4972,-5.528,-5.5511,-5.4972,-5.5318,-5.5703,-5.5703,-5.5703,-5.5703,-5.5703,-5.5703,-5.5703,-5.5703,-5.5703,-5.5588,-5.5357,-5.5126,-5.4972,-5.4972,-5.4972,-5.4972,-5.4972,-5.4972,-5.4434,-5.3241,-5.2972,-5.2818,-5.2818,-5.2587,-5.2164,-5.1548,-5.1548,-5.1241,-5.0712,-5.0712,-5.0712,-5.0,-4.9563,0.0,-4.8139,-4.9333,-5.1004,-5.1749,0.0,0.0,0.0,-5.5354,-5.5045,-5.5857,-5.5354,-5.4998,-5.562,-5.6116,-5.6387,-5.6358,-5.6298,-5.613,-5.5784,-5.5724,-5.5703,-5.5703,-5.5703,-5.5549,-5.5241,-5.5203,-5.5049,-5.4741,-5.4703,-5.4857,-5.5203,-5.4895,-5.4857,-5.5203,-5.4363,-5.4188,-5.4611,-5.3255,-5.3321,-5.4556,-5.4128,-5.3727,-5.3381,-5.2567,-5.1895,-5.1395,-5.0894,-5.0712,-5.0712,-5.0712,-5.0712,-5.0712,-5.0712,-5.0712,-5.0712,-5.0712,-5.0712,-5.0712,-5.0712,-5.0712,-5.0712,-5.0712,-5.0712,-5.0712,-5.0712,-5.1895,-5.3126,-5.2779,-5.3587,-5.4703,-5.5511,-5.5203,-5.4741,-5.4934,-5.5126,-5.5164,-5.5011,-5.5357,-5.5703,-5.5703,-5.5703,-5.5703,-5.5703,-5.5703,-5.5703,-5.5703,-5.5703,-5.5703,-5.5703,-5.5703,-5.5703,-5.5703,-5.5703,-5.5857,-5.6214,-5.5895,-5.5437,-5.4824,-5.409,-5.3703,-5.3703,-5.3395,-5.2933,-5.2423,-5.2423,-5.201,-5.1164,-5.1164,-5.1164,-5.0781,0.0,0.0,-4.9351,-5.0773,0.0,-5.3538,-5.4349,-5.5122,-5.5857,0.0,-5.5238,-5.5973,-5.547,-5.5393,-5.6932,-5.7137,-5.7109,-5.7109,-5.7023,-5.6683,-5.5912,-5.5745,-5.5703,-5.5703,-5.5626,-5.528,-5.4549,-5.4434,-5.4049,-5.3241,-5.3203,-5.3549,-5.4357,-5.3626,-5.3587,-5.4357,-5.351,-5.3126,-5.3203,-5.2231,-5.2231,-5.3087,-5.3087,-5.2654,-5.1846,-5.1125,-5.0789,-5.0712,-5.0712,-5.0712,-5.0712,-5.0712,-5.0712,-5.0712,-5.0712,-5.0712,-5.0712,-5.0712,-5.0712,-5.0712,-5.0712,-5.0712,-5.0712,-5.0712,-5.0712,-5.0712,-5.0712,-5.1856,-5.2895,-5.2115,-5.3126,-5.4587,-5.5395,-5.4434,-5.378,-5.5357,-5.5126,-5.4818,-5.5549,-5.5703,-5.5703,-5.5703,-5.5703,-5.5703,-5.5703,-5.5703,-5.5703,-5.5703,-5.5703,-5.5703,-5.5703,-5.5703,-5.5742,-5.5818,-5.5818,-5.6203,-5.706,-5.6379,-5.6367,-5.728,-5.5567,-5.4629,-5.4649,-5.3879,-5.3417,-5.334,-5.3358,-5.2887,-5.203,-5.201,-5.2,-5.1601,-5.1711,0.0,0.0,-5.2956,-5.4467,-5.5285,-5.5625,-5.578,-5.5973,-5.639,-5.6815,-5.697,-5.6313,-5.5857,-5.6197,-5.6277,-5.625,-5.625,-5.6165,-5.6028,-5.5835,-5.5745,-5.5703,-5.5703,-5.5126,-5.4703,-5.4511,-5.3857,-5.3395,-5.3203,-5.3203,-5.328,-5.3472,-5.3318,-5.328,-5.3472,-5.2615,-5.25,-5.3164,-5.1664,-5.1395,-5.2192,-5.2192,-5.2077,-5.1885,-5.1731,-5.1279,-5.0712,-5.0712,-5.0712,-5.0712,-5.0712,-5.0712,-5.0712,-5.0712,-5.0712,-5.0712,-5.0712,-5.0712,-5.0712,-5.0712,-5.0712,-5.0712,-5.0712,-5.0712,-5.0712,-5.0712,-5.1395,-5.2154,-5.1962,-5.2692,-5.3703,-5.4549,-5.4472,-5.4472,-5.5472,-5.5549,-5.5472,-5.5665,-5.5703,-5.5703,-5.5703,-5.5703,-5.5703,-5.5703,-5.5703,-5.5703,-5.5703,-5.5703,-5.5703,-5.5703,-5.5703,-5.5972,-5.6676,-5.6714,-5.7088,-5.7973,-5.7959,-5.7996,-5.8226,-5.6518,-5.5634,-5.5768,-5.5581,-5.5155,-5.4534,-5.4442,-5.3911,-5.3061,-5.2974,-5.2933,-5.3633,0.0,0.0,-5.3662,0.0,-5.5006,-5.5818,-5.6012,-5.6012,-5.6012,-5.6351,-5.6661,-5.6661,-5.6313,-5.6128,-5.6545,-5.6604,-5.6625,-5.6625,-5.6531,-5.6319,-5.5904,-5.5776,-5.5735,-5.5714,-5.5318,-5.4895,-5.4511,-5.4087,-5.3472,-5.2615,-5.2577,-5.2577,-5.2577,-5.2202,-5.2202,-5.2577,-5.1741,-5.1548,-5.1972,-5.1135,-5.0933,-5.1318,-5.1318,-5.1318,-5.1318,-5.1318,-5.1087,-5.0712,-5.0712,-5.0712,-5.0712,-5.0712,-5.0712,-5.0712,-5.0712,-5.0712,-5.0712,-5.0712,-5.0712,-5.0712,-5.0712,-5.0712,-5.0712,-5.0712,-5.0712,-5.0712,-5.0712,-5.1279,-5.1885,-5.1885,-5.2538,-5.3433,-5.428,-5.4164,-5.4203,-5.5434,-5.5395,-5.5241,-5.5626,-5.5703,-5.5703,-5.5703,-5.5703,-5.5703,-5.5703,-5.5703,-5.5703,-5.5703,-5.5703,-5.5857,-5.6291,-5.6329,-5.6665,-5.755,-5.7627,-5.7973,-5.8819,-5.8655,-5.8734,-5.9196,-5.7998,-5.7146,-5.6725,-5.6291,-5.5903,-5.5482,-5.5409,-5.4901,-5.4009,-5.3953,-5.388,0.0,0.0,-5.5182,-5.5146,-5.5098,0.0,-5.5857,-5.6012,-5.6012,-5.6012,-5.6012,-5.6012,-5.6012,-5.6012,-5.6235,-5.697,-5.7086,-5.7086,-5.7086,-5.7012,-5.6734,-5.5982,-5.5855,-5.5766,-5.5714,-5.5549,-5.5164,-5.4357,-5.428,-5.351,-5.1769,-5.1808,-5.1846,-5.1692,-5.1048,-5.101,-5.1692,-5.101,-5.0712,-5.0712,-5.0712,-5.0712,-5.0712,-5.0712,-5.0712,-5.0712,-5.0712,-5.0712,-5.0712,-5.0712,-5.0712,-5.0712,-5.0712,-5.0712,-5.0673,-5.0519,-5.0481,-5.0481,-5.0481,-5.0481,-5.0519,-5.0635,-5.0712,-5.0712,-5.0712,-5.0789,-5.0894,-5.0894,-5.1395,-5.1923,-5.2077,-5.2654,-5.3433,-5.428,-5.4049,-5.401,-5.5395,-5.5164,-5.4895,-5.5549,-5.5703,-5.5703,-5.5703,-5.5703,-5.5703,-5.5703,-5.5703,-5.5703,-5.5703,-5.5703,-5.6011,-5.6907,-5.6983,-5.7407,-5.8434,-5.8511,-5.8869,-5.9722,-5.9254,-5.9359,-6.0203,-5.9557,-5.8719,-5.7692,-5.6831,-5.6319,-5.6203,-5.6141,-5.5715,-5.4947,-5.4915,-5.4832,0.0,0.0,-5.5343,0.0,-5.6053,-5.5998,0.0,0.0,-5.6012,0.0,-5.6012,-5.6012,-5.6012,-5.6012,-5.6051,-5.6158,-5.6158,-5.6158,-5.6158,-5.6161,-5.6116,-5.5905,-5.5855,-5.5766,-5.5714,-5.5049,-5.4318,-5.3433,-5.3356,-5.2626,-5.0933,-5.151,-5.1587,-5.0894,-5.075,-5.075,-5.0856,-5.075,-5.0712,-5.0712,-5.0712,-5.0712,-5.0712,-5.0712,-5.0712,-5.0712,-5.0712,-5.0712,-5.0712,-5.0712,-5.0712,-5.0712,-5.0712,-5.0712,-5.0596,-4.9856,-4.9586,-4.9586,-4.9586,-4.9586,-4.9702,-5.0442,-5.0712,-5.0712,-5.0712,-5.1202,-5.1731,-5.1731,-5.1808,-5.2077,-5.2818,-5.3126,-5.3433,-5.428,-5.4934,-5.5434,-5.5665,-5.5626,-5.5549,-5.5665,-5.5703,-5.5703,-5.5703,-5.5703,-5.5703,-5.5703,-5.5703,-5.5703,-5.5703,-5.5703,-5.6011,-5.6907,-5.6983,-5.7638,-5.9204,-5.9358,-5.9755,-6.0751,-6.0832,-6.0994,-6.131,-6.0581,-5.9795,-5.8886,-5.8031,-5.725,-5.6545,-5.6367,-5.6158,-5.5909,-5.5769,-5.5672,-5.4258,0.0,0.0,0.0,-5.5525,-5.5546,-5.593,0.0,-5.6012,-5.6012,-5.6012,-5.6012,-5.6012,-5.6012,-5.6012,-5.6012,-5.5625,-5.5509,-5.5935,-5.5608,-5.5495,-5.5913,-5.548,-5.5084,-5.5024,-5.4262,-5.3626,-5.3241,-5.3203,-5.2664,-5.1433,-5.1692,-5.1548,-5.075,-5.0712,-5.0712,-5.0712,-5.0712,-5.0712,-5.0712,-5.0712,-5.0712,-5.0712,-5.0712,-5.0712,-5.0712,-5.0712,-5.0712,-5.0712,-5.0712,-5.0712,-5.0712,-5.0712,-5.0712,-5.0596,-4.9702,-4.9702,-5.0048,-4.9586,-4.9702,-5.0202,-5.0596,-5.0712,-5.0712,-5.0712,-5.0933,-5.1241,-5.1241,-5.1241,-5.1548,-5.2856,-5.2856,-5.2933,-5.4741,-5.5088,-5.5164,-5.5588,-5.5703,-5.5703,-5.5703,-5.5703,-5.5703,-5.5703,-5.5703,-5.5857,-5.6368,-5.6011,-5.5857,-5.6368,-5.6445,-5.6742,-5.7627,-5.8127,-5.8913,-6.0236,-6.0324,-6.0568,-6.1073,-6.1266,-6.1401,-6.149,-6.1257,-6.0705,-5.9846,-5.848,-5.7387,-5.6606,-5.6503,-5.6351,-5.6097,-5.6029,-5.5896,0.0,0.0,0.0,0.0,-5.4665,-5.4821,0.0,0.0,-5.5741,-5.5973,-5.5857,-5.5702,-5.5702,-5.5702,-5.5702,-5.5702,-5.5006,-5.4697,-5.5277,-5.4851,-5.468,-5.5284,-5.4707,-5.4236,-5.4217,-5.3579,-5.3126,-5.2895,-5.3087,-5.2741,-5.1664,-5.1769,-5.1433,-5.0404,-5.0596,-5.0596,-5.0366,-5.0596,-5.0712,-5.0712,-5.0712,-5.0596,-5.0366,-5.0596,-5.0481,-5.0048,-5.0519,-5.0712,-5.0712,-5.0712,-5.0558,-5.0404,-5.0596,-5.0558,-5.025,-4.9394,-4.9625,-5.025,-4.9356,-4.9625,-5.0404,-5.0635,-5.0712,-5.0712,-5.0712,-5.0818,-5.101,-5.101,-5.101,-5.1395,-5.3087,-5.2731,-5.2538,-5.5088,-5.5088,-5.4703,-5.5511,-5.5703,-5.5703,-5.5703,-5.5703,-5.5703,-5.5703,-5.5857,-5.6252,-5.6907,-5.6445,-5.6357,-5.7203,-5.7137,-5.7407,-5.8511,-5.9127,-5.992,-6.0906,-6.1002,-6.1062,-6.1272,-6.1406,-6.15,-6.1564,-6.1657,-6.1291,-6.0432,-5.9104,-5.7933,-5.6918,-5.6684,-5.6425,-5.6097,-5.633,-5.628,0.0,0.0,0.0,0.0,0.0,0.0,0.0,0.0,-5.5084,-5.5857,-5.5393,-5.4851,-5.4851,-5.4851,-5.4851,-5.4851,-5.4116,-5.3575,-5.3614,-5.3575,-5.3558,-5.3546,-5.3433,-5.3388,-5.3369,-5.3271,-5.2856,-5.2038,-5.2731,-5.2472,-5.0866,-5.151,-5.1154,-4.951,-5.0289,-5.0289,-4.9471,-5.0289,-5.0712,-5.0712,-5.0712,-5.0289,-4.951,-5.0327,-4.9779,-4.8317,-4.9971,-5.0712,-5.0712,-5.0712,-5.0212,-4.9548,-5.0366,-5.0212,-4.9356,-4.8509,-4.8702,-4.9356,-4.8471,-4.874,-4.9586,-5.0442,-5.0712,-5.0712,-5.0712,-5.1241,-5.1846,-5.1846,-5.1846,-5.2231,-5.3972,-5.3164,-5.2538,-5.5088,-5.5088,-5.4703,-5.5511,-5.5703,-5.5703,-5.5703,-5.5703,-5.5703,-5.5703,-5.6406,-5.6945,-5.6983,-5.6945,-5.7253,-5.8127,-5.7511,-5.7627,-5.9242,-5.9473,-5.992,-6.0906,-6.1002,-6.1158,-6.1471,-6.1486,-6.1569,-6.1674,-6.1718,-6.1291,-6.0432,-6.0315,-5.9417,-5.7738,-5.6957,-5.6425,-5.6136,-5.6945,-5.721,0.0,0.0,0.0,0.0,-5.3465,-5.3891,-5.4035,-5.4925,-5.545,-5.4567,-5.4619,-5.4619,-5.4078,-5.3962,-5.3962,-5.3962,-5.3227,-5.284,-5.342,-5.3033,-5.2879,-5.3395,-5.291,-5.2316,-5.1758,-5.1135,-5.0394,-4.9548,-4.974,-4.9663,-4.9048,-4.9317,-4.9202,-4.8586,-4.8856,-4.8894,-4.8586,-4.8894,-4.9048,-4.9048,-4.9048,-4.8856,-4.8586,-4.9471,-4.951,-4.9009,-5.0212,-5.0366,-4.9817,-4.924,-4.9163,-4.9394,-4.9125,-4.9163,-4.9279,-4.8432,-4.9009,-5.0087,-4.924,-4.951,-5.0289,-5.0596,-5.0712,-5.0712,-5.0712,-5.0894,-5.1125,-5.1125,-5.151,-5.2038,-5.2654,-5.2385,-5.2269,-5.3741,-5.4318,-5.4703,-5.5511,-5.5703,-5.5703,-5.5703,-5.5703,-5.5703,-5.5703,-5.5972,-5.6368,-5.6907,-5.6983,-5.733,-5.8204,-5.8473,-5.8819,-5.9435,-6.0068,-6.0626,-6.1089,-6.1232,-6.1395,-6.1602,-6.1648,-6.1657,-6.1718,-6.1718,-6.1562,-6.1252,-6.0666,-5.9807,-5.8636,-5.7777,-5.7517,-5.7768,-5.7528,-5.755,-5.1172,0.0,0.0,0.0,0.0,-5.2721,-5.3165,-5.4091,-5.4634,-5.3722,-5.3731,-5.373,-5.3149,-5.2801,-5.2724,-5.3033,-5.2337,-5.195,-5.2569,-5.1912,-5.1679,-5.2531,-5.1545,-5.0722,-5.0396,-4.9545,-4.8759,-4.8163,-4.8086,-4.8086,-4.8086,-4.8086,-4.8086,-4.8086,-4.7855,-4.7817,-4.8086,-4.8086,-4.8086,-4.8086,-4.8086,-4.7971,-4.774,-4.8586,-4.8817,-4.8625,-4.9471,-4.9817,-4.9779,-4.9202,-4.9125,-4.9356,-4.9086,-4.9163,-4.9317,-4.874,-4.9433,-5.0596,-4.9702,-4.9971,-5.0712,-5.0712,-5.0712,-5.0712,-5.0712,-5.0712,-5.0712,-5.0712,-5.1279,-5.1962,-5.2269,-5.2731,-5.3241,-5.3549,-5.428,-5.5049,-5.5588,-5.5703,-5.5703,-5.5703,-5.5703,-5.5703,-5.5703,-5.5934,-5.6329,-5.6907,-5.7253,-5.7742,-5.8588,-5.9165,-5.9622,-5.9969,-6.0606,-6.1062,-6.1285,-6.1412,-6.1569,-6.1676,-6.1718,-6.1718,-6.1718,-6.1718,-6.1718,-6.1718,-6.1134,-6.0549,-5.9961,-5.8792,-5.8414,-5.87,-5.8434,-5.8675,0.0,0.0,0.0,0.0,0.0,0.0,-5.2151,-5.2403,-5.249,-5.3333,-5.2799,-5.2152,-5.2152,-5.1486,-5.1177,-5.2028,-5.1447,-5.0898,-5.0937,-5.0241,-5.0016,-5.0821,-4.9397,-4.8623,-4.9393,-4.8686,-4.8132,-4.8048,-4.8048,-4.8048,-4.8048,-4.8048,-4.8048,-4.8048,-4.7278,-4.724,-4.8009,-4.8048,-4.8048,-4.8048,-4.8048,-4.7625,-4.6885,-4.774,-4.7663,-4.6962,-4.7817,-4.9125,-5.0712,-5.0635,-5.0125,-4.9471,-5.0289,-5.0125,-4.9394,-4.9394,-4.9933,-5.0596,-4.974,-4.9971,-5.0712,-5.0712,-5.0712,-5.0712,-5.0712,-5.0712,-5.0712,-5.075,-5.1318,-5.2154,-5.301,-5.4434,-5.5434,-5.4664,-5.5088,-5.5665,-5.5703,-5.5703,-5.5703,-5.5703,-5.5703,-5.5703,-5.5703,-5.6406,-5.6983,-5.6983,-5.7742,-5.8627,-5.9396,-5.9511,-5.9909,-6.0896,-6.1002,-6.1158,-6.1471,-6.1495,-6.1573,-6.1676,-6.1679,-6.1679,-6.1718,-6.164,-6.164,-6.1676,-6.1676,-6.1676,-6.1676,-5.9959,-5.8995,-5.8817,-5.9788,-6.0556,-4.9531,0.0,0.0,0.0,0.0,0.0,-5.0637,-5.1152,-5.1604,-5.1775,-5.1593,-5.1379,-5.127,-5.1053,-5.0975,-5.1215,-5.1053,-5.113,-5.1757,-5.1099,-5.0867,-5.1757,-5.0294,-4.9087,-4.866,-4.7799,-4.6977,-4.6326,-4.6278,-4.6278,-4.6278,-4.6278,-4.6278,-4.6278,-4.6086,-4.6047,-4.6278,-4.6278,-4.6278,-4.6278,-4.6278,-4.6163,-4.6009,-4.7432,-4.7971,-4.7855,-4.9356,-5.025,-5.0596,-4.9356,-4.9048,-4.9356,-4.8971,-4.9048,-4.9394,-4.9394,-4.9933,-5.0673,-5.0442,-5.0519,-5.0712,-5.0712,-5.0712,-5.0712,-5.0712,-5.0712,-5.0827,-5.1395,-5.2202,-5.3049,-5.3895,-5.401,-5.3972,-5.4395,-5.4664,-5.4972,-5.5549,-5.5703,-5.5703,-5.5703,-5.5703,-5.5703,-5.5703,-5.6406,-5.6983,-5.6983,-5.8242,-5.9242,-5.9473,-6.005,-6.0564,-6.0974,-6.1087,-6.1239,-6.1481,-6.1588,-6.1663,-6.1718,-6.1095,-6.1056,-6.1679,-6.0508,-6.0372,-6.153,-6.0941,-6.0941,-6.1569,-6.0434,-6.0098,-6.0526,-6.0592,-6.0722,0.0,0.0,0.0,0.0,0.0,0.0,-4.9485,-4.9898,-5.0182,-5.0104,-5.0324,-5.0545,-5.0467,-5.0673,-5.1014,-5.137,-5.113,-5.1091,-5.1602,-5.1215,-5.1091,-5.1602,-5.0457,-4.942,-4.8861,-4.7662,-4.6733,-4.6172,-4.5825,-4.5594,-4.5594,-4.5594,-4.5594,-4.5594,-4.5594,-4.5594,-4.5594,-4.5594,-4.5787,-4.6124,-4.5787,-4.5979,-4.6663,-4.7317,-4.7971,-4.8702,-4.9702,-5.0366,-5.0635,-4.9586,-4.9471,-4.9894,-4.9394,-4.951,-4.9933,-4.9933,-5.025,-5.0712,-5.0712,-5.0712,-5.0712,-5.0712,-5.0712,-5.0712,-5.0712,-5.0933,-5.1241,-5.1356,-5.2279,-5.3472,-5.4703,-5.4626,-5.4357,-5.4895,-5.5011,-5.5126,-5.5588,-5.5703,-5.5703,-5.5703,-5.5703,-5.5703,-5.5703,-5.6406,-5.6983,-5.6983,-5.8434,-5.9511,-5.9511,-6.0242,-6.0834,-6.0974,-6.1062,-6.1189,-6.1373,-6.1517,-6.1602,-6.1602,-6.12,-6.1017,-6.1134,-6.0198,-5.9898,-6.0404,-5.9932,-5.9854,-6.0262,-6.0499,-6.0837,-6.1186,-6.0974,-6.071,0.0,0.0,0.0,0.0,-4.8594,0.0,-4.8555,-4.8586,-4.8488,-4.8679,-4.9134,-4.9587,-4.9654,-5.03,-5.099,-5.1695,-5.1385,-5.1138,-5.1293,-5.1169,-5.113,-5.1323,-5.0442,-4.9792,-4.9671,-4.8119,-4.7075,-4.6894,-4.6086,-4.5594,-4.5594,-4.5594,-4.5594,-4.5594,-4.5594,-4.5594,-4.5594,-4.5594,-4.6047,-4.6885,-4.6009,-4.6471,-4.8086,-4.7355,-4.7894,-4.9394,-4.951,-4.9971,-5.0712,-5.0712,-5.0712,-5.0712,-5.0712,-5.0712,-5.0712,-5.0712,-5.0712,-5.0712,-5.0712,-5.0712,-5.0712,-5.0712,-5.0712,-5.0712,-5.0827,-5.1318,-5.1769,-5.1279,-5.2241,-5.3818,-5.5318,-5.5703,-5.5703,-5.5703,-5.5703,-5.5703,-5.5703,-5.5703,-5.5742,-5.5818,-5.578,-5.5742,-5.5818,-5.656,-5.7176,-5.7253,-5.8627,-5.9627,-5.9627,-6.0319,-6.0834,-6.0974,-6.1002,-6.1044,-6.1179,-6.1379,-6.152,-6.1646,-6.168,-6.14,-6.0861,-6.0666,-6.0168,-5.9299,-5.9095,-5.8856,-5.8624,-6.0158,-6.0925,-6.1019,-6.0893,-6.0523,0.0,0.0,0.0,-4.6914,-4.6797,0.0,-4.7656,-4.7304,-4.7144,-4.8411,-4.8311,-4.8122,-4.8721,-4.9512,-4.9931,-4.9382,-5.0914,-5.2608,-5.3847,-5.284,-5.2453,-5.3884,-5.2028,-5.0634,-5.0559,-4.9046,-4.773,-4.6971,-4.6086,-4.5594,-4.5594,-4.5594,-4.5594,-4.5594,-4.5594,-4.5594,-4.5594,-4.5594,-4.6047,-4.6885,-4.6009,-4.6471,-4.8086,-4.7932,-4.8432,-4.9433,-5.0125,-5.0558,-5.0712,-5.0712,-5.0712,-5.0712,-5.0712,-5.0712,-5.0712,-5.0712,-5.0712,-5.0712,-5.0712,-5.0712,-5.0712,-5.0712,-5.0712,-5.0827,-5.1471,-5.1769,-5.2154,-5.3395,-5.4472,-5.528,-5.5626,-5.5703,-5.5703,-5.5703,-5.5703,-5.5703,-5.5703,-5.5703,-5.5895,-5.6599,-5.6175,-5.5934,-5.6637,-5.7473,-5.828,-5.8896,-5.9896,-6.055,-6.055,-6.0704,-6.0834,-6.0974,-6.1002,-6.1044,-6.1179,-6.1253,-6.1627,-6.2503,-6.1898,-6.2134,-6.3477,-6.2189,-6.1549,-6.1784,-6.0375,-5.9532,-5.9309,-5.9118,-5.9282,-5.9847,-5.9793,-5.9716,0.0,0.0,-4.6406,-4.6836,-4.6601,0.0,0.0,-4.6601,-4.6523,-4.7337,-4.7518,-4.7615,-4.7978,-4.8723,-4.9555,-5.0412,-5.0926,-5.1905,-5.3967,-5.3883,-5.3747,-5.4139,-5.3434,-5.2678,-5.2138,-5.0173,-4.8347,-4.7009,-4.6509,-4.624,-4.624,-4.5825,-4.5594,-4.5594,-4.5594,-4.5594,-4.5594,-4.5594,-4.624,-4.7509,-4.6663,-4.7355,-4.9394,-4.8933,-4.9202,-5.0048,-5.0519,-5.0712,-5.0712,-5.0712,-5.0712,-5.0712,-5.0712,-5.0712,-5.0712,-5.0712,-5.0933,-5.1241,-5.0827,-5.0971,-5.1241,-5.0827,-5.0712,-5.0856,-5.1654,-5.2192,-5.2818,-5.4126,-5.478,-5.5203,-5.5588,-5.5703,-5.5703,-5.5703,-5.5703,-5.5703,-5.5703,-5.5703,-5.5972,-5.683,-5.6637,-5.6637,-5.7511,-5.8357,-5.905,-5.9435,-6.0242,-6.0781,-6.0781,-6.0781,-6.0827,-6.091,-6.0882,-6.0923,-6.0993,-6.1479,-6.1997,-6.2507,-6.2674,-6.2951,-6.3464,-6.2758,-6.2009,-6.1278,-6.0303,-5.9292,-5.8242,-5.7909,-5.8191,-5.9019,-5.9337,-5.9106,0.0,-4.6953,-4.668,-4.7226,-4.6953,-4.6523,0.0,0.0,0.0,-4.6289,-4.683,-4.7283,-4.7283,-4.7877,-4.9091,-5.1197,-5.0654,-5.0693,-5.276,-5.3894,-5.4332,-5.3669,-5.4101,-5.4219,-5.373,-5.1125,-4.8994,-4.7749,-4.7201,-4.6962,-4.7115,-4.6471,-4.6018,-4.5864,-4.5864,-4.5864,-4.5864,-4.5671,-4.6509,-4.8355,-4.7355,-4.824,-5.0673,-4.9779,-4.9894,-5.0712,-5.0712,-5.0712,-5.0712,-5.0712,-5.0712,-5.0712,-5.0712,-5.0712,-5.0712,-5.0712,-5.1125,-5.1587,-5.0933,-5.1125,-5.1548,-5.0894,-5.0789,-5.1087,-5.1885,-5.2779,-5.3626,-5.4472,-5.4741,-5.4895,-5.5511,-5.5703,-5.5703,-5.5703,-5.5703,-5.5742,-5.5895,-5.5934,-5.6242,-5.7291,-5.7484,-5.7703,-5.8396,-5.9088,-5.955,-5.9742,-6.0358,-6.0781,-6.0781,-6.0781,-6.0781,-6.0781,-6.0781,-6.0781,-6.0781,-6.1692,-6.2346,-6.2549,-6.3556,-6.392,-6.3398,-6.3405,-6.263,-6.0956,-6.0326,-5.9264,-5.7715,-5.7407,-5.7569,-5.823,-5.91,-5.8841,0.0,-4.6953,-4.7305,-4.6601,-4.6953,-4.7266,-4.6484,0.0,-4.6289,-4.6289,0.0,-4.6445,-4.6445,0.0,0.0,-4.8123,-4.9295,-5.0271,-5.0545,-5.1951,-5.3147,-5.3615,-5.3052,-5.3126,-5.4516,-5.1531,-4.9699,-5.0212,-4.8163,-4.7192,-4.7932,-4.7855,-4.7509,-4.6778,-4.674,-4.674,-4.674,-4.597,-4.6826,-4.924,-4.7663,-4.824,-5.0673,-4.9779,-4.9894,-5.0712,-5.0712,-5.0712,-5.0712,-5.0712,-5.0712,-5.0712,-5.0712,-5.0712,-5.0712,-5.0712,-5.075,-5.0827,-5.075,-5.075,-5.0827,-5.075,-5.1164,-5.1923,-5.2779,-5.3664,-5.4511,-5.5318,-5.5549,-5.5588,-5.5665,-5.5703,-5.5703,-5.5703,-5.5703,-5.5895,-5.6676,-5.6868,-5.733,-5.8896,-5.9204,-5.9242,-5.9358,-5.9435,-5.9742,-6.055,-6.0742,-6.0781,-6.0781,-6.0781,-6.0781,-6.0781,-6.0781,-6.0781,-6.0781,-6.1624,-6.2508,-6.34,-6.4222,-6.5049,-6.5863,-6.5231,-6.4652,-6.4251,-6.2036,-6.0683,-6.0358,-5.8896,-5.7791,-5.7208,-5.8753,-5.9407,0.0,-4.6866,-4.7337,-4.6523,-4.7344,-4.8008,-4.6601,-4.707,-4.7539,-4.6523,0.0,0.0,0.0,0.0,0.0,0.0,-4.8867,-4.8867,-4.9375,-5.0039,-5.1128,-5.2866,-5.2717,-5.2295,-5.1839,-5.1299,-5.072,-4.9981,-4.9433,-4.924,-4.9586,-4.9125,-4.8702,-4.8355,-4.7855,-4.7586,-4.7586,-4.724,-4.7855,-4.9394,-4.8702,-4.9163,-5.0712,-5.0327,-5.0366,-5.0712,-5.0712,-5.0712,-5.0712,-5.0712,-5.0712,-5.0712,-5.0712,-5.0712,-5.0712,-5.0712,-5.101,-5.1318,-5.0856,-5.101,-5.1318,-5.0856,-5.1241,-5.1962,-5.2308,-5.3395,-5.4549,-5.4895,-5.5318,-5.5703,-5.5703,-5.5703,-5.5703,-5.5703,-5.5703,-5.5934,-5.683,-5.6983,-5.7522,-5.9165,-5.9511,-5.9665,-6.0165,-6.0242,-6.0396,-6.0742,-6.0781,-6.0781,-6.0781,-6.0781,-6.0781,-6.0781,-6.0781,-6.1012,-6.1524,-6.232,-6.3176,-6.4127,-6.503,-6.5779,-6.6268,-6.5965,-6.5497,-6.4803,-6.3758,-6.2421,-6.0781,-6.0589,-5.9781,-5.8473,-5.9704,-6.0311,-4.6774,-4.7147,-4.7595,-4.6519,-4.7421,-4.8203,-4.6953,-4.7656,-4.8242,-4.7226,-4.8008,0.0,0.0,0.0,-4.8437,-4.9961,0.0,-4.7891,-4.8789,-4.8672,-4.9295,-5.1349,-5.2392,-5.2253,-5.052,-5.1432,-5.158,-5.0202,-5.0481,-5.0789,-5.101,-5.0433,-4.9971,-4.974,-4.9125,-4.8817,-4.8817,-4.8817,-4.924,-5.0087,-5.0087,-5.0433,-5.101,-5.1068,-5.1096,-5.1057,-5.0864,-5.0785,-5.0782,-5.0776,-5.0758,-5.0758,-5.0758,-5.0721,-5.0712,-5.0712,-5.1087,-5.151,-5.0894,-5.1087,-5.1471,-5.0894,-5.1241,-5.1923,-5.2192,-5.3318,-5.4549,-5.478,-5.5241,-5.5703,-5.5703,-5.5703,-5.5742,-5.6011,-5.6049,-5.6357,-5.7434,-5.7703,-5.8127,-5.9588,-5.9858,-6.005,-6.0704,-6.0781,-6.0781,-6.0781,-6.0781,-6.0781,-6.0781,-6.0781,-6.0781,-6.0781,-6.0781,-6.1127,-6.2024,-6.2858,-6.3782,-6.4897,-6.5654,-6.6088,-6.6203,-6.6217,-6.5884,-6.5136,-6.4917,-6.384,-6.182,-6.2243,-6.1897,-6.0896,-6.1281,-6.1554,-4.7704,-4.7966,-4.8289,-4.6614,-4.6947,-4.7617,-4.7578,-4.7617,-4.7851,-4.8633,-4.8867,-4.8906,-4.8867,-4.8867,-4.9141,0.0,-4.875,0.0,0.0,-4.8164,-4.7969,-4.8906,-5.1861,-5.3429,-5.2304,-5.2214,-5.2121,-5.1914,-5.1154,-5.1048,-5.1808,-5.1846,-5.1471,-5.0673,-5.0635,-5.0635,-5.0635,-5.0635,-5.101,-5.1808,-5.1808,-5.1846,-5.1856,-5.2005,-5.205,-5.2012,-5.1246,-5.0911,-5.0984,-5.0928,-5.0906,-5.0906,-5.0906,-5.0799,-5.0712,-5.0712,-5.0712,-5.075,-5.0712,-5.0712,-5.075,-5.0712,-5.1241,-5.2038,-5.2895,-5.378,-5.4664,-5.5434,-5.5665,-5.5703,-5.5703,-5.5703,-5.5895,-5.6753,-5.6945,-5.7407,-5.905,-5.9435,-5.9704,-6.0589,-6.0742,-6.0781,-6.0781,-6.0781,-6.0781,-6.0781,-6.0781,-6.0781,-6.0781,-6.0781,-6.0781,-6.0781,-6.0781,-6.1127,-6.2024,-6.2858,-6.4051,-6.5743,-6.591,-6.5923,-6.5923,-6.6041,-6.6014,-6.5884,-6.5142,-6.4679,-6.4474,-6.3666,-6.3666,-6.4436,-6.3589,-6.3205,-4.8159,-4.8688,-4.8997,-4.7398,-4.8094,-4.8774,-4.7109,-4.8086,-4.9062,-4.8203,-4.9375,-5.0391,-4.9844,-4.9766,0.0,0.0,0.0,-4.8359,0.0,-4.7773,-4.793,-4.8789,-5.0847,-5.1823,-5.0864,-5.1653,-5.1932,-5.1315,-5.1924,-5.2472,-5.2741,-5.3318,-5.351,-5.3203,-5.2664,-5.2356,-5.2356,-5.2356,-5.255,-5.2872,-5.2872,-5.263,-5.215,-5.2207,-5.191,-5.136,-5.1095,-5.0966,-5.1002,-5.0998,-5.0979,-5.0972,-5.0913,-5.0874,-5.0808,-5.0721,-5.0712,-5.0712,-5.0712,-5.0712,-5.0712,-5.0712,-5.0894,-5.1356,-5.2779,-5.3395,-5.3933,-5.5318,-5.5703,-5.5818,-5.6406,-5.656,-5.6791,-5.7665,-5.7857,-5.8165,-5.9281,-5.9511,-5.9742,-6.0627,-6.0781,-6.0781,-6.0781,-6.0781,-6.0781,-6.0781,-6.0781,-6.0781,-6.0781,-6.0781,-6.0781,-6.0781,-6.0781,-6.1358,-6.2781,-6.4205,-6.5282,-6.5859,-6.5897,-6.5897,-6.5897,-6.5946,-6.5958,-6.5897,-6.5637,-6.5214,-6.4589,-6.4897,-6.4897,-6.4628,-6.4897,-6.5013,-4.8864,-4.9216,-4.9368,-4.8117,-4.8683,-4.9146,-4.7576,-4.8789,-4.9961,-4.9101,-5.0273,-5.1445,-5.1523,-5.1055,0.0,0.0,0.0,0.0,0.0,-4.7344,-4.7578,-4.875,-5.0346,-5.1112,-5.0501,-5.1304,-5.1597,-5.0942,-5.1799,-5.2599,-5.3164,-5.3741,-5.4164,-5.4472,-5.4241,-5.4087,-5.4087,-5.4438,-5.4505,-5.4279,-5.4065,-5.3526,-5.2768,-5.2491,-5.2041,-5.153,-5.1224,-5.1089,-5.1122,-5.1084,-5.1069,-5.1058,-5.0972,-5.092,-5.089,-5.0749,-5.0712,-5.0712,-5.0712,-5.0894,-5.1125,-5.1125,-5.1548,-5.2241,-5.3318,-5.3857,-5.4318,-5.5395,-5.5934,-5.6291,-5.6868,-5.7253,-5.7665,-5.855,-5.8742,-5.8934,-5.9781,-5.9973,-6.0127,-6.0704,-6.0781,-6.0781,-6.0781,-6.0781,-6.0781,-6.0781,-6.0781,-6.0781,-6.0781,-6.0781,-6.0781,-6.0781,-6.1089,-6.1935,-6.3628,-6.5089,-6.5897,-6.5897,-6.5897,-6.5897,-6.5897,-6.5897,-6.6013,-6.632,-6.6051,-6.5743,-6.5474,-6.5782,-6.559,-6.5089,-6.5628,-6.5897]},{"header":{"parameterUnit":"m.s-1","parameterCategory":1,"la1":30.6,"la2":29.2853,"lo1":-89.7004,"lo2":-87.6739,"dy":0.0162,"dx":0.0183,"nx":112,"ny":82,"refTime":"2024-03-30T12:00:00:Z","depth":0,"parameterNumber":3,"parameterNumberName":"V-component_of_WINDS"},"data":[0.0,0.0,0.0,0.0,0.0,0.0,0.0,0.0,0.0,0.0,0.0,0.0,0.0,0.0,0.0,0.0,0.0,0.0,0.0,0.0,0.0,0.0,0.0,0.0,0.0,0.0,0.0,0.0,0.0,0.0,0.0,0.0,0.0,0.0,0.0,0.0,0.0,0.0,0.0,0.0,0.0,0.0,0.0,0.0,0.0,0.0,0.0,0.0,0.0,0.0,0.0,0.0,0.0,0.0,0.0,0.0,0.0,0.0,0.0,0.0,0.0,0.0,0.0,0.0,0.0,0.0,0.0,0.0,0.0,0.0,0.0,0.0,0.0,0.0,0.0,0.0,0.0,0.0,0.0,0.0,0.0,0.0,0.0,0.0,0.0,0.0,0.0,0.0,0.0,0.0,0.0,0.0,0.0,0.0,0.0,0.0,-0.0126,-0.0339,0.0,0.0,0.0,0.0,0.0,0.0,0.0,0.0,0.0,0.0,0.0,0.0,0.0,0.0,0.0,0.0,0.0,0.0,0.0,0.0,0.0,0.0,0.0,0.0,0.0,0.0,0.0,0.0,0.0,0.0,0.0,0.0,0.0,0.0,0.0,0.0,0.0,0.0,0.0,0.0,0.0,0.0,0.0,0.0,0.0,0.0,0.0,0.0,0.0,0.0,0.0,0.0,0.0,0.0,0.0,0.0,0.0,0.0,0.0,0.0,0.0,0.0,0.0,0.0,0.0,0.0,0.0,0.0,0.0,0.0,0.0,0.0,0.0,0.0,0.0,0.0,0.0,0.0,0.0,0.0,0.0,0.0,0.0,0.0,0.0,0.0,0.0,0.0,0.0,0.0,0.0,0.0,0.0,0.0,0.0,0.0,0.0,0.0,0.0,0.0,0.0,0.0,0.0,0.0,0.0,0.0,0.0,0.0,0.0,0.0,0.0,-0.0056,0.0,0.0,0.0,0.0,0.0,0.0,0.0,0.0,0.0,0.0,0.0,0.0,0.0,0.0,0.0,0.0,0.0,0.0,0.0,0.0,0.0,0.0,0.0,0.0,0.0,0.0,0.0,0.0,0.0,0.0,0.0,0.0,0.0,0.0,0.0,0.0,0.0,0.0,0.0,0.0,0.0,0.0,0.0,0.0,0.0,0.0,0.0,0.0,0.0,0.0,0.0,0.0,0.0,0.0,0.0,0.0,0.0,0.0,0.0,0.0,0.0,0.0,0.0,0.0,0.0,0.0,0.0,0.0,0.0,0.0,0.0,0.0,0.0,0.0,0.0,0.0,0.0,0.0,0.0,0.0,0.0,0.0,0.0,0.0,0.0,0.0,0.0,0.0,0.0,0.0,0.0,0.0,0.0,0.0,0.0,0.0,0.0,0.0,0.0,0.0,0.0,0.0,0.0,0.0,0.0,0.0,0.0,0.0,0.0,0.0,0.0,0.0,-0.0111,0.0,0.0,0.0,0.0,0.0,0.0,0.0,0.0,0.0,0.0,0.0,0.0,0.0,0.0,0.0,0.0,0.0,0.0,0.0,0.0,0.0,0.0,0.0,0.0,0.0,0.0,0.0,0.0,0.0,0.0,0.0,0.0,0.0,0.0,0.0,0.0,0.0,0.0,0.0,0.0,0.0,0.0,0.0,0.0,0.0,0.0,0.0,0.0,0.0,0.0,0.0,0.0,0.0,0.0,0.0,0.0,0.0,0.0,0.0,0.0,0.0,0.0,0.0,0.0,0.0,0.0,0.0,0.0,0.0,0.0,0.0,0.0,0.0,0.0,0.0,0.0,0.0,0.0,0.0,0.0,0.0,0.0,0.0,0.0,0.0,0.0,0.0,0.0,0.0,0.0,0.0,0.0,0.0,0.0,0.0,0.0,0.0,0.0,0.0,0.0,0.0,0.0,0.0511,0.0526,0.0558,0.051,0.0319,0.0,0.0,0.0,0.0,0.0,0.0,0.0,0.0,0.0,0.0,0.0,0.0,0.0,0.0,0.0,0.0,0.0,0.0,0.0,0.0,0.0,0.0,0.0,0.0,0.0,0.0,0.0,0.0,0.0,0.0,0.0,0.0,0.0,0.0,0.0,0.0,0.0,0.0,0.0,0.0,0.0,0.0,0.0,0.0,0.0,0.0,0.0,0.0,0.0,0.0,0.0,0.0,0.0,0.0,0.0,0.0,0.0,0.0,0.0,0.0,0.0,0.0,0.0,0.0,0.0,0.0,0.0,0.0,0.0,0.0,0.0,0.0,0.0,0.0,0.0,0.0,0.0,0.0,0.0,0.0,0.0,0.0,0.0,0.0,0.0,0.0,0.0,0.0,0.0,0.0,0.0,0.0,0.0,0.0,0.0,0.0,0.0,0.0,0.0,0.0,0.0,0.0,0.0,0.0,0.0,0.0,0.0,0.2061,0.1982,0.2292,0.2072,0.1385,0.0119,0.0,0.0,0.0,0.0,0.0,0.0,0.0,0.0,0.0,0.0,0.0,0.0,0.0,0.0,0.0,0.0,0.0,0.0,0.0,0.0,0.0,0.0,0.0,0.0,0.0,0.0,0.0,0.0,0.0,0.0,0.0,0.0,0.0,0.0,0.0,0.0,0.0,0.0,0.0,0.0,0.0,0.0,0.0,0.0,0.0,0.0,0.0,0.0,0.0,0.0,0.0,0.0,0.0,0.0,0.0,0.0,0.0,0.0,0.0,0.0,0.0,0.0,0.0,0.0,0.0,0.0,0.0,0.0,0.0,0.0,0.0,0.0,0.0,0.0,0.0,0.0,0.0,0.0,0.0,0.0,0.0,0.0,0.0,0.0,0.0,0.0,0.0,0.0,0.0,0.0,0.0,0.0,0.0,0.0,0.0,0.0,0.0,0.0,0.0,0.0,0.0,0.0,0.0,0.0,0.0,0.0,0.2932,0.3115,0.236,0.2227,0.1802,0.1046,0.0971,0.1263,0.1842,0.0,0.0,0.0,0.0,0.0,0.0,0.0,0.0,0.0,0.0,0.0,0.0,0.0,0.0,0.0,0.0,0.0,0.0,0.0,0.0,0.0,0.0,0.0,0.0,0.0,0.0,0.0,0.0,0.0,0.0,0.0,0.0,0.0,0.0,0.0,0.0,0.0,0.0,0.0,0.0,0.0,0.0,0.0,0.0,0.0,0.0,0.0,0.0,0.0,0.0,0.0,0.0,0.0,0.0,0.0,0.0,0.0,0.0,0.0,0.0,0.0,0.0,0.0,0.0,0.0,0.0,0.0,0.0,0.0,0.0,0.0,0.0,0.0,0.0,0.0,0.0,0.0,0.0,0.0,0.0,0.0,0.0,0.0,0.0,0.0,0.0,0.0,0.0,0.0,0.0,0.0,0.0,0.0,0.0,0.0,0.0,0.0,0.0,0.0,0.0,0.0,0.0,0.3027,0.4133,0.4567,0.3761,0.3624,0.3195,0.2378,0.2279,0.2518,0.2957,0.0,0.0,0.0,0.0,0.0,0.0,0.0,0.0,0.0,0.0,0.0,0.0,0.0,0.0,0.0,0.0,0.0,0.0,0.0,0.0,0.0,0.0,0.0,0.0,0.0,0.0,0.0,0.0,0.0,0.0,0.0,0.0,0.0,0.0,0.0,0.0,0.0,0.0,0.0,0.0,0.0,0.0,0.0,0.0,0.0,0.0,0.0,0.0,0.0,0.0,0.0,0.0,0.0,0.0,0.0,0.0,0.0,0.0,0.0,0.0,0.0,0.0,0.0,0.0,0.0,0.0,0.0,0.0,0.0,0.0,0.0,0.0,0.0,0.0,0.0,0.0,0.0,0.0,0.0,0.0,0.0,0.0,0.0,0.0,0.0,0.0,0.0,0.0,0.0,0.0,0.0,0.0,0.0,0.0,0.0,0.0,0.0,0.0,0.0,0.0,0.0,0.0,0.4783,0.5732,0.6396,0.6842,0.6614,0.5692,0.3996,0.3808,0.3581,0.0,0.0,0.0,0.0,0.0,0.0,0.0,0.0,0.0,0.0,0.0,0.0,0.0,0.0,0.0,0.0,0.0,0.0,0.0,0.0,0.0,0.0,0.0,0.0,0.0,0.0,0.0,0.0,0.0,0.0,0.0,0.0,0.0,0.0,0.0,0.0,0.0,0.0,0.0,0.0,0.0,0.0,0.0,0.0,0.0,0.0,0.0,0.0,0.0,0.0,0.0,0.0,0.0,0.0,0.0,0.0,0.0,0.0,0.0,0.0,0.0,0.0,0.0,0.0,0.0,0.0,0.0,0.0,0.0,0.0,0.0,0.0,0.0,0.0,0.0,0.0,0.0,0.0,0.0,0.0,0.0,0.0,0.0,0.0,0.0,0.0,0.0,0.0,0.0,0.0,0.0,0.0,0.0,0.0,0.0,0.0,0.0,0.0,0.0,0.0,0.0,0.0,0.0,0.4792,0.6615,0.7529,0.6728,0.6548,0.6165,0.5363,0.4942,0.4998,0.5586,0.0,0.0,0.0,0.0,0.0,0.0,0.0,0.0,0.0,0.0,0.0,0.0,0.0,0.0,0.0,0.0,0.0,0.0,0.0,0.0,0.0,0.0,0.0,0.0,0.0,0.0,0.0,0.0,0.0,0.0,0.0,0.0,0.0,0.0,0.0,0.0,0.0,0.0,0.0,0.0,0.0,0.0,0.0,0.0,0.0,0.0,0.0,0.0,0.0,0.0,0.0,0.0,0.0,0.0,0.0,0.0,0.0,0.0,0.0,0.0,0.0,0.0,0.0,0.0,0.0,0.0,0.0,0.0,0.0,0.0,0.0,0.0,0.0,0.0,0.0,0.0,0.0,0.0,0.0,0.0,0.0,0.0,0.0,0.0,0.0,0.0,0.0,0.0,0.0,0.0,0.0,0.0,0.0,0.0,0.0,0.0,0.0,0.0,0.0,0.0,0.0,0.0,0.5449,0.7256,0.8216,0.7439,0.7402,0.7166,0.673,0.6337,0.6267,0.6732,0.0,0.0,0.0,0.0,0.0,0.0,0.0,0.0,0.0,0.0,0.0,0.0,0.0,0.0,0.0,0.0,0.0,0.0,0.0,0.0,0.0,0.0,0.0,0.0,0.0,0.0,0.0,0.0,0.0,0.0,0.0,0.0,0.0,0.0,0.0,0.0,0.0,0.0,0.0,0.0,0.0,0.0,0.0,0.0,0.0,0.0,0.0,0.0,0.0,0.0,0.0,0.0,0.0,0.0,0.0,0.0,0.0,0.0,0.0,0.0,0.0,0.0,0.0,0.0,0.0,0.0,0.0,0.0,0.0,0.0,0.0,0.0,0.0,0.0,0.0,0.0,0.0,0.0,0.0,0.0,0.0,0.0,0.0,0.0,0.0,0.0,0.0,0.0,0.0,0.0,0.0,0.0,0.0,0.0,0.0,0.0,0.0,0.0,0.0,0.0,0.0,0.0,0.6443,0.7712,0.852,0.8676,0.8676,0.8454,0.7975,0.7711,0.737,0.6875,0.0,0.0,0.0,0.0,0.0,0.0,0.0,0.0,0.0,0.0,0.0,0.0,0.0,0.0,0.0,0.0,0.0,0.0,0.0,0.0,0.0,0.0,0.0,0.0,0.0,0.0,0.0,0.0,0.0,0.0,0.0,0.0,0.0,0.0,0.0,0.0,0.0,0.0,0.0,0.0,0.0,0.0,0.0,0.0,0.0,0.0,0.0,0.0,0.0,0.0,0.0,0.0,0.0,0.0,0.0,0.0,0.0,0.0,0.0,0.0,0.1811,0.08,0.0,0.0,0.0,0.0,0.0,0.0,0.0,0.0,0.0,0.0,0.0,0.0,0.0,0.0,0.0,0.0,0.0,0.0,0.0,0.0,0.0,0.0,0.0,0.0,0.0,0.0,0.0,0.0,0.0,0.0,0.0,0.0,0.0,0.0,0.0,0.0,0.0,0.0,0.0,0.0,0.6548,0.7636,0.837,0.8513,0.8431,0.8336,0.8224,0.7776,0.7453,0.734,0.687,0.0,0.0,0.0,0.0,0.0,0.0,0.0,0.0,0.0,0.0,0.0,0.0,0.0,0.0,0.0,0.0,0.0,0.0,0.0,0.0,0.0,0.0,0.0,0.0,0.0,0.0,0.0,0.0,0.0,0.0,0.0,0.0,0.0,0.0,0.0,0.0,0.0,0.0,0.0,0.0,0.0,0.0,0.0,0.0,0.0,0.0,0.0,0.0,0.0,0.0,0.0,0.0,0.0,0.0,0.0,0.0,0.0,0.0,0.0,0.3607,0.2588,0.0,0.0,0.0,0.0,0.0,0.0,0.0,0.0,0.0,0.0,0.0,0.0,0.0,0.0,0.0,0.0,0.0,0.0,0.0,0.0,0.0,0.0,0.0,0.0,0.0,0.0,0.0,0.0,0.0,0.0,0.0,0.0,0.0,0.0,0.0,0.0,0.0,0.0,0.0,0.0,0.7107,0.7824,0.8347,0.837,0.8368,0.8241,0.8167,0.7791,0.7569,0.7569,0.706,0.0,0.0,0.0,0.0,0.0,0.0,0.0,0.0,0.0,0.0,0.0,0.0,0.0,0.0,0.0,0.0,0.0,0.0,0.0,0.0,0.0,0.0,0.0,0.0,0.0,0.0,0.0,0.0,0.0,0.0,0.0,0.0,0.0,0.0,0.0,0.0,0.0,0.0,0.0,0.0,0.0,0.0,0.0,0.0,0.0,0.0,0.0,0.0,0.0,0.0,0.0,0.0,0.0,0.617,0.6222,0.6364,0.6344,0.6349,0.6349,0.5964,0.5079,0.3843,0.3822,0.0,0.0,0.0,0.0,0.0,0.0,0.0,0.0,0.0,0.0,0.0,0.0,0.0,0.0,0.0,0.0,0.0,0.0,0.0,0.0,0.0,0.0,0.7789,0.6886,0.659,0.6128,0.4931,0.0,0.0,0.0,0.0,0.0,0.0,0.0,0.0,0.0,0.0,0.0,0.7697,0.8058,0.8241,0.832,0.8248,0.818,0.8002,0.7814,0.7651,0.7604,0.7184,0.6892,0.0,0.0,0.0,0.0,0.0,0.0,0.0,0.0,0.0,0.0,0.0,0.0,0.0,0.0,0.0,0.0,0.0,0.0,0.0,0.0,0.0,0.0,0.0,0.0,0.0,0.0,0.0,0.0,0.0,0.0,0.0,0.0,0.3824,0.4823,0.0,0.0,0.0,0.0,0.0,0.0,0.0,0.0,0.0,0.0,0.0,0.0,0.0,0.5954,0.6984,0.7203,0.777,0.8696,0.8825,0.8897,0.891,0.878,0.8793,0.8903,0.8721,0.0,0.5198,0.499,0.0,0.0,0.0,0.0,0.0,0.0,0.0,0.0,0.0,0.0,0.0,0.0,0.0,0.0,0.0,0.0,0.0,0.0,0.0,0.0,0.0,0.0,0.7988,0.7839,0.7677,0.7511,0.7347,0.5853,0.4549,0.4598,0.4474,0.439,0.0,0.0,0.0,0.0,0.0,0.0,0.7759,0.7963,0.8119,0.8255,0.8147,0.8008,0.7988,0.7955,0.7875,0.7617,0.7516,0.7283,0.6802,0.6751,0.0,0.0,0.0,0.0,0.0,0.0,0.0,0.0,0.0,0.0,0.0,0.0,0.0,0.0,0.0,0.0,0.0,0.0,0.0,0.0,0.0,0.0,0.0,0.0,0.0,0.0,0.0,0.0,0.0,0.4062,0.5101,0.539,0.5417,0.5363,0.0,0.0,0.0,0.0,0.0,0.0,0.0,0.0,0.0,0.7554,0.7698,0.803,0.8608,0.8671,0.8981,0.953,0.9517,0.9551,0.9625,0.9557,0.9564,0.9618,0.9469,0.8807,0.7749,0.6762,0.5554,0.4355,0.0,0.0,0.0,0.0,0.4427,0.4829,0.4788,0.4776,0.4718,0.467,0.0,0.0,0.0,0.0,0.0,0.0,0.0,0.7466,0.7902,0.7988,0.7988,0.7988,0.7941,0.7887,0.7887,0.7137,0.6381,0.6314,0.6214,0.6205,0.6261,0.6425,0.0,0.0,0.0,0.7719,0.7801,0.7894,0.8015,0.8133,0.8029,0.7988,0.7988,0.7914,0.7821,0.7611,0.7516,0.7328,0.6972,0.6966,0.691,0.0,0.0,0.0,0.0,0.0,0.0,0.0,0.0,0.0,0.0,0.0,0.0,0.0,0.0,0.0,0.0,0.0,0.0,0.0,0.0,0.0,0.0,0.0,0.0,0.0,0.0,0.0,0.0,0.5602,0.6405,0.6293,0.6458,0.6481,0.0,0.0,0.0,0.0,0.0,0.0,0.9044,0.8671,0.8781,0.9671,0.9902,0.9981,1.0023,1.0023,1.0058,1.0121,1.0016,0.9995,1.0065,1.0065,1.0004,0.9937,0.9827,0.9698,0.9519,0.83,0.6958,0.5638,0.5645,0.5494,0.5348,0.5321,0.5482,0.5754,0.5725,0.5651,0.5617,0.5575,0.5487,0.5454,0.5374,0.0,0.0,0.0,0.0,0.7982,0.7941,0.7988,0.8106,0.8147,0.8126,0.8106,0.8147,0.8004,0.7828,0.7685,0.7624,0.7611,0.7645,0.7461,0.0,0.7617,0.7685,0.774,0.7801,0.7894,0.7988,0.7988,0.7988,0.7988,0.7988,0.7887,0.7807,0.7665,0.7516,0.736,0.7204,0.7119,0.7074,0.6936,0.0,0.0,0.0,0.0,0.0,0.0,0.0,0.0,0.0,0.0,0.0,0.0,0.0,0.0,0.0,0.0,0.0,0.0,0.0,0.0,0.0,0.0,0.0,0.0,0.0,0.0,0.0,0.0,0.0,0.8667,0.926,0.0,0.0,0.0,0.0,0.9285,0.9712,1.0043,1.0321,1.0435,1.0673,1.0986,1.1009,1.1098,1.1192,1.1192,1.118,1.1031,1.1024,1.0934,1.0725,1.0725,1.0604,1.024,1.0293,1.0035,0.9585,0.9215,0.837,0.7166,0.7051,0.6936,0.6757,0.6643,0.7349,0.8282,0.8148,0.8009,0.7859,0.8049,0.7995,0.7826,0.7819,0.7875,0.0,0.0,0.7874,0.7955,0.7862,0.8038,0.8296,0.8425,0.8357,0.8296,0.8431,0.8235,0.7934,0.7828,0.7692,0.7645,0.778,0.0,0.778,0.7801,0.7874,0.7921,0.7828,0.7894,0.7988,0.7988,0.7988,0.7988,0.7988,0.7982,0.7914,0.7807,0.7665,0.7516,0.7412,0.7217,0.7166,0.736,0.7366,0.0,0.0,0.0,0.0,0.0,0.0,0.0,0.0,0.0,0.0,0.0,0.0,0.0,0.0,0.0,0.0,0.0,0.0,0.0,0.0,0.0,0.0,0.0,0.0,0.0,0.0,0.0,0.0,0.9471,0.9963,0.0,0.9891,1.0062,1.0235,1.0235,1.0539,1.0778,1.0838,1.1101,1.1303,1.1415,1.1528,1.1545,1.1605,1.1396,1.1262,1.1203,1.0986,1.0845,1.0785,1.0785,1.0725,1.0611,1.0611,1.0514,1.0328,1.0112,0.9353,0.8306,0.8167,0.8028,0.7947,0.7897,0.8118,0.8472,0.8425,0.8309,0.8167,0.8024,0.7875,0.7753,0.7753,0.7821,0.7882,0.7828,0.8089,0.8398,0.8245,0.8514,0.8816,0.8708,0.8657,0.8585,0.8484,0.8457,0.8464,0.821,0.7931,0.7753,0.7801,0.7733,0.774,0.788,0.7923,0.7909,0.7901,0.7955,0.7988,0.7988,0.7988,0.7988,0.7988,0.7901,0.7828,0.7685,0.7536,0.738,0.7231,0.7125,0.7125,0.7224,0.7224,0.7251,0.0,0.0,0.0,0.0,0.0,0.0,0.0,0.0,0.0,0.0,0.0,0.0,0.0,0.0,0.0,0.0,0.0,0.0,0.0,0.0,0.0,0.0,0.0,0.0,0.0,0.9084,0.9999,1.0018,1.051,1.0805,1.0667,1.0943,1.1172,1.1058,1.1425,1.1587,1.1587,1.1849,1.2003,1.2003,1.2119,1.2107,1.2107,1.1895,1.1726,1.1609,1.1317,1.1149,1.1156,1.1156,1.1095,1.0974,1.0974,1.0884,1.0696,1.0532,0.9961,0.9279,0.9175,0.9042,0.8948,0.8786,0.8747,0.8781,0.8572,0.8418,0.8289,0.7991,0.7828,0.7746,0.7842,0.7911,0.8042,0.8196,0.8507,0.8802,0.8693,0.8845,0.9048,0.8937,0.8862,0.879,0.865,0.872,0.8726,0.8577,0.8301,0.8126,0.8126,0.8,0.7911,0.811,0.7999,0.7874,0.7975,0.7988,0.7988,0.7988,0.7988,0.7968,0.7921,0.7868,0.7753,0.7611,0.7455,0.7326,0.7224,0.7125,0.7098,0.7098,0.7098,0.7119,0.7217,0.0,0.0,0.0,0.0,0.0,0.0,0.0,0.0,0.0,0.0,0.0,0.0,0.0,0.0,0.0,0.0,0.0,0.0,0.0,0.0,0.0,0.0,0.0,0.9207,0.9869,1.0363,1.0433,1.1084,1.1446,1.1198,1.1734,1.205,1.183,1.2283,1.2637,1.2637,1.2743,1.2774,1.2774,1.2774,1.2774,1.2774,1.2653,1.2475,1.2304,1.2109,1.1939,1.1776,1.1776,1.1647,1.1337,1.1337,1.0996,1.0539,1.0368,1.0211,1.0006,1.0006,0.9902,0.9739,0.9367,0.9294,0.9325,0.8747,0.8531,0.8477,0.8133,0.8038,0.8088,0.8336,0.8435,0.8514,0.8983,0.9137,0.9137,0.9129,0.9137,0.9137,0.9122,0.8944,0.887,0.9084,0.8937,0.8825,0.8825,0.8825,0.8825,0.8825,0.8577,0.8435,0.8435,0.8187,0.0,0.8038,0.8038,0.8038,0.7988,0.7988,0.7977,0.7821,0.7807,0.7746,0.7604,0.7448,0.7412,0.7412,0.7217,0.7098,0.7098,0.7098,0.7217,0.7419,0.0,0.0,0.0,0.0,0.0,0.0,0.0,0.0,0.0,0.0,0.0,0.0,0.0,0.0,0.0,0.0,0.0,0.0,0.0,0.0,0.0,0.8931,0.9435,0.9476,1.019,1.0707,1.097,1.1644,1.2086,1.2099,1.2389,1.2612,1.2498,1.2669,1.2759,1.2759,1.2808,1.2774,1.2774,1.2774,1.2774,1.2774,1.2532,1.2353,1.2304,1.1996,1.1825,1.1776,1.1776,1.1776,1.1647,1.1647,1.1491,1.1189,1.1007,1.0833,1.0675,1.0103,0.9853,0.9809,0.9654,0.9588,0.9446,0.9188,0.9035,0.8904,0.8642,0.8577,0.8577,0.8676,0.8676,0.8763,0.9034,0.9322,0.959,0.9415,0.963,0.9816,0.9511,0.9416,0.9343,0.9191,0.9267,0.9327,0.913,0.9229,0.9278,0.8874,0.8726,0.8676,0.8676,0.8627,0.8577,0.8577,0.8577,0.8528,0.8336,0.8287,0.8174,0.7821,0.7719,0.7597,0.7441,0.7292,0.7204,0.7204,0.7119,0.7098,0.7098,0.7098,0.7217,0.0,0.0,0.0,0.0,0.0,0.0,0.0,0.0,0.0,0.0,0.0,0.0,0.0,0.0,0.0,0.0,0.0,0.0,0.0,0.0,0.0,0.0,0.9607,1.0002,1.0135,1.058,1.1099,1.1615,1.2102,1.2488,1.2594,1.2829,1.2913,1.2774,1.2774,1.2774,1.2774,1.2774,1.2774,1.2774,1.2774,1.2774,1.2774,1.2556,1.2418,1.241,1.2052,1.1882,1.1882,1.1809,1.1776,1.1776,1.1776,1.163,1.1378,1.1265,1.1078,1.0842,0.0,0.0,0.0,0.0,0.9699,0.9472,0.9302,0.916,0.9048,0.8877,0.8825,0.8825,0.8931,0.8981,0.9011,0.933,0.9607,0.9816,0.9713,0.9919,1.0139,0.9803,0.9738,0.9688,0.9538,0.9532,0.9575,0.9385,0.9484,0.0,0.9179,0.9031,0.8981,0.8981,0.8874,0.8825,0.8825,0.8825,0.8726,0.8577,0.8577,0.8463,0.8166,0.7963,0.0,0.0,0.0,0.7231,0.7098,0.7098,0.0,0.0,0.0,0.7339,0.7556,0.7556,0.0,0.0,0.7896,0.788,0.0,0.0,0.0,0.0,0.0,0.0,0.0,0.0,0.0,0.0,0.0,0.0,0.0,0.0,0.0,0.0,1.0084,1.0597,1.1041,1.1099,1.1417,1.2223,1.2504,1.2669,1.279,1.2978,1.3003,1.2782,1.2774,1.2774,1.2774,1.2774,0.0,0.0,0.0,1.2774,1.2774,1.2653,1.2628,1.262,1.2199,1.2028,1.202,1.1857,1.1776,1.1776,1.1776,1.1565,1.1224,1.1224,1.1013,1.0688,1.0688,1.068,1.0647,1.0208,0.9861,0.9519,0.9278,0.0,0.0,0.8927,0.8874,0.8924,0.9179,0.9236,0.9317,0.9785,0.9884,0.9892,0.9908,1.009,1.0163,0.9933,0.9884,0.9884,0.986,0.9738,0.9575,0.9575,0.9575,0.9575,0.9575,0.9385,0.9236,0.9236,0.9031,0.8874,0.8874,0.8874,0.8874,0.8825,0.8825,0.0,0.8609,0.8452,0.8203,0.7858,0.7631,0.7419,0.7146,0.7146,0.7258,0.7439,0.7446,0.7536,0.7814,0.7814,0.7889,0.7988,0.7902,0.7909,0.0,0.0,0.0,0.0,0.0,0.0,0.0,0.0,0.0,0.0,0.0,0.0,0.0,0.0,0.0,0.972,1.0419,1.1077,1.1571,1.1863,1.2142,1.2305,1.26,1.274,1.2774,1.2865,1.2807,1.2774,1.2774,1.2774,1.2774,1.2774,1.2774,1.2774,1.2774,1.2774,1.2774,1.2653,1.2628,1.262,1.2199,0.0,1.202,1.1857,1.1776,1.1776,1.1776,1.1565,1.1224,1.1224,1.1013,1.0688,1.0688,1.0607,1.0423,1.0337,1.0084,0.9828,0.9756,0.9644,0.9474,0.9434,0.9426,0.9476,0.9525,0.9533,0.0,0.9835,0.9884,0.9916,1.0122,1.0188,1.0163,0.9933,0.9884,0.9843,0.9705,0.9648,0.9575,0.9575,0.9575,0.9575,0.9575,0.9575,0.9533,0.9533,0.9476,0.9426,0.9426,0.9426,0.9377,0.913,0.913,0.8962,0.8609,0.8564,0.8379,0.7984,0.7716,0.7562,0.7509,0.7509,0.7522,0.7556,0.7556,0.7638,0.7814,0.7814,0.7889,0.7988,0.7961,0.7961,0.0,0.0,0.0,0.0,0.0,0.0,0.0,0.0,0.0,0.0,0.0,0.8804,0.9103,0.0,0.9698,1.0274,1.092,1.146,1.1952,1.2305,1.2576,1.2576,1.2708,1.2774,1.2774,1.2774,1.2774,1.2774,1.2774,1.2774,1.2774,1.2774,1.2774,1.2774,1.2774,1.2774,1.2774,1.2653,1.2613,1.2694,1.2247,1.2077,1.2158,1.1898,1.1776,1.1776,1.1776,1.1565,1.1208,1.1029,1.085,1.0688,1.0688,1.0639,1.055,1.0415,1.0257,1.0065,0.9916,0.977,0.9575,0.9575,0.9575,0.9575,0.9575,0.9575,0.9648,0.973,0.9754,0.9795,0.9973,1.0147,1.0188,1.0046,1.0073,0.9973,0.9795,0.9689,0.9575,0.9575,0.9575,0.9575,0.9575,0.9575,0.9575,0.9575,0.9575,0.9575,0.9575,0.9575,0.9525,0.9434,0.9385,0.9296,0.9112,0.8929,0.8615,0.8168,0.7926,0.7738,0.7597,0.7597,0.7631,0.7706,0.7706,0.778,0.7874,0.7874,0.7914,0.7988,0.7988,0.7988,0.0,0.0,0.0,0.0,0.0,0.0,0.0,0.0,0.8655,0.8811,0.9182,0.9468,0.9637,0.9933,1.0325,1.0791,1.1293,1.1758,1.2157,1.2576,1.2774,1.2774,1.2774,1.2774,1.2774,1.2774,1.2774,1.2774,1.2774,1.2774,1.2774,1.2774,1.2774,1.2774,1.2774,1.2774,1.2774,1.2653,1.2637,1.2775,1.2209,1.2109,1.2239,1.1922,1.1776,1.1776,1.1703,1.1484,1.1151,1.0826,1.0688,1.0688,1.0688,1.0688,1.0672,1.0447,1.0298,1.0139,0.9933,0.977,0.9575,0.9575,0.9575,0.9575,0.9575,0.9575,0.9575,0.9575,0.9648,0.9721,0.9892,1.0079,1.0209,1.022,1.0212,1.0155,0.9884,0.973,0.9575,0.9575,0.9575,0.9575,0.9575,0.9575,0.9575,0.9575,0.9575,0.9575,0.9575,0.9575,0.9575,0.9575,0.9575,0.9575,0.9575,0.925,0.8868,0.8492,0.8295,0.8058,0.7828,0.778,0.7787,0.7903,0.7855,0.7916,0.7988,0.7988,0.7988,0.7988,0.7988,0.7988,0.894,0.8811,0.8723,0.8676,0.8676,0.8784,0.0,0.0,0.918,0.9273,1.0396,1.104,1.0002,1.1056,1.176,1.0711,1.1257,1.1828,1.1843,1.2371,1.2774,1.2774,1.2774,1.2774,1.2774,1.2774,1.2774,1.2774,1.2774,1.2774,1.2774,1.2774,1.2774,1.2774,1.2774,1.2774,1.2774,1.2653,1.2637,1.2588,1.2215,1.2036,1.2052,1.1866,1.1776,1.176,1.1427,1.1175,1.098,1.0777,1.0688,1.0688,1.0688,1.0688,1.0672,1.0447,1.0217,0.9908,0.9892,0.977,0.9575,0.9575,0.9575,0.9575,0.9575,0.9575,0.9575,0.9575,0.9738,0.99,1.0131,1.0266,1.0363,1.0253,1.0212,1.0122,0.973,0.964,0.9575,0.9575,0.9575,0.9575,0.9575,0.9575,0.9575,0.9575,0.9575,0.9575,0.9575,0.9575,0.9575,0.9575,0.9575,0.9575,0.9575,0.9361,0.9148,0.9083,0.8871,0.8723,0.8674,0.8428,0.8336,0.8358,0.811,0.7975,0.7988,0.7988,0.7988,0.7988,0.7988,0.7988,0.9047,0.8893,0.873,0.8818,0.8906,0.9015,0.9262,0.9323,0.9327,0.9483,1.0172,1.0569,1.0184,1.0756,1.1213,0.0,1.1205,1.1578,1.2041,1.2305,1.2537,1.2694,1.2775,1.2774,1.2774,1.2774,1.2774,1.2774,1.2774,1.2774,1.2774,1.2774,1.2774,1.2774,1.2774,1.2774,1.2774,1.2653,1.2628,1.262,1.2199,1.2028,1.202,1.1857,1.1776,1.1752,1.1386,1.1183,1.1094,1.081,1.0688,1.068,1.0582,1.0607,1.068,1.0607,1.0355,1.0046,1.0046,0.986,0.9575,0.9575,0.9575,0.9599,0.9746,0.9778,0.9803,0.9908,0.9989,1.0087,1.0274,1.0298,1.0257,1.0237,1.0131,0.9933,0.9681,0.9575,0.9575,0.9575,0.9575,0.9575,0.9575,0.9575,0.9575,0.9575,0.9575,0.9575,0.9575,0.9575,0.9575,0.9575,0.9575,0.9575,0.9575,0.9484,0.9385,0.9187,0.908,0.8981,0.8825,0.8676,0.8577,0.8379,0.8287,0.8137,0.7988,0.7988,0.7988,0.7988,0.7988,0.7988,0.9006,0.8906,0.8818,0.9015,0.9198,0.9347,0.9388,0.9517,0.9659,0.9774,1.0265,1.058,1.032,1.0713,1.1041,1.103,1.1087,1.1446,1.2041,1.22,1.2319,1.258,1.2637,1.271,1.2759,1.2808,1.2774,1.2774,1.2774,1.2774,1.2774,1.2774,1.2774,1.2774,1.2774,1.2774,1.2774,1.2653,1.254,1.2491,1.2174,1.2004,1.1955,1.1833,1.1752,1.1687,1.1362,1.1191,1.1126,1.0818,1.0688,1.068,1.0558,1.0582,1.0688,1.0688,1.0501,1.0233,1.0228,0.9957,0.9697,0.9697,0.9697,0.973,0.9908,0.9965,0.9989,1.018,1.0253,1.0257,1.0339,1.0339,1.0326,1.0171,1.0073,0.99,0.9673,0.9575,0.9575,0.9575,0.9665,0.9681,0.9583,0.9665,0.9681,0.9583,0.9575,0.9575,0.9575,0.9575,0.9575,0.9575,0.9575,0.9575,0.9575,0.9575,0.9525,0.9335,0.9335,0.9229,0.9023,0.8924,0.8825,0.8634,0.8485,0.8287,0.8088,0.8038,0.7988,0.7988,0.7988,0.7988,0.8615,0.8825,0.8946,0.9293,0.9585,0.9842,0.9923,1.0141,1.0256,1.0256,1.1389,1.1894,1.0531,1.1539,1.2097,1.0753,1.0885,1.1314,1.1784,1.1896,1.2177,1.2564,1.2418,1.2385,1.262,1.2735,1.2774,1.2774,1.2774,1.2774,1.2774,1.2774,1.2774,1.2774,1.2774,1.2774,1.2774,1.2653,1.2483,1.2312,1.2117,1.1947,1.1784,1.1776,1.1679,1.15,1.1305,1.1126,1.0964,1.0769,1.0688,1.0688,1.0688,1.0688,1.0688,1.0688,1.0582,1.0404,1.0277,1.0038,0.9876,0.9876,0.9876,0.9908,1.0147,1.0204,1.0204,1.0212,1.029,1.0387,1.0217,1.042,1.0542,1.0022,1.0022,1.0054,0.9705,0.9575,0.9575,0.9575,0.9762,0.9827,0.9657,0.977,0.9819,0.9657,0.9575,0.9575,0.9575,0.9575,0.9575,0.9575,0.9575,0.9575,0.9575,0.9575,0.9575,0.9575,0.9575,0.9575,0.9575,0.9335,0.9187,0.9187,0.8684,0.8379,0.8379,0.8137,0.7988,0.7988,0.7988,0.7988,0.8677,0.9004,0.9327,0.9727,0.9835,0.995,1.0168,1.0243,1.0249,1.0148,1.0496,1.0648,1.0053,1.0468,1.0735,1.0395,1.0538,1.083,1.1221,1.1592,1.19,1.1878,1.2242,1.241,1.2223,1.2483,1.271,1.2766,1.2774,1.2774,1.2774,1.2774,1.2774,1.2774,1.2774,1.2775,1.2653,1.2596,1.2418,1.2117,1.1947,1.1833,1.1776,1.1776,1.1744,1.1671,1.1484,1.1305,1.1126,1.0948,1.0802,1.068,1.0566,1.059,1.068,1.0566,1.0558,1.0582,1.0404,1.0225,1.0122,1.0122,1.0122,1.0155,1.029,1.0339,1.0363,1.0485,1.0558,1.059,1.0526,1.0517,1.0444,1.0144,1.0073,0.9916,0.9681,0.9575,0.9575,0.9575,0.977,0.9827,0.9657,0.977,0.9827,0.9657,0.9575,0.9575,0.9575,0.9575,0.9575,0.9575,0.9575,0.9575,0.9575,0.9575,0.9575,0.9575,0.9575,0.9575,0.9575,0.9525,0.9385,0.9187,0.9031,0.8733,0.8379,0.8336,0.8187,0.7988,0.7988,0.7988,0.8775,0.913,0.9467,1.0031,1.0209,1.0249,1.0399,1.0392,1.031,1.0161,0.9984,0.9862,0.9774,0.9829,0.9924,1.0025,1.0161,1.0417,1.0849,1.1241,1.1502,1.1673,1.2123,1.2337,0.0,1.2377,1.2548,1.2726,1.28,1.2774,1.2774,1.2774,1.2774,1.2774,1.2774,1.2783,1.2661,1.2596,1.2385,1.2028,1.1857,1.1776,1.1776,1.1776,1.1776,1.176,1.1508,1.133,1.12,1.0972,1.0802,1.068,1.0566,1.059,1.068,1.0566,1.0599,1.0664,1.0493,1.0355,1.0257,1.0257,1.0257,1.029,1.0469,1.0526,1.055,1.0664,1.0688,1.068,1.0615,1.0566,1.0469,1.0277,1.0119,1.003,0.986,0.9819,0.9819,0.9819,0.9957,1.0022,0.9851,0.9908,0.99,0.9665,0.9681,0.9697,0.9583,0.9575,0.9575,0.9575,0.9575,0.9575,0.9575,0.9575,0.9575,0.9575,0.9575,0.9575,0.9575,0.9575,0.9533,0.9335,0.913,0.8882,0.8528,0.8336,0.8187,0.7988,0.7988,0.7988,0.8828,0.9191,0.9464,1.0263,1.05,1.0541,1.0677,1.0588,1.0439,1.029,1.0005,0.9747,0.0,0.0,0.9591,0.9605,0.9741,1.0067,1.0679,1.0783,1.1071,0.0,0.0,0.0,0.0,0.0,1.2385,1.2612,1.2726,1.2758,1.2774,1.2774,1.2774,1.2774,1.2766,1.275,1.2742,1.2621,1.2353,1.2012,1.1849,1.1776,1.1776,1.1776,1.1776,1.1744,1.1386,1.1224,1.1183,1.0842,1.0704,1.0688,1.0688,1.0688,1.0688,1.0688,1.0688,1.0664,1.0493,1.0391,1.0391,1.0391,1.0391,1.0423,1.0631,1.0688,1.0688,1.068,1.0688,1.0655,1.0439,1.0566,1.0607,1.031,1.0306,1.0387,1.0253,1.0212,1.0212,1.0212,1.029,1.0355,1.0245,1.0196,1.0022,0.9681,0.977,0.9811,0.9648,0.9575,0.9575,0.9575,0.9575,0.9575,0.9575,0.9575,0.9575,0.9575,0.9575,0.9575,0.9575,0.9575,0.9575,0.9575,0.908,0.8825,0.8775,0.8287,0.7988,0.7988,0.7988,0.7988,0.8628,0.9054,0.9543,1.0149,1.0267,1.0313,1.0503,1.0439,1.0256,0.9992,0.9612,0.9371,0.0,0.0,0.0,0.9571,0.9917,0.0,1.0397,1.0784,0.0,1.143,0.0,1.2091,1.2377,1.245,1.2515,1.262,1.2605,1.2694,1.2766,1.2774,1.2774,1.2774,1.2702,1.2572,1.2442,1.2134,1.1931,1.1841,1.1801,1.1776,1.1776,1.1776,1.1703,1.1565,1.1468,1.1281,1.1029,1.0932,1.0818,1.0688,1.0688,1.0688,1.0688,1.0688,1.0688,1.0664,1.0493,1.0517,1.0623,1.0623,1.0623,1.0607,1.0526,1.059,1.0664,1.0534,1.059,1.068,1.0639,1.0664,1.0639,1.042,1.0404,1.0387,1.0253,1.0212,1.0212,1.0212,1.0087,1.0054,1.0196,0.9941,0.973,0.9591,0.9665,0.9681,0.9583,0.9575,0.9575,0.9575,0.9575,0.9575,0.9575,0.9575,0.9575,0.9575,0.9575,0.9575,0.9575,0.9575,0.9575,0.9575,0.9278,0.8981,0.8775,0.8478,0.8187,0.7988,0.7988,0.7988,0.8666,0.8992,0.936,0.9842,1.0075,1.0123,1.0168,1.0102,0.9992,0.9693,0.9374,0.0,0.9069,0.9166,0.9268,0.0,0.0,0.0,1.0161,1.0572,1.0948,0.0,1.1709,0.0,1.2282,1.2491,1.2596,1.2678,1.2686,1.2726,1.2832,1.2774,1.2774,1.2774,1.2661,1.2442,1.219,1.1987,1.1849,1.1776,1.1776,1.1776,1.1776,1.1695,1.1598,1.1484,1.1248,1.1078,1.1012,1.0802,1.072,1.0688,1.0688,1.0688,1.0688,1.0688,1.0647,1.0566,1.0415,1.0444,1.0461,1.0461,1.0461,1.0444,1.0347,1.0436,1.0558,1.0407,1.0558,1.0688,1.0688,1.0688,1.0672,1.0566,1.055,1.0517,1.042,1.0396,1.0371,1.0298,1.0257,1.0201,1.0114,1.0006,0.9849,0.9615,0.9689,0.9713,0.9591,0.9575,0.9575,0.9575,0.9575,0.9575,0.9575,0.9575,0.9575,0.9575,0.9575,0.9575,0.9575,0.9575,0.9525,0.9434,0.9286,0.9031,0.8627,0.8478,0.8287,0.7988,0.7988,0.7988,0.8753,0.8981,0.9117,0.9504,0.9742,0.9793,0.9653,0.9669,0.964,0.9388,0.0,0.9035,0.8898,0.9022,0.9173,0.9228,0.0,0.9741,0.9977,1.0281,1.0693,1.1103,1.1547,1.1972,1.2258,1.2458,1.2637,1.2758,1.2774,1.2774,1.2774,1.2774,1.275,1.2767,1.2613,1.2361,1.2004,1.1996,1.1922,1.1776,1.1752,1.1744,1.1736,1.1549,1.1451,1.1403,1.0932,1.081,1.0907,1.0599,1.0558,1.0688,1.0688,1.068,1.0664,1.068,1.0582,1.0383,1.0383,1.0331,1.0253,1.0253,1.0237,1.0212,1.0212,1.029,1.0375,1.0404,1.0542,1.0688,1.0688,1.0688,1.0688,1.0688,1.0688,1.0688,1.0688,1.0688,1.0639,1.0415,1.0534,1.0469,0.9973,1.0076,1.0064,0.9598,0.9704,0.9744,0.9549,0.9583,0.9575,0.9575,0.9575,0.9575,0.9575,0.9575,0.9575,0.9575,0.9575,0.9575,0.9575,0.9575,0.9484,0.9236,0.9187,0.8931,0.8428,0.8379,0.8237,0.7988,0.7988,0.7988,0.8716,0.8784,0.8762,0.8996,0.9086,0.9138,0.9159,0.9194,0.0,0.0,0.8791,0.8669,0.8844,0.8859,0.8906,0.9279,0.0,0.0,0.0,0.0,1.064,0.0,1.1092,1.1408,1.2087,1.2193,0.0,1.2758,1.2774,1.2774,1.2774,1.2774,1.2637,1.241,1.2369,1.2182,1.1825,1.1817,1.1809,1.1776,1.1622,1.1549,1.1541,1.1354,1.1191,1.1053,1.0964,1.085,1.0737,1.0672,1.0664,1.0688,1.0688,1.0607,1.0439,1.0639,1.0582,1.0383,1.0383,1.0358,1.0387,1.0387,1.0282,1.0212,1.0212,1.029,1.0404,1.0249,1.0444,1.0688,1.0688,1.0688,1.0688,1.0688,1.0688,1.0688,1.0688,1.0688,1.0639,1.0415,1.0339,1.0176,0.9925,0.9617,0.9388,0.9301,0.9309,0.9317,0.9286,0.9476,0.9575,0.9575,0.9575,0.9575,0.9575,0.9575,0.9575,0.9575,0.9575,0.9575,0.9575,0.9575,0.9583,0.9533,0.908,0.8825,0.8726,0.8287,0.8038,0.7988,0.7988,0.7988,0.872,0.8682,0.8629,0.8639,0.864,0.8695,0.8618,0.0,0.0,0.0,0.8649,0.8669,0.8844,0.8824,0.0,0.0,0.0,0.0,0.0,0.0,0.0,0.0,0.0,1.102,0.0,1.18,1.2208,1.2425,1.2652,1.2774,1.2774,1.2774,1.271,1.245,1.2353,1.2182,1.1914,1.1817,1.1776,1.1776,1.1687,1.1646,1.163,1.1354,1.1175,1.1086,1.081,1.0688,1.0688,1.0599,1.0607,1.0688,1.0688,1.059,1.0391,1.0526,1.0444,1.029,1.029,1.029,1.0306,1.0404,1.0241,1.0038,1.0188,1.0225,1.0298,1.0306,1.0493,1.0688,1.0688,1.0688,1.0688,1.0688,1.0688,1.0688,1.0688,1.0688,1.0615,1.0347,1.0298,1.0184,0.9819,0.9654,0.948,0.9252,0.9187,0.9187,0.9187,0.9335,0.9434,0.9575,0.9575,0.9575,0.9575,0.9575,0.9575,0.9575,0.9575,0.9575,0.9575,0.9575,0.9533,0.9385,0.9278,0.9023,0.8577,0.8478,0.8287,0.7988,0.7988,0.7988,0.8736,0.8682,0.8552,0.8416,0.8406,0.8346,0.8105,0.828,0.0,0.0,0.8473,0.8602,0.8804,0.0,0.8906,0.0,0.9354,0.0,0.0,0.0,0.0,0.0,0.0,0.0,1.0735,1.1389,0.0,1.1975,1.2408,1.2708,1.2774,1.2774,1.2751,1.2572,1.2393,1.2215,1.1966,1.1857,1.1776,1.1776,1.1695,1.1654,1.1646,1.1273,1.111,1.1086,1.0672,1.0566,1.068,1.055,1.0566,1.0688,1.0688,1.059,1.0383,1.0477,1.0371,1.0225,1.0318,1.0326,1.0298,1.0444,1.0241,0.9981,1.0212,1.0217,1.0249,1.0396,1.0558,1.0688,1.0688,1.0688,1.0688,1.0688,1.0688,1.0688,1.0688,1.0688,1.0599,1.0282,1.0306,1.0189,0.9718,0.9668,0.9598,0.9261,0.9245,0.923,0.9241,0.9333,0.9424,0.9583,0.9575,0.9575,0.9575,0.9575,0.9575,0.9575,0.9575,0.9575,0.9575,0.9575,0.9476,0.9286,0.9377,0.913,0.8478,0.8577,0.8435,0.7988,0.7988,0.7988,0.8736,0.8682,0.8535,0.8307,0.8149,0.806,0.7771,0.0,0.0,0.8028,0.8038,0.8183,0.8649,0.8615,0.8662,0.9139,0.0,0.934,0.0,0.0,0.0,0.0,0.0,0.0,1.0571,1.0776,1.1119,1.158,1.208,1.2503,1.2766,1.2774,1.2751,1.2572,1.2393,1.2215,1.1966,1.1857,1.1776,1.1776,1.1435,1.1273,1.1256,1.0907,1.0745,1.0737,1.0688,1.068,1.0688,1.0672,1.068,1.0688,1.0688,1.059,1.0399,1.0607,1.0558,1.0428,1.059,1.0639,1.0647,1.0664,1.0428,1.022,1.0355,1.0358,1.0358,1.0375,1.0558,1.0688,1.0688,1.0688,1.0688,1.0688,1.0688,1.0688,1.0688,1.0688,1.0639,1.0444,1.029,1.0116,0.9756,0.9425,0.9174,0.9265,0.9287,0.9331,0.9478,0.9657,0.9752,0.9599,0.9575,0.9575,0.9575,0.9575,0.9575,0.9575,0.9575,0.9575,0.9575,0.9575,0.9575,0.9575,0.9122,0.8825,0.8775,0.8287,0.8038,0.7988,0.7988,0.7988,0.8736,0.8736,0.8622,0.8312,0.8089,0.7917,0.7641,0.0,0.7744,0.7974,0.8091,0.8293,0.8763,0.8723,0.871,0.8981,0.0,0.0,0.0,0.0,0.0,0.0,0.0,0.0,0.0,0.0,1.1113,1.1665,1.1871,1.2061,1.2287,1.2644,1.2751,1.2572,1.2393,1.2215,1.1966,1.1857,1.1776,1.1776,1.163,1.1557,1.1541,1.1175,1.1013,1.0997,1.0785,1.0688,1.0688,1.0688,1.0688,1.0688,1.0688,1.059,1.0391,1.0509,1.0493,1.0391,1.0517,1.0607,1.0672,1.0574,1.0509,1.0493,1.0566,1.0517,1.0461,1.0558,1.0639,1.0688,1.0688,1.0688,1.0688,1.0688,1.0688,1.0688,1.0688,1.0688,1.0639,1.0415,1.0211,1.0018,0.9758,0.9428,0.9198,0.9063,0.907,0.9116,0.9254,0.9333,0.9466,0.9599,0.9575,0.9575,0.9575,0.9575,0.9575,0.9575,0.9575,0.9575,0.9575,0.9434,0.9385,0.9385,0.8981,0.8726,0.8577,0.8329,0.8137,0.7988,0.7988,0.7988,0.86,0.8666,0.8638,0.8318,0.8051,0.7807,0.0,0.0,0.7537,0.7773,0.8022,0.8243,0.8573,0.8642,0.8743,0.8797,0.0,0.8988,0.9187,0.0,0.0,0.0,0.0,0.9808,1.0114,1.0607,1.1055,1.1498,1.1622,1.1702,1.1862,1.2295,1.254,1.2491,1.232,1.2158,1.1966,1.1857,1.1776,1.1776,1.1719,1.1695,1.1687,1.1313,1.1151,1.1126,1.0826,1.0688,1.0688,1.0688,1.0688,1.0688,1.0688,1.0615,1.0509,1.0509,1.0509,1.0509,1.0509,1.0558,1.0607,1.0534,1.0558,1.0623,1.068,1.0607,1.0534,1.0655,1.0688,1.0688,1.0688,1.0688,1.0688,1.0688,1.0688,1.0688,1.0688,1.0688,1.0655,1.0534,1.0246,0.9915,0.9747,0.9482,0.9202,0.9041,0.9055,0.9082,0.9286,0.9345,0.9445,0.968,0.9754,0.9746,0.9583,0.9575,0.9575,0.9575,0.9575,0.9575,0.9575,0.9335,0.9187,0.9187,0.8882,0.8577,0.8379,0.8336,0.8187,0.7988,0.7988,0.7988,0.8274,0.841,0.853,0.8296,0.8051,0.7807,0.0,0.0,0.7232,0.7388,0.7624,0.7851,0.7986,0.8395,0.871,0.871,0.8838,0.0,0.9187,0.0,0.0,0.0,0.0,0.9503,0.9795,1.0229,1.0623,1.1012,1.1155,1.1308,1.1603,1.1854,1.2098,1.2312,1.2134,1.1966,1.2028,1.1857,1.1776,1.1776,1.1589,1.15,1.1492,1.1135,1.1028,1.102,1.0769,1.0688,1.0688,1.0688,1.0688,1.0688,1.0688,1.0688,1.0688,1.0688,1.0688,1.0688,1.0688,1.0582,1.0469,1.0631,1.0574,1.0415,1.0639,1.0688,1.0688,1.0688,1.0688,1.0688,1.0688,1.0688,1.0688,1.0688,1.0688,1.0688,1.0688,1.0688,1.0688,1.0688,1.0325,0.9939,0.9834,0.9403,0.919,0.9347,0.9375,0.9479,0.9677,0.9883,0.9957,0.9916,1.0046,1.0014,0.9657,0.9575,0.9575,0.9575,0.9575,0.9575,0.9575,0.9335,0.9187,0.9187,0.8684,0.8379,0.8379,0.8137,0.7988,0.7988,0.7988,0.7988,0.8144,0.8225,0.8269,0.7948,0.7747,0.7589,0.7432,0.0,0.7254,0.7497,0.7761,0.8023,0.8307,0.8613,0.8811,0.8811,0.8851,0.0,0.0,0.0,0.0,0.9639,0.9951,1.0175,0.0,1.0405,1.0599,1.0767,1.0822,1.0979,1.1149,1.1362,1.1545,1.1752,1.1937,1.1971,1.1857,1.1801,1.1776,1.1776,1.1589,1.15,1.1484,1.1126,1.1028,1.1012,1.0769,1.0688,1.068,1.0566,1.0582,1.068,1.0558,1.059,1.0688,1.0688,1.0688,1.0688,1.0688,1.0655,1.0599,1.0542,1.0558,1.0599,1.0534,1.0599,1.0688,1.0688,1.0688,1.0688,1.0688,1.0688,1.0688,1.0688,1.0688,1.0688,1.0688,1.0688,1.0633,1.0476,1.01,0.9811,0.9588,0.923,0.8989,0.9044,0.9051,0.9194,0.9518,0.964,0.98,1.0051,0.9972,0.9904,1.0006,0.9989,0.9989,0.9989,0.9876,0.9702,0.9551,0.9256,0.9002,0.8634,0.8442,0.824,0.8137,0.8038,0.7988,0.7988,0.7988,0.7988,0.0,0.804,0.8095,0.778,0.7611,0.0,0.0,0.0,0.7265,0.7438,0.766,0.7907,0.8131,0.8429,0.8668,0.8723,0.8811,0.0,0.0,0.0,0.0,0.9693,0.0,0.0,1.0324,1.048,1.0595,1.0629,1.0683,1.0715,1.0825,1.0927,1.1154,1.1294,1.1717,1.1882,1.1776,1.1776,1.1776,1.1776,1.1589,1.15,1.1492,1.12,1.1029,1.0964,1.085,1.0753,0.0,1.0574,1.0599,1.068,1.0574,1.0599,1.0688,1.0688,1.0688,1.068,1.0615,1.0599,1.0574,1.0415,1.055,1.0672,1.0566,1.0607,1.0688,1.0688,1.0688,1.0688,1.0688,1.0688,1.0688,1.0688,1.0688,1.0688,1.0688,1.0641,1.0476,1.0312,0.9926,0.9596,0.943,0.9106,0.8885,0.8885,0.8885,0.8989,0.9316,0.9507,0.97,0.9912,0.9951,0.9937,1.0044,1.0031,1.0004,1.0004,1.0003,0.9887,0.9579,0.9322,0.8969,0.8613,0.8401,0.8221,0.8126,0.8126,0.8153,0.8208,0.8208,0.8208,0.0,0.7861,0.8032,0.7736,0.7589,0.7475,0.7293,0.0,0.0,0.0,0.7426,0.7578,0.7618,0.7981,0.8334,0.848,0.0,0.0,0.0,0.9089,0.0,0.0,0.989,1.0011,0.999,1.0439,1.0636,1.0514,1.0629,1.0649,1.0514,1.0685,1.0847,1.0999,1.1508,1.1776,1.1776,1.1776,1.1776,1.1776,1.1589,1.1492,1.1476,1.1289,1.111,1.1004,1.1004,1.085,1.0688,1.068,1.068,1.0688,1.068,1.0625,1.0633,1.0633,1.0633,1.0617,1.0455,1.0399,1.0399,1.0399,1.055,1.068,1.0688,1.0688,1.0688,1.0688,1.0688,1.0688,1.0688,1.0688,1.0688,1.0688,1.0688,1.0696,1.0696,1.0484,1.0272,1.0272,0.9791,0.9411,0.9411,0.9127,0.8898,0.8898,0.8892,0.8941,0.9122,0.9501,0.9702,0.9539,0.9937,1.0091,0.9816,0.9747,0.9729,0.9729,0.9975,1.002,0.9661,0.9399,0.9129,0.886,0.8512,0.834,0.834,0.834,0.835,0.8479,0.8479,0.8479,0.7731,0.0,0.7725,0.7481,0.7342,0.7345,0.0,0.0,0.0,0.0,0.0,0.0,0.0,0.0,0.0,0.0,0.0,0.0,0.8865,0.0,0.0,0.9612,1.0073,1.0297,1.0011,1.0249,1.046,1.0649,1.0595,1.0582,1.0663,1.0741,1.0897,1.1169,1.1318,1.1526,1.1776,1.1776,1.1776,1.1776,1.1589,1.1427,1.1281,1.111,1.0932,1.0761,1.0761,1.0729,1.068,1.055,1.0466,1.0406,1.0209,1.0078,1.0036,1.0036,1.0036,1.0029,1.0265,1.0304,1.0358,1.0577,1.0566,1.0517,1.0647,1.0688,1.0688,1.0688,1.0688,1.0688,1.0688,1.0688,1.0688,1.0688,1.0531,1.0366,1.0366,1.0191,1.0003,0.9827,0.9759,0.9617,0.9451,0.9234,0.9103,0.9103,0.9008,0.8982,0.927,0.9409,0.9526,0.9702,0.9684,0.9596,0.9485,0.9687,0.9751,0.9751,0.9685,0.9564,0.935,0.919,0.8973,0.8591,0.8504,0.8431,0.8431,0.8431,0.8452,0.8479,0.8479,0.8479,0.7614,0.7698,0.7573,0.7325,0.7296,0.7236,0.7226,0.0,0.0,0.0,0.0,0.0,0.0,0.0,0.0,0.0,0.8655,0.0,0.0,0.0,0.9591,0.9788,1.0093,1.031,1.0287,1.0432,1.0548,1.0711,1.0643,1.0602,1.0616,1.0591,1.0686,1.0866,1.0988,1.1337,1.1776,1.1776,1.1776,1.1776,1.1589,1.1443,1.1346,1.1256,1.107,1.0826,1.0899,1.0842,1.0688,1.0427,1.0334,1.0249,0.9984,0.9843,0.9816,0.9816,0.9816,0.9801,0.989,0.9869,0.9939,1.0366,1.0357,1.0299,1.0585,1.0688,1.0688,1.0688,1.0688,1.0688,1.0688,1.0688,1.0688,1.0688,1.054,1.0373,1.0373,1.0111,0.9888,0.971,0.9666,0.9555,0.9439,0.9313,0.9316,0.9316,0.913,0.9091,0.9259,0.9369,0.9382,0.9375,0.9375,0.932,0.9161,0.932,0.943,0.9596,0.9618,0.9519,0.9301,0.9247,0.9014,0.8587,0.8587,0.8587,0.8587,0.8587,0.8621,0.8689,0.8689,0.8689,0.723,0.7368,0.7238,0.7352,0.7285,0.7237,0.7237,0.0,0.0,0.0,0.0,0.0,0.0,0.7493,0.0,0.0,0.0,0.0,0.9268,0.933,0.9476,0.993,1.0044,1.0213,1.0588,1.0636,1.0663,1.0683,1.0643,1.0582,1.0493,1.0337,1.0307,1.0488,1.0691,1.1095,1.1716,1.1776,1.1776,1.1776,1.1614,1.1508,1.1459,1.1484,1.1289,1.094,1.1053,1.094,1.0641,1.0366,1.0202,1.0147,0.9871,0.9706,0.9651,0.9651,0.9651,0.9629,0.9544,0.9442,0.9414,1.0046,1.0132,1.0077,1.053,1.0696,1.0688,1.0633,1.0696,1.0696,1.0729,1.0737,1.0737,1.0682,1.0572,1.0401,1.0344,1.0017,0.9729,0.9757,0.9603,0.9449,0.9449,0.9429,0.9415,0.9415,0.9344,0.9234,0.9214,0.9328,0.9238,0.894,0.9161,0.9217,0.894,0.8885,0.8995,0.9327,0.9541,0.9541,0.932,0.9327,0.9154,0.875,0.8743,0.8743,0.8743,0.8743,0.8811,0.8885,0.8885,0.8885,0.573,0.5953,0.6071,0.7359,0.7475,0.7307,0.7307,0.0,0.0,0.0,0.0,0.0,0.0,0.7385,0.7529,0.0,0.0,0.9232,0.0,0.0,0.9883,0.9977,1.0321,1.0429,1.0118,1.027,1.0399,1.0521,1.0297,1.0249,1.048,1.0236,1.0198,1.0481,1.0691,1.0974,1.1398,1.1647,1.1776,1.1776,1.1744,1.1573,1.1273,1.1427,1.1216,1.0745,1.0651,1.0499,1.0366,1.0036,0.9761,0.9541,0.9485,0.9272,0.9051,0.9051,0.9051,0.9099,0.9347,0.945,0.9502,0.9804,0.9915,1.0023,1.0311,1.0531,1.0633,1.0421,1.0531,1.0729,1.0883,1.0923,1.0867,1.0587,1.0321,1.0055,0.9772,0.9617,0.9473,0.961,0.9673,0.9754,0.9754,0.9652,0.9571,0.9571,0.9442,0.9357,0.9228,0.9243,0.9132,0.8954,0.894,0.894,0.8885,0.8885,0.894,0.8995,0.8995,0.8995,0.8995,0.8995,0.8927,0.8851,0.8851,0.8851,0.8851,0.8851,0.8858,0.8885,0.8885,0.8885,0.4391,0.4579,0.4836,0.6232,0.6863,0.7149,0.7149,0.7062,0.0,0.0,0.0,0.0,0.0,0.0,0.7808,0.8571,0.0,0.9469,0.968,0.9836,0.9985,1.0154,1.0283,1.0307,1.0341,1.0331,1.0337,1.048,1.0297,1.0195,1.0249,1.0058,1.0012,1.0115,1.0587,1.0853,1.1027,1.1526,1.1776,1.1776,1.1776,1.163,1.1378,1.1459,1.1141,1.0564,1.0539,1.0308,1.0036,0.9706,0.9485,0.9375,0.9217,0.9051,0.8885,0.8885,0.8885,0.894,0.9106,0.9112,0.9108,0.949,0.9595,0.9646,0.9928,1.0147,1.0202,1.0036,1.0257,1.0516,1.0699,1.0739,1.0706,1.063,1.0429,1.0207,0.9917,0.9686,0.9639,0.9707,0.9774,0.9822,0.9822,0.9768,0.9727,0.9727,0.9598,0.9483,0.9408,0.9327,0.9218,0.9069,0.9055,0.9022,0.8892,0.8885,0.8885,0.8885,0.8885,0.8885,0.8885,0.8885,0.8885,0.8885,0.8885,0.8885,0.8885,0.8885,0.8885,0.8885,0.8885,0.8885,0.3094,0.3478,0.3901,0.5226,0.6318,0.7008,0.7089,0.7046,0.0,0.0,0.0,0.0,0.0,0.755,0.0,0.8717,0.9301,0.9686,0.9754,0.989,1.0066,1.0304,1.0222,1.0263,1.0534,1.0358,1.027,1.0378,1.0256,1.0134,0.999,0.9957,0.9883,0.9822,1.0368,1.0732,1.0785,1.1405,1.1716,1.1776,1.1776,1.1654,1.1435,1.1524,1.1147,1.0459,1.0432,1.0171,0.9706,0.9382,0.9265,0.9272,0.8995,0.8885,0.8885,0.8885,0.8885,0.8885,0.8885,0.8804,0.8784,0.9175,0.9242,0.9327,0.9614,0.9816,0.9926,0.9816,1.0067,1.0358,1.0529,1.055,1.0555,1.0678,1.0516,1.0317,0.9961,0.9813,0.9781,0.9815,0.9822,0.9822,0.9822,0.9822,0.9822,0.9822,0.9727,0.9646,0.9612,0.951,0.9361,0.9228,0.9207,0.9096,0.8898,0.8885,0.8885,0.8885,0.8885,0.8885,0.8885,0.8885,0.8885,0.8885,0.8885,0.8885,0.8885,0.8885,0.8885,0.8885,0.8885,0.8885,0.161,0.2748,0.3866,0.4985,0.61,0.7073,0.7404,0.7225,0.0,0.741,0.0,0.0,0.0,0.784,0.8292,0.8479,0.9261,0.9903,1.0195,1.0351,1.0453,1.0473,1.0466,1.0365,1.0058,1.0017,1.0011,1.0017,0.9937,0.991,0.9977,0.9856,0.9829,0.9822,1.0126,1.0482,1.0785,1.1148,1.1458,1.1776,1.1776,1.1589,1.1256,1.1598,1.1261,1.0288,1.0322,0.9993,0.9382,0.9051,0.894,0.894,0.8885,0.8885,0.8885,0.8885,0.8885,0.8885,0.8885,0.8878,0.8871,0.8933,0.9154,0.9361,0.943,0.9816,1.0202,0.9871,1.0151,1.0537,1.07,1.0631,1.0524,1.0598,1.0369,1.0021,0.9731,0.9618,0.9666,0.9795,0.9822,0.9822,0.9822,0.9822,0.9822,0.9822,0.9815,0.9754,0.9625,0.9598,0.9483,0.9241,0.9207,0.9096,0.8898,0.8885,0.8885,0.8885,0.8885,0.8885,0.8885,0.8885,0.8885,0.8885,0.8885,0.8885,0.8885,0.8885,0.8885,0.8885,0.8885,0.8885,0.0561,0.1586,0.2726,0.3828,0.4934,0.0,0.0,0.7084,0.7046,0.7247,0.7377,0.0,0.0,0.0,0.8241,0.8549,0.9223,0.9757,1.0058,1.0263,1.0358,1.0358,1.0276,1.0209,1.0195,1.0019,0.9883,0.9977,0.9849,0.9842,0.9903,0.9849,0.9822,0.9822,1.0126,1.0368,1.0482,1.1027,1.1337,1.1458,1.1716,1.1638,1.1395,1.1304,1.0864,1.0141,0.9979,0.9574,0.9106,0.894,0.8885,0.8885,0.8885,0.8885,0.8885,0.8885,0.8885,0.8885,0.8885,0.8885,0.8885,0.8885,0.8995,0.9106,0.9106,0.9272,0.9375,0.9265,0.9504,0.9939,1.0343,1.0544,1.0525,1.0441,1.0343,1.0134,0.9685,0.968,0.9734,0.9693,0.9761,0.9822,0.9822,0.9822,0.9822,0.9822,0.9822,0.9802,0.9747,0.9741,0.9659,0.9456,0.9354,0.9273,0.9218,0.9211,0.9211,0.9211,0.9042,0.8885,0.8885,0.8885,0.8885,0.8885,0.8885,0.8885,0.8885,0.8885,0.8885,0.8885,0.8885,0.8885,0.0,0.086,0.2063,0.3114,0.0,0.0,0.6774,0.704,0.7095,0.7347,0.7432,0.7529,0.7568,0.0,0.0,0.8509,0.9123,0.9679,0.9866,1.0118,1.0263,1.0215,1.0051,1.0011,1.0127,0.9944,0.9863,0.9909,0.9883,0.9822,0.9822,0.9822,0.9822,0.9822,1.0004,1.0186,1.0308,1.0793,1.1027,1.1148,1.135,1.1383,1.1323,1.1082,1.0595,0.9942,0.9766,0.9398,0.8885,0.8885,0.8885,0.8885,0.8885,0.8885,0.8885,0.8885,0.8885,0.8885,0.8885,0.8885,0.8885,0.8885,0.8885,0.8885,0.8885,0.8995,0.9051,0.9051,0.9377,0.9729,1.0069,1.023,1.0359,1.0279,1.0247,1.0037,0.976,0.9754,0.9795,0.9693,0.9754,0.9822,0.9822,0.9822,0.9822,0.9822,0.9822,0.9822,0.9822,0.9822,0.9768,0.9625,0.9469,0.9381,0.9381,0.9381,0.9381,0.9381,0.9191,0.9076,0.9076,0.9035,0.9008,0.9008,0.8905,0.8885,0.8885,0.8885,0.8885,0.8885,0.8885,0.8885,0.0,0.0905,0.2063,0.0,0.0,0.0,0.6906,0.721,0.7314,0.7627,0.7606,0.7557,0.7682,0.7836,0.8026,0.8153,0.9001,0.9617,0.9617,0.9992,1.0215,1.0004,0.9984,0.9923,0.9836,0.9822,0.9822,0.9822,0.9822,0.9822,0.9822,0.9822,0.9822,0.9822,0.9822,0.9943,1.0308,1.0301,1.0482,1.0785,1.0688,1.0732,1.0976,1.0838,1.034,0.961,0.9831,0.9496,0.8885,0.8885,0.8885,0.8885,0.8885,0.8885,0.8885,0.8885,0.8885,0.8885,0.8885,0.8885,0.8885,0.8885,0.8885,0.8885,0.8885,0.9161,0.9375,0.9375,0.9829,1.0185,0.9896,0.9776,0.9876,1.024,1.0065,0.9822,0.9822,0.9822,0.9822,0.9822,0.9822,0.9822,0.9822,0.9822,0.9822,0.9822,0.9822,0.9822,0.9822,0.9822,0.9768,0.9625,0.9476,0.9388,0.9388,0.9388,0.9388,0.9388,0.9388,0.9388,0.9381,0.9296,0.9214,0.9214,0.9015,0.8885,0.8885,0.8885,0.8885,0.8885,0.8885,0.8885,0.0,0.0905,0.0,0.3114,0.0,0.0,0.0,0.721,0.0,0.0,0.7731,0.7682,0.7801,0.7785,0.7892,0.817,0.8739,0.9161,0.9339,0.9685,0.9944,0.9897,0.989,0.9869,0.9829,0.9822,0.9822,0.9822,0.9822,0.9822,0.9822,0.9822,0.9822,0.9822,0.9822,0.9822,0.9943,1.0081,1.0261,1.0422,1.0214,1.0384,1.0838,1.0472,1.0191,0.9938,0.9641,0.9387,0.9083,0.8981,0.8885,0.8885,0.8885,0.8885,0.8885,0.8885,0.8885,0.8885,0.8885,0.8885,0.8885,0.8885,0.8885,0.8885,0.8885,0.8995,0.9051,0.9051,0.932,0.9671,0.9555,0.9582,0.97,0.9916,0.9883,0.9795,0.9693,0.9747,0.9788,0.9693,0.9754,0.9822,0.9822,0.9822,0.9822,0.9822,0.9822,0.9822,0.9822,0.9822,0.9802,0.9761,0.972,0.9693,0.9693,0.9693,0.9693,0.9693,0.9693,0.9598,0.9388,0.934,0.9313,0.9313,0.9273,0.9198,0.9089,0.9089,0.9035,0.8885,0.8885,0.8885,0.0,0.0865,0.0,0.3155,0.4425,0.5755,0.7043,0.0,0.0,0.0,0.778,0.7736,0.785,0.778,0.7791,0.8127,0.8512,0.8805,0.8989,0.9358,0.9645,0.9585,0.97,0.9822,0.9822,0.9822,0.9795,0.9741,0.9734,0.9707,0.9652,0.9646,0.9673,0.9734,0.968,0.9673,0.9734,0.9769,0.986,0.9937,0.975,0.9822,1.0235,0.9971,0.9776,0.9713,0.9387,0.915,0.9062,0.8974,0.8885,0.8885,0.8885,0.8885,0.8885,0.8885,0.8885,0.8885,0.8885,0.8885,0.8885,0.8885,0.8885,0.8885,0.8885,0.8885,0.8885,0.8885,0.915,0.9367,0.9306,0.9449,0.9646,0.9788,0.9734,0.9652,0.9686,0.972,0.9727,0.97,0.9761,0.9822,0.9822,0.9822,0.9822,0.9822,0.9822,0.9822,0.9822,0.9822,0.9822,0.9822,0.9822,0.9822,0.9822,0.9822,0.9849,0.9849,0.9856,0.9526,0.8929,0.9294,0.9469,0.9469,0.9415,0.9334,0.9303,0.9303,0.9171,0.9022,0.9022,0.9022,0.0,0.0,0.0,0.3181,0.4554,0.0,0.7227,0.7638,0.7747,0.785,0.0,0.7763,0.7867,0.7796,0.7785,0.8065,0.8284,0.8471,0.8471,0.9032,0.9422,0.9294,0.9579,0.9822,0.9822,0.9808,0.9747,0.9618,0.9598,0.953,0.9388,0.9381,0.9442,0.9585,0.9456,0.9449,0.9585,0.9435,0.9367,0.9381,0.9268,0.9268,0.9361,0.9361,0.9344,0.92,0.9015,0.8898,0.8885,0.8885,0.8885,0.8885,0.8885,0.8885,0.8885,0.8885,0.8885,0.8885,0.8885,0.8885,0.8885,0.8885,0.8885,0.8885,0.8885,0.8885,0.8885,0.8885,0.9144,0.9327,0.9248,0.9367,0.9625,0.9768,0.9598,0.9483,0.9761,0.972,0.9666,0.9795,0.9822,0.9822,0.9822,0.9822,0.9822,0.9822,0.9822,0.9822,0.9822,0.9822,0.9822,0.9822,0.9822,0.9829,0.9842,0.9842,0.991,0.9997,0.9814,0.918,0.8114,0.8987,0.9387,0.9268,0.9137,0.9059,0.9046,0.9169,0.9147,0.9057,0.9171,0.9228,0.0,0.0903,0.0,0.0,0.5508,0.7352,0.7708,0.7818,0.7839,0.7867,0.7988,0.8048,0.807,0.7977,0.785,0.796,0.8223,0.8407,0.8407,0.8958,0.9313,0.9281,0.9579,0.9822,0.9822,0.972,0.9646,0.9612,0.9496,0.9415,0.9381,0.9381,0.9395,0.9429,0.9401,0.9395,0.9429,0.9337,0.9316,0.9374,0.911,0.9062,0.9262,0.9262,0.9241,0.9207,0.918,0.9042,0.8885,0.8885,0.8885,0.8885,0.8885,0.8885,0.8885,0.8885,0.8885,0.8885,0.8885,0.8885,0.8885,0.8885,0.8885,0.8885,0.8885,0.8885,0.8885,0.8885,0.9062,0.9255,0.9221,0.935,0.9469,0.9618,0.9605,0.9605,0.9781,0.9795,0.9781,0.9815,0.9822,0.9822,0.9822,0.9822,0.9822,0.9822,0.9822,0.9822,0.9822,0.9822,0.9822,0.9822,0.9822,0.9869,0.993,0.9936,1.0066,1.0222,0.9115,0.8344,0.8118,0.8195,0.7757,0.6724,0.664,0.6589,0.6515,0.753,0.7937,0.7812,0.8865,0.9334,0.0,0.0,0.0,0.4223,0.0,0.7731,0.7845,0.7872,0.7872,0.7872,0.7982,0.8026,0.8026,0.7977,0.7888,0.801,0.8144,0.8273,0.8273,0.8638,0.8983,0.9105,0.9396,0.964,0.9761,0.9754,0.968,0.9612,0.9537,0.9429,0.9337,0.933,0.933,0.933,0.9205,0.9205,0.933,0.9123,0.9089,0.9164,0.8959,0.8981,0.9049,0.9049,0.9049,0.9049,0.9049,0.9008,0.8885,0.8885,0.8885,0.8885,0.8885,0.8885,0.8885,0.8885,0.8885,0.8885,0.8885,0.8885,0.8885,0.8885,0.8885,0.8885,0.8885,0.8885,0.8885,0.8885,0.9042,0.9207,0.9207,0.9323,0.9422,0.9571,0.9551,0.9557,0.9774,0.9768,0.9741,0.9808,0.9822,0.9822,0.9822,0.9822,0.9822,0.9822,0.9822,0.9822,0.9822,0.9822,0.9849,0.9862,0.9869,0.9992,1.0148,1.0161,1.0222,1.0371,0.8962,0.7863,0.7334,0.648,0.6006,0.59,0.5916,0.5876,0.577,0.6436,0.7045,0.753,0.8184,0.8896,0.0,0.0,0.2409,0.4764,0.6399,0.0,0.785,0.7872,0.7872,0.7872,0.7872,0.7872,0.7872,0.7872,0.7966,0.807,0.8086,0.8086,0.8086,0.833,0.8605,0.8867,0.9159,0.9457,0.9761,0.9795,0.9727,0.9585,0.9571,0.9435,0.9187,0.9193,0.92,0.9173,0.9001,0.8994,0.9173,0.8994,0.8885,0.8885,0.8885,0.8885,0.8885,0.8885,0.8885,0.8885,0.8885,0.8885,0.8885,0.8885,0.8885,0.8885,0.8885,0.8885,0.8878,0.8851,0.8844,0.8844,0.8844,0.8844,0.8851,0.8871,0.8885,0.8885,0.8885,0.8898,0.8974,0.8974,0.9062,0.9214,0.9241,0.9344,0.9422,0.9571,0.953,0.9523,0.9768,0.9727,0.968,0.9795,0.9822,0.9822,0.9822,0.9822,0.9822,0.9822,0.9822,0.9822,0.9822,0.9822,0.9876,0.997,0.9984,1.0058,1.0304,1.0317,1.0314,1.0195,0.8657,0.7288,0.6062,0.4491,0.417,0.5238,0.5222,0.5237,0.5226,0.5468,0.6163,0.7295,0.7535,0.8378,0.0,0.0,0.2295,0.0,0.5151,0.6442,0.0,0.0,0.7872,0.0,0.7872,0.7872,0.7872,0.7872,0.7877,0.7955,0.7955,0.7955,0.7955,0.8206,0.8512,0.8854,0.9159,0.9457,0.9761,0.9707,0.9578,0.9422,0.9408,0.9279,0.8981,0.9083,0.9096,0.8974,0.8892,0.8892,0.8967,0.8892,0.8885,0.8885,0.8885,0.8885,0.8885,0.8885,0.8885,0.8885,0.8885,0.8885,0.8885,0.8885,0.8885,0.8885,0.8885,0.8885,0.8865,0.8791,0.8743,0.8743,0.8743,0.8743,0.8764,0.8838,0.8885,0.8885,0.8885,0.9028,0.918,0.918,0.9193,0.9241,0.9313,0.9367,0.9422,0.9571,0.9686,0.9774,0.9815,0.9808,0.9795,0.9815,0.9822,0.9822,0.9822,0.9822,0.9822,0.9822,0.9822,0.9822,0.9822,0.9822,0.9876,0.997,0.9984,1.0098,1.0439,1.0466,1.0,0.8944,0.7469,0.6007,0.4623,0.3175,0.2415,0.2635,0.2534,0.25,0.2531,0.3633,0.4851,0.6185,0.7342,0.8569,0.0,0.0,0.0,0.0,0.4919,0.6267,0.7612,0.0,0.7872,0.7872,0.7872,0.7872,0.7872,0.7872,0.7872,0.7872,0.7818,0.7801,0.7861,0.7939,0.817,0.8543,0.8787,0.9033,0.9393,0.9446,0.9456,0.9388,0.9381,0.9286,0.9069,0.9173,0.9089,0.8892,0.8885,0.8885,0.8885,0.8885,0.8885,0.8885,0.8885,0.8885,0.8885,0.8885,0.8885,0.8885,0.8885,0.8885,0.8885,0.8885,0.8885,0.8885,0.8885,0.8885,0.8865,0.8764,0.8764,0.8825,0.8743,0.8764,0.8852,0.8865,0.8885,0.8885,0.8885,0.8981,0.9035,0.9035,0.9035,0.9089,0.932,0.932,0.9334,0.9652,0.9713,0.9727,0.9802,0.9822,0.9822,0.9822,0.9822,0.9822,0.9822,0.9822,0.9849,0.9876,0.9876,0.9849,0.9876,0.9889,1.0005,1.0161,1.0249,1.0057,0.9473,0.9419,0.8849,0.7431,0.6034,0.4967,0.43,0.2942,0.212,0.209,0.2042,0.2004,0.1977,0.259,0.3879,0.5896,0.6508,0.7856,0.0,0.0,0.0,0.0,0.4422,0.5702,0.0,0.0,0.7834,0.7867,0.785,0.7828,0.7828,0.7828,0.7828,0.7828,0.7731,0.7687,0.7769,0.7709,0.7806,0.8262,0.842,0.8651,0.9012,0.9267,0.9367,0.9327,0.9361,0.93,0.911,0.9187,0.9069,0.8831,0.8865,0.8865,0.8824,0.8865,0.8885,0.8885,0.8885,0.8865,0.8824,0.8865,0.8844,0.8825,0.8851,0.8885,0.8885,0.8885,0.8858,0.8831,0.8865,0.8858,0.8804,0.871,0.875,0.8804,0.8703,0.875,0.8831,0.8871,0.8885,0.8885,0.8885,0.896,0.8994,0.8994,0.8994,0.9062,0.9361,0.9357,0.9323,0.9713,0.9713,0.9646,0.9788,0.9822,0.9822,0.9822,0.9822,0.9822,0.9822,0.9849,0.9856,0.997,0.9889,0.9937,1.0086,1.0011,1.0058,1.0317,1.0426,0.996,0.8695,0.8573,0.7836,0.5967,0.49,0.4166,0.3765,0.2759,0.214,0.211,0.2064,0.2023,0.1988,0.1979,0.3328,0.5896,0.5921,0.7347,0.0,0.0,0.0,0.0,0.0,0.0,0.0,0.0,0.7741,0.785,0.7785,0.7709,0.7709,0.7709,0.7709,0.7709,0.7606,0.7529,0.7535,0.7529,0.7646,0.8002,0.8224,0.8515,0.8871,0.9214,0.932,0.9234,0.9357,0.9252,0.8912,0.9083,0.9077,0.873,0.8811,0.8811,0.8723,0.8811,0.8885,0.8885,0.8885,0.8811,0.873,0.8817,0.8777,0.852,0.8811,0.8885,0.8885,0.8885,0.8797,0.8737,0.8824,0.8797,0.8703,0.8554,0.8587,0.8703,0.8547,0.8594,0.8743,0.8838,0.8885,0.8885,0.8885,0.9035,0.92,0.92,0.92,0.9268,0.9517,0.9374,0.9323,0.9713,0.9713,0.9646,0.9788,0.9822,0.9822,0.9822,0.9822,0.9822,0.9822,0.9883,0.9977,0.9984,0.9977,1.0031,1.0249,1.0141,1.0161,1.0446,1.0487,0.996,0.8695,0.8573,0.7374,0.4568,0.4367,0.3698,0.2356,0.2223,0.214,0.211,0.2106,0.2075,0.2016,0.1989,0.3328,0.59,0.6048,0.7468,0.0,0.0,0.0,0.0,0.2334,0.3178,0.5322,0.6197,0.6747,0.7487,0.7676,0.7676,0.76,0.7584,0.7584,0.7584,0.7481,0.7426,0.7508,0.7453,0.7432,0.7682,0.8026,0.8286,0.8314,0.8729,0.8886,0.8737,0.8771,0.8757,0.8648,0.8696,0.8676,0.8567,0.8615,0.8621,0.8567,0.8621,0.8648,0.8648,0.8648,0.8615,0.8567,0.8723,0.873,0.8642,0.8797,0.8824,0.8784,0.8682,0.8669,0.871,0.8662,0.8669,0.8689,0.854,0.8642,0.8832,0.8682,0.873,0.8811,0.8865,0.8885,0.8885,0.8885,0.8974,0.9015,0.9015,0.9083,0.9234,0.9344,0.9296,0.9275,0.9476,0.9578,0.9646,0.9788,0.9822,0.9822,0.9822,0.9822,0.9822,0.9822,0.9869,0.9876,0.997,0.9984,1.0044,1.0263,1.031,1.0371,1.048,0.9783,0.8723,0.7298,0.6368,0.5034,0.3094,0.2961,0.2759,0.2223,0.2223,0.2217,0.2139,0.2119,0.2089,0.2048,0.2018,0.3392,0.6072,0.611,0.7577,0.0,0.0,0.0,0.0,0.0,0.2359,0.4067,0.5149,0.5983,0.6715,0.7253,0.7551,0.747,0.7421,0.741,0.7453,0.7355,0.7301,0.7388,0.7296,0.7263,0.7383,0.7646,0.7864,0.7926,0.8291,0.8488,0.8492,0.8479,0.8479,0.8479,0.8479,0.8479,0.8479,0.8438,0.8431,0.8479,0.8479,0.8479,0.8479,0.8479,0.8459,0.8418,0.8567,0.8608,0.8574,0.8723,0.8784,0.8777,0.8676,0.8662,0.8703,0.8655,0.8669,0.8696,0.8594,0.8716,0.8865,0.8764,0.8811,0.8885,0.8885,0.8885,0.8885,0.8885,0.8885,0.8885,0.8885,0.9042,0.9221,0.9275,0.9357,0.9388,0.9442,0.9571,0.9707,0.9802,0.9822,0.9822,0.9822,0.9822,0.9822,0.9822,0.9863,0.9869,0.997,1.0031,1.0181,1.0331,1.0432,1.0312,0.9901,0.9125,0.7836,0.5834,0.4833,0.3698,0.2289,0.2223,0.2223,0.2223,0.2223,0.2223,0.2223,0.2135,0.2114,0.2159,0.2053,0.3445,0.617,0.5691,0.675,0.0,0.0,0.0,0.0,0.0,0.0,0.1935,0.3779,0.5459,0.5664,0.6541,0.7271,0.7271,0.7236,0.7192,0.7312,0.723,0.721,0.7215,0.7117,0.7029,0.7199,0.7217,0.7375,0.7768,0.7983,0.8217,0.8472,0.8472,0.8472,0.8472,0.8472,0.8472,0.8472,0.8336,0.833,0.8465,0.8472,0.8472,0.8472,0.8472,0.8397,0.832,0.8418,0.8404,0.8333,0.8431,0.8662,0.8885,0.8871,0.8838,0.8723,0.8811,0.8838,0.871,0.871,0.8804,0.8865,0.8771,0.8811,0.8885,0.8885,0.8885,0.8885,0.8885,0.8885,0.8885,0.8892,0.9049,0.9255,0.9347,0.9598,0.9774,0.9639,0.9713,0.9815,0.9822,0.9822,0.9822,0.9822,0.9822,0.9822,0.9822,0.9883,0.9984,0.9984,1.0181,1.0337,1.0473,1.0493,1.0025,0.8762,0.8573,0.7374,0.4568,0.4233,0.3631,0.2289,0.2221,0.2221,0.2223,0.222,0.222,0.2289,0.2289,0.2289,0.2289,0.2225,0.3544,0.6182,0.5034,0.5231,0.0,0.0,0.0,0.0,0.0,0.0,0.1658,0.2457,0.3439,0.5156,0.5764,0.6252,0.7091,0.7232,0.7221,0.7198,0.7232,0.7243,0.7274,0.7182,0.7149,0.7274,0.7292,0.7446,0.7653,0.7838,0.8019,0.8116,0.816,0.816,0.816,0.816,0.816,0.816,0.8126,0.8119,0.816,0.816,0.816,0.816,0.816,0.814,0.8113,0.8364,0.8459,0.8438,0.8703,0.8804,0.8865,0.8703,0.8648,0.8703,0.8635,0.8648,0.871,0.871,0.8804,0.8878,0.8838,0.8851,0.8885,0.8885,0.8885,0.8885,0.8885,0.8885,0.8905,0.9062,0.9205,0.9354,0.9503,0.9523,0.9517,0.9591,0.9639,0.9693,0.9795,0.9822,0.9822,0.9822,0.9822,0.9822,0.9822,0.9883,0.9984,0.9984,1.027,1.0446,1.0487,1.0588,1.0135,0.8773,0.7636,0.6301,0.4434,0.3362,0.2625,0.2223,0.2133,0.2132,0.2221,0.2179,0.2636,0.3696,0.3727,0.3727,0.3698,0.3696,0.4598,0.6362,0.8112,0.9143,0.0,0.0,0.0,0.0,0.0,0.0,0.0864,0.1525,0.2301,0.3613,0.4735,0.5647,0.6308,0.684,0.7226,0.722,0.7243,0.7237,0.7252,0.7198,0.7237,0.7252,0.726,0.7331,0.763,0.7709,0.782,0.8089,0.8029,0.7988,0.7988,0.7988,0.7988,0.7988,0.7988,0.7988,0.7988,0.7988,0.8022,0.8133,0.8022,0.8056,0.8228,0.8343,0.8459,0.8587,0.8764,0.8824,0.8871,0.8743,0.8723,0.8798,0.871,0.873,0.8804,0.8804,0.8804,0.8885,0.8885,0.8885,0.8885,0.8885,0.8885,0.8885,0.8885,0.8981,0.9035,0.9055,0.9218,0.9429,0.9646,0.9632,0.9585,0.968,0.97,0.972,0.9802,0.9822,0.9822,0.9822,0.9822,0.9822,0.9822,0.9883,0.9984,0.9984,1.0304,1.0493,1.0493,1.0622,1.018,0.8773,0.7836,0.6769,0.5302,0.3897,0.3094,0.3094,0.2471,0.2131,0.2135,0.2102,0.2746,0.4158,0.4191,0.4711,0.5869,0.5426,0.559,0.6431,0.8773,0.948,0.0,0.0,0.0,0.0,0.0,0.0,0.0,0.0848,0.164,0.1753,0.349,0.5048,0.5164,0.6065,0.6826,0.6863,0.6822,0.6903,0.7209,0.7248,0.7243,0.727,0.7089,0.7219,0.7756,0.7568,0.7667,0.8269,0.8126,0.7988,0.7988,0.7988,0.7988,0.7988,0.7988,0.7988,0.7988,0.7988,0.8119,0.832,0.8113,0.8194,0.8479,0.835,0.8445,0.871,0.873,0.8811,0.8885,0.8885,0.8885,0.8885,0.8885,0.8885,0.8885,0.8885,0.8885,0.8885,0.8885,0.8885,0.8885,0.8885,0.8885,0.8885,0.8905,0.9049,0.9187,0.9042,0.9211,0.949,0.9754,0.9822,0.9822,0.9822,0.9822,0.9822,0.9822,0.9822,0.9829,0.9842,0.9836,0.9829,0.9842,0.9909,1.0017,1.0031,1.0337,1.0514,1.0514,1.0636,1.018,0.8773,0.8573,0.7969,0.6498,0.5235,0.4437,0.4311,0.3098,0.2345,0.2125,0.2119,0.2824,0.4277,0.4391,0.5797,0.837,0.7187,0.6672,0.6885,0.822,0.8035,0.0,0.0,0.0,0.0,0.0,0.0,0.0,0.0206,0.0617,0.1585,0.2162,0.2785,0.3781,0.4169,0.4314,0.432,0.4287,0.5066,0.7269,0.7426,0.7372,0.7573,0.7312,0.7398,0.7895,0.7713,0.7773,0.8282,0.8126,0.7988,0.7988,0.7988,0.7988,0.7988,0.7988,0.7988,0.7988,0.7988,0.8119,0.832,0.8113,0.8194,0.8479,0.8452,0.854,0.8716,0.8838,0.8858,0.8885,0.8885,0.8885,0.8885,0.8885,0.8885,0.8885,0.8885,0.8885,0.8885,0.8885,0.8885,0.8885,0.8885,0.8885,0.8905,0.9076,0.9187,0.9255,0.9415,0.9605,0.9747,0.9808,0.9822,0.9822,0.9822,0.9822,0.9822,0.9822,0.9822,0.9856,0.9916,0.9842,0.9863,0.9923,1.0134,1.0276,1.0385,1.0561,1.0677,1.0677,1.0704,1.018,0.8773,0.8573,0.7969,0.6498,0.6168,0.5527,0.4371,0.4057,0.3392,0.2217,0.2172,0.336,0.5949,0.7012,0.8367,1.0058,0.8506,0.8463,0.968,1.0006,0.9993,0.0,0.0,0.0,0.0,0.0,0.0,0.0,0.0,0.0152,0.0775,0.14,0.1975,0.2567,0.3194,0.3628,0.3691,0.3617,0.4142,0.5613,0.5663,0.5827,0.6528,0.6502,0.6877,0.7908,0.7834,0.7874,0.8289,0.8201,0.8153,0.8153,0.8029,0.7988,0.7988,0.7988,0.7988,0.7988,0.7988,0.8153,0.8377,0.8228,0.835,0.871,0.8628,0.8676,0.8825,0.8851,0.8885,0.8885,0.8885,0.8885,0.8885,0.8885,0.8885,0.8885,0.8885,0.8981,0.9035,0.8905,0.8988,0.9035,0.8905,0.8885,0.8967,0.9166,0.9262,0.9313,0.9544,0.9659,0.9734,0.9802,0.9822,0.9822,0.9822,0.9822,0.9822,0.9822,0.9822,0.9869,0.9957,0.9923,0.9923,1.0141,1.029,1.0412,1.048,1.0622,1.0717,1.0717,1.0717,1.0452,0.9715,0.9643,0.9377,0.864,0.7957,0.7269,0.657,0.5208,0.4126,0.3395,0.2603,0.3521,0.6305,0.7605,0.8927,1.027,0.9431,0.9151,0.9414,1.0129,1.009,0.0,0.0,0.0,0.0,0.0,0.0,0.0,0.0,0.0,0.0,0.0766,0.1445,0.1445,0.2247,0.2949,0.3075,0.2987,0.299,0.3111,0.3119,0.3621,0.505,0.5448,0.6178,0.7551,0.7812,0.8034,0.8366,0.8323,0.8333,0.8361,0.8194,0.8062,0.8035,0.8035,0.8035,0.8035,0.8002,0.8201,0.8526,0.835,0.8506,0.8878,0.8777,0.8798,0.8885,0.8885,0.8885,0.8885,0.8885,0.8885,0.8885,0.8885,0.8885,0.8885,0.8885,0.9015,0.9096,0.8981,0.9015,0.9089,0.8974,0.8898,0.9008,0.9207,0.9306,0.9456,0.9605,0.9652,0.968,0.9788,0.9822,0.9822,0.9822,0.9822,0.9829,0.9856,0.9863,0.9917,1.0038,1.0071,1.0175,1.0297,1.0419,1.05,1.0534,1.0643,1.0717,1.0717,1.0717,1.0717,1.0717,1.0717,1.0717,1.0717,0.9771,0.9109,0.8791,0.668,0.5311,0.4989,0.3739,0.4242,0.6743,0.7741,0.8857,1.0112,1.0058,0.9569,0.8638,0.989,0.9781,0.0,0.0,0.0,0.0,0.0,0.0,0.0,0.0,0.0,0.0,0.0,0.0203,0.0203,0.0,0.0,0.042,0.043,0.0439,0.0441,0.0453,0.1334,0.3808,0.4933,0.576,0.6332,0.7472,0.8317,0.8797,0.8492,0.8374,0.8452,0.8438,0.8377,0.8248,0.8241,0.8241,0.8241,0.8106,0.8204,0.8682,0.8404,0.8506,0.8878,0.8777,0.8798,0.8885,0.8885,0.8885,0.8885,0.8885,0.8885,0.8885,0.8885,0.8885,0.8885,0.8885,0.8892,0.8905,0.8892,0.8892,0.8905,0.8892,0.9022,0.9214,0.9306,0.9462,0.9612,0.9754,0.9795,0.9802,0.9815,0.9822,0.9822,0.9822,0.9822,0.9856,0.993,0.9963,1.0044,1.0385,1.0439,1.0446,1.0466,1.048,1.0534,1.0677,1.0711,1.0717,1.0717,1.0717,1.0717,1.0717,1.0717,1.0717,1.0717,1.0658,1.011,0.891,0.8669,0.8059,0.6777,0.6425,0.7081,0.8744,0.8512,0.9137,1.0643,1.0385,1.0125,0.983,1.0294,1.0408,0.0,0.092,0.0775,0.0152,0.0,0.0,0.0,0.0,0.0,0.0,0.0,0.0,0.0,0.0,0.0,0.0,0.0,0.0,0.0,0.0,0.0669,0.2597,0.3167,0.4173,0.6021,0.7438,0.8374,0.8757,0.8716,0.8682,0.8743,0.8662,0.8587,0.8526,0.8438,0.8391,0.8391,0.833,0.8438,0.871,0.8587,0.8669,0.8885,0.8817,0.8824,0.8885,0.8885,0.8885,0.8885,0.8885,0.8885,0.8885,0.8885,0.8885,0.8885,0.8885,0.8994,0.9049,0.8967,0.8994,0.9049,0.8967,0.9035,0.9221,0.9282,0.9415,0.9618,0.968,0.9754,0.9822,0.9822,0.9822,0.9822,0.9822,0.9822,0.9863,0.9957,0.9984,1.0078,1.0432,1.0493,1.0521,1.0609,1.0622,1.0649,1.0711,1.0717,1.0717,1.0717,1.0717,1.0717,1.0717,1.0717,1.0758,1.0779,1.0989,1.0856,1.0372,0.9646,0.8514,0.7038,0.6933,0.7607,0.9035,0.889,0.9399,1.0717,1.0683,1.0541,1.031,1.0527,1.0228,0.24,0.1955,0.1454,0.066,0.0207,0.0,0.0,0.0,0.0,0.0,0.0,0.0,0.0,0.0,0.0,0.0,0.0,0.0,0.0,0.0,0.0376,0.1345,0.1772,0.3082,0.5868,0.7057,0.7939,0.8626,0.8844,0.8898,0.8994,0.8893,0.8811,0.8771,0.8662,0.8608,0.8608,0.8608,0.8682,0.8832,0.8832,0.8893,0.8994,0.866,0.8493,0.8487,0.8455,0.8214,0.7986,0.8269,0.838,0.838,0.838,0.8602,0.8885,0.8885,0.9008,0.9083,0.8974,0.9008,0.9076,0.8974,0.9035,0.9214,0.9262,0.9401,0.9618,0.9659,0.9741,0.9822,0.9822,0.9822,0.9829,0.9876,0.9883,0.9937,1.0127,1.0175,1.0249,1.0507,1.0555,1.0588,1.0704,1.0717,1.0717,1.0717,1.0717,1.0717,1.0717,1.0717,1.0717,1.0717,1.0717,1.0778,1.0867,1.1084,1.1246,1.1443,1.0472,0.9435,0.8275,0.7837,0.8309,0.9735,0.934,0.9683,1.09,1.0975,1.0914,1.0738,1.0806,1.037,0.3754,0.2776,0.1739,0.1577,0.0768,0.0,0.0,0.0,0.0,0.0,0.0,0.0,0.0,0.0,0.0,0.0,0.0,0.0,0.0,0.0,0.0,0.0053,0.1188,0.3034,0.5728,0.618,0.692,0.8571,0.8847,0.9001,0.9193,0.92,0.9076,0.8878,0.8871,0.8871,0.8871,0.8871,0.8994,0.9193,0.9193,0.92,0.9144,0.8004,0.7431,0.7425,0.7259,0.6533,0.5584,0.6705,0.7154,0.7154,0.7154,0.7875,0.8885,0.8885,0.8885,0.8892,0.8885,0.8885,0.8892,0.8885,0.9035,0.9234,0.9327,0.9483,0.9639,0.9774,0.9815,0.9822,0.9822,0.9822,0.9856,0.9943,0.9977,1.0058,1.0412,1.048,1.0527,1.0683,1.0711,1.0717,1.0717,1.0717,1.0717,1.0717,1.0717,1.0717,1.0717,1.0717,1.0717,1.0717,1.0717,1.0778,1.0867,1.1084,1.1294,1.1592,1.1548,1.1476,1.1476,1.0017,0.9939,1.1469,0.9954,0.9883,1.1369,1.1226,1.1226,1.1362,1.1212,1.1145,0.554,0.501,0.4233,0.2432,0.1732,0.1224,0.0206,0.0,0.0,0.0,0.0,0.0,0.0,0.0,0.0,0.0,0.0,0.0,0.0,0.0,0.0,0.0,0.1109,0.2319,0.339,0.5201,0.6549,0.7326,0.8514,0.9252,0.93,0.9401,0.9435,0.9381,0.9286,0.9232,0.9232,0.9232,0.8794,0.802,0.802,0.7514,0.6692,0.6237,0.6087,0.6079,0.5991,0.575,0.5417,0.581,0.5977,0.6033,0.6816,0.7376,0.782,0.8602,0.8885,0.8885,0.8885,0.8885,0.8885,0.8885,0.8974,0.9055,0.9306,0.9415,0.951,0.9754,0.9822,0.9842,0.9883,0.9909,0.995,1.0168,1.0202,1.0256,1.0453,1.0493,1.0534,1.069,1.0717,1.0717,1.0717,1.0717,1.0717,1.0717,1.0717,1.0717,1.0717,1.0717,1.0717,1.0717,1.0717,1.0819,1.107,1.1321,1.1511,1.1613,1.1619,1.1619,1.1619,1.1109,1.1038,1.1619,1.1058,1.0986,1.1389,1.1443,1.1443,1.1396,1.1443,1.1463,0.7085,0.6534,0.5625,0.347,0.2551,0.1824,0.0467,0.0053,0.0,0.0,0.0,0.0,0.0,0.0,0.0,0.0,0.0,0.0,0.0,0.0,0.0,0.0,0.0714,0.145,0.215,0.3813,0.5366,0.6594,0.7799,0.8743,0.9374,0.9476,0.9551,0.9605,0.9564,0.9537,0.9537,0.911,0.845,0.7568,0.7118,0.6394,0.543,0.5054,0.4839,0.4848,0.4763,0.4526,0.4136,0.4582,0.4749,0.486,0.6033,0.676,0.7265,0.8436,0.8885,0.8885,0.8885,0.8974,0.9015,0.9015,0.9089,0.9211,0.9401,0.9496,0.9578,0.9768,0.9863,0.9862,0.9963,1.0031,1.0168,1.0324,1.0358,1.0392,1.0541,1.0575,1.0602,1.0704,1.0717,1.0717,1.0717,1.0717,1.0717,1.0717,1.0717,1.0717,1.0717,1.0717,1.0717,1.0717,1.0772,1.0921,1.1219,1.1477,1.1619,1.1619,1.1619,1.1619,1.1619,1.1619,1.164,1.1694,1.1647,1.1592,1.1545,1.1599,1.1565,1.1477,1.1572,1.1619]}]]